[[{"header":{"parameterUnit":"m.s-1","parameterCategory":1,"la1":30.6,"la2":29.2853,"lo1":-89.7004,"lo2":-87.6739,"dy":0.0162,"dx":0.0183,"nx":112,"ny":82,"refTime":"2024-05-07T12:00:00:Z","depth":0,"parameterNumber":2,"parameterNumberName":"U-component_of_WINDS"},"data":[0.0,0.0,0.0,0.0,0.0,0.0,0.0,0.0,0.0,0.0,0.0,0.0,0.0,0.0,0.0,0.0,0.0,0.0,0.0,0.0,0.0,0.0,0.0,0.0,0.0,0.0,0.0,0.0,0.0,0.0,0.0,0.0,0.0,0.0,0.0,0.0,0.0,0.0,0.0,0.0,0.0,0.0,0.0,0.0,0.0,0.0,0.0,0.0,0.0,0.0,0.0,0.0,0.0,0.0,0.0,0.0,0.0,0.0,0.0,0.0,0.0,0.0,0.0,0.0,0.0,0.0,0.0,0.0,0.0,0.0,0.0,0.0,0.0,0.0,0.0,0.0,0.0,0.0,0.0,0.0,0.0,0.0,0.0,0.0,0.0,0.0,0.0,0.0,0.0,0.0,0.0,5.5055,5.7598,5.7815,5.5226,5.2584,4.7792,4.0079,0.0,0.0,0.0,0.0,0.0,0.0,0.0,0.0,0.0,0.0,0.0,0.0,0.0,0.0,0.0,0.0,0.0,0.0,0.0,0.0,0.0,0.0,0.0,0.0,0.0,0.0,0.0,0.0,0.0,0.0,0.0,0.0,0.0,0.0,0.0,0.0,0.0,0.0,0.0,0.0,0.0,0.0,0.0,0.0,0.0,0.0,0.0,0.0,0.0,0.0,0.0,0.0,0.0,0.0,0.0,0.0,0.0,0.0,0.0,0.0,0.0,0.0,0.0,0.0,0.0,0.0,0.0,0.0,0.0,0.0,0.0,0.0,0.0,0.0,0.0,0.0,0.0,0.0,0.0,0.0,0.0,0.0,0.0,0.0,0.0,0.0,0.0,0.0,0.0,0.0,0.0,0.0,0.0,0.0,0.0,0.0,0.0,0.0,0.0,0.0,0.0,0.0,0.0,0.0,4.9484,5.8312,5.952,5.869,5.6117,5.2833,4.7647,3.9995,0.0,0.0,0.0,0.0,0.0,0.0,0.0,0.0,0.0,0.0,0.0,0.0,0.0,0.0,0.0,0.0,0.0,0.0,0.0,0.0,0.0,0.0,0.0,0.0,0.0,0.0,0.0,0.0,0.0,0.0,0.0,0.0,0.0,0.0,0.0,0.0,0.0,0.0,0.0,0.0,0.0,0.0,0.0,0.0,0.0,0.0,0.0,0.0,0.0,0.0,0.0,0.0,0.0,0.0,0.0,0.0,0.0,0.0,0.0,0.0,0.0,0.0,0.0,0.0,0.0,0.0,0.0,0.0,0.0,0.0,0.0,0.0,0.0,0.0,0.0,0.0,0.0,0.0,0.0,0.0,0.0,0.0,0.0,0.0,0.0,0.0,0.0,0.0,0.0,0.0,0.0,0.0,0.0,0.0,0.0,0.0,0.0,0.0,0.0,0.0,0.0,0.0,0.0,4.739,5.1881,5.8518,5.8794,5.7671,5.5581,5.1811,4.6651,3.9944,3.4652,0.0,0.0,0.0,0.0,0.0,0.0,0.0,0.0,0.0,0.0,0.0,0.0,0.0,0.0,0.0,0.0,0.0,0.0,0.0,0.0,0.0,0.0,0.0,0.0,0.0,0.0,0.0,0.0,0.0,0.0,0.0,0.0,0.0,0.0,0.0,0.0,0.0,0.0,0.0,0.0,0.0,0.0,0.0,0.0,0.0,0.0,0.0,0.0,0.0,0.0,0.0,0.0,0.0,0.0,0.0,0.0,0.0,0.0,0.0,0.0,0.0,0.0,0.0,0.0,0.0,0.0,0.0,0.0,0.0,0.0,0.0,0.0,0.0,0.0,0.0,0.0,0.0,0.0,0.0,0.0,0.0,0.0,0.0,0.0,0.0,0.0,0.0,0.0,0.0,0.0,0.0,0.0,0.0,0.0,0.0,0.0,0.0,0.0,0.0,0.0,0.0,0.0,5.2253,5.4503,5.816,5.7619,5.6304,5.4602,4.9807,4.451,3.8914,3.2599,0.0,0.0,0.0,0.0,0.0,0.0,0.0,0.0,0.0,0.0,0.0,0.0,0.0,0.0,0.0,0.0,0.0,0.0,0.0,0.0,0.0,0.0,0.0,0.0,0.0,0.0,0.0,0.0,0.0,0.0,0.0,0.0,0.0,0.0,0.0,0.0,0.0,0.0,0.0,0.0,0.0,0.0,0.0,0.0,0.0,0.0,0.0,0.0,0.0,0.0,0.0,0.0,0.0,0.0,0.0,0.0,0.0,0.0,0.0,0.0,0.0,0.0,0.0,0.0,0.0,0.0,0.0,0.0,0.0,0.0,0.0,0.0,0.0,0.0,0.0,0.0,0.0,0.0,0.0,0.0,0.0,0.0,0.0,0.0,0.0,0.0,0.0,0.0,0.0,0.0,0.0,0.0,0.0,0.0,0.0,0.0,0.0,0.0,0.0,0.0,0.0,0.0,5.2298,5.6459,5.8317,5.708,5.5379,5.3662,4.6654,4.0513,3.6145,2.882,0.0,0.0,0.0,0.0,0.0,0.0,0.0,0.0,0.0,0.0,0.0,0.0,0.0,0.0,0.0,0.0,0.0,0.0,0.0,0.0,0.0,0.0,0.0,0.0,0.0,0.0,0.0,0.0,0.0,0.0,0.0,0.0,0.0,0.0,0.0,0.0,0.0,0.0,0.0,0.0,0.0,0.0,0.0,0.0,0.0,0.0,0.0,0.0,0.0,0.0,0.0,0.0,0.0,0.0,0.0,0.0,0.0,0.0,0.0,0.0,0.0,0.0,0.0,0.0,0.0,0.0,0.0,0.0,0.0,0.0,0.0,0.0,0.0,0.0,0.0,0.0,0.0,0.0,0.0,0.0,0.0,0.0,0.0,0.0,0.0,0.0,0.0,0.0,0.0,0.0,0.0,0.0,0.0,0.0,0.0,0.0,0.0,0.0,0.0,0.0,0.0,0.0,5.04,5.403,0.0,5.6136,5.4437,5.2738,4.7472,4.1798,3.5982,0.0,0.0,0.0,0.0,0.0,0.0,0.0,0.0,0.0,0.0,0.0,0.0,0.0,0.0,0.0,0.0,0.0,0.0,0.0,0.0,0.0,0.0,0.0,0.0,0.0,0.0,0.0,0.0,0.0,0.0,0.0,0.0,0.0,0.0,0.0,0.0,0.0,0.0,0.0,0.0,0.0,0.0,0.0,0.0,0.0,0.0,0.0,0.0,0.0,0.0,0.0,0.0,0.0,0.0,0.0,0.0,0.0,0.0,0.0,0.0,0.0,0.0,0.0,0.0,0.0,0.0,0.0,0.0,0.0,0.0,0.0,0.0,0.0,0.0,0.0,0.0,0.0,0.0,0.0,0.0,0.0,0.0,0.0,0.0,0.0,0.0,0.0,0.0,0.0,0.0,0.0,0.0,0.0,0.0,0.0,0.0,0.0,0.0,0.0,0.0,0.0,0.0,4.6127,5.037,5.3899,0.0,5.5576,5.3745,5.178,4.6694,4.1084,3.5123,0.0,0.0,0.0,0.0,0.0,0.0,0.0,0.0,0.0,0.0,0.0,0.0,0.0,0.0,0.0,0.0,0.0,0.0,0.0,0.0,0.0,0.0,0.0,0.0,0.0,0.0,0.0,0.0,0.0,0.0,0.0,0.0,0.0,0.0,0.0,0.0,0.0,0.0,0.0,0.0,0.0,0.0,0.0,0.0,0.0,0.0,0.0,0.0,0.0,0.0,0.0,0.0,0.0,0.0,0.0,0.0,0.0,0.0,0.0,0.0,0.0,0.0,0.0,0.0,0.0,0.0,0.0,0.0,0.0,0.0,0.0,0.0,0.0,0.0,0.0,0.0,0.0,0.0,0.0,0.0,0.0,0.0,0.0,0.0,0.0,0.0,0.0,0.0,0.0,0.0,0.0,0.0,0.0,0.0,0.0,0.0,0.0,0.0,0.0,0.0,0.0,0.0,4.6364,5.2782,5.6999,5.6994,5.5429,5.3349,5.0814,4.3614,3.7448,0.0,0.0,0.0,0.0,0.0,0.0,0.0,0.0,0.0,0.0,0.0,0.0,0.0,0.0,0.0,0.0,0.0,0.0,0.0,0.0,0.0,0.0,0.0,0.0,0.0,0.0,0.0,0.0,0.0,0.0,0.0,0.0,0.0,0.0,0.0,0.0,0.0,0.0,0.0,0.0,0.0,0.0,0.0,0.0,0.0,0.0,0.0,0.0,0.0,0.0,0.0,0.0,0.0,0.0,0.0,0.0,0.0,0.0,0.0,0.0,0.0,0.0,0.0,0.0,0.0,0.0,0.0,0.0,0.0,0.0,0.0,0.0,0.0,0.0,0.0,0.0,0.0,0.0,0.0,0.0,0.0,0.0,0.0,0.0,0.0,0.0,0.0,0.0,0.0,0.0,0.0,0.0,0.0,0.0,0.0,0.0,0.0,0.0,0.0,0.0,0.0,0.0,0.0,0.0,5.1774,5.5938,5.5915,5.4418,5.2631,5.0675,4.5151,3.9243,3.3196,0.0,0.0,0.0,0.0,0.0,0.0,0.0,0.0,0.0,0.0,0.0,0.0,0.0,0.0,0.0,0.0,0.0,0.0,0.0,0.0,0.0,0.0,0.0,0.0,0.0,0.0,0.0,0.0,0.0,0.0,0.0,0.0,0.0,0.0,0.0,0.0,0.0,0.0,0.0,0.0,0.0,0.0,0.0,0.0,0.0,0.0,0.0,0.0,0.0,0.0,0.0,0.0,0.0,0.0,0.0,0.0,0.0,0.0,0.0,0.0,0.0,0.0,0.0,0.0,0.0,0.0,0.0,0.0,0.0,0.0,0.0,0.0,0.0,0.0,0.0,0.0,0.0,0.0,0.0,0.0,0.0,0.0,0.0,0.0,0.0,0.0,0.0,0.0,0.0,0.0,0.0,0.0,0.0,0.0,0.0,0.0,0.0,0.0,0.0,0.0,0.0,0.0,4.5381,5.1491,5.559,5.5935,5.4724,5.3068,5.1079,4.6891,4.1437,3.4649,0.0,0.0,0.0,0.0,0.0,0.0,0.0,0.0,0.0,0.0,0.0,0.0,0.0,0.0,0.0,0.0,0.0,0.0,0.0,0.0,0.0,0.0,0.0,0.0,0.0,0.0,0.0,0.0,0.0,0.0,0.0,0.0,0.0,0.0,0.0,0.0,0.0,0.0,0.0,0.0,0.0,0.0,0.0,0.0,0.0,0.0,0.0,0.0,0.0,0.0,0.0,0.0,0.0,0.0,0.0,0.0,0.0,0.0,0.0,0.0,0.0,0.0,0.0,0.0,0.0,0.0,0.0,0.0,0.0,0.0,0.0,0.0,0.0,0.0,0.0,0.0,0.0,0.0,0.0,0.0,0.0,0.0,0.0,0.0,0.0,0.0,0.0,0.0,0.0,0.0,0.0,0.0,0.0,0.0,0.0,0.0,0.0,0.0,0.0,0.0,0.0,0.0,4.5839,5.1637,5.5618,5.6499,5.5606,5.4039,5.1713,4.8342,4.359,3.7052,0.0,0.0,0.0,0.0,0.0,0.0,0.0,0.0,0.0,0.0,0.0,0.0,0.0,0.0,0.0,0.0,0.0,0.0,0.0,0.0,0.0,0.0,0.0,0.0,0.0,0.0,0.0,0.0,0.0,0.0,0.0,0.0,0.0,0.0,0.0,0.0,0.0,0.0,0.0,0.0,0.0,0.0,0.0,0.0,0.0,0.0,0.0,0.0,0.0,0.0,0.0,0.0,0.0,0.0,0.0,0.0,0.0,0.0,0.0,0.0,4.5099,0.0,0.0,0.0,0.0,0.0,0.0,0.0,0.0,0.0,0.0,0.0,0.0,0.0,0.0,0.0,0.0,0.0,0.0,0.0,0.0,0.0,0.0,0.0,0.0,0.0,0.0,0.0,0.0,0.0,0.0,0.0,0.0,0.0,0.0,0.0,0.0,0.0,0.0,0.0,0.0,0.0,4.4993,5.0726,5.4702,5.5581,5.4206,5.2743,5.1599,4.7738,4.3352,3.8575,0.0,0.0,0.0,0.0,0.0,0.0,0.0,0.0,0.0,0.0,0.0,0.0,0.0,0.0,0.0,0.0,0.0,0.0,0.0,0.0,0.0,0.0,0.0,0.0,0.0,0.0,0.0,0.0,0.0,0.0,0.0,0.0,0.0,0.0,0.0,0.0,0.0,0.0,0.0,0.0,0.0,0.0,0.0,0.0,0.0,0.0,0.0,0.0,0.0,0.0,0.0,0.0,0.0,0.0,0.0,0.0,0.0,0.0,0.0,0.0,0.0,4.7152,0.0,0.0,0.0,0.0,0.0,0.0,0.0,0.0,0.0,0.0,0.0,0.0,0.0,0.0,0.0,0.0,0.0,0.0,0.0,0.0,0.0,0.0,0.0,0.0,0.0,0.0,0.0,0.0,0.0,0.0,0.0,0.0,0.0,0.0,0.0,0.0,0.0,0.0,0.0,0.0,4.4777,5.0045,5.3595,5.4001,5.3187,5.2258,5.1459,4.8618,4.5223,4.138,3.6863,0.0,0.0,0.0,0.0,0.0,0.0,0.0,0.0,0.0,0.0,0.0,0.0,0.0,0.0,0.0,0.0,0.0,0.0,0.0,0.0,0.0,0.0,0.0,0.0,0.0,0.0,0.0,0.0,0.0,0.0,0.0,0.0,0.0,0.0,0.0,0.0,0.0,0.0,0.0,0.0,0.0,0.0,0.0,0.0,0.0,0.0,0.0,0.0,0.0,0.0,0.0,0.0,0.0,0.0,0.0,5.6755,5.7317,5.841,5.9657,5.4666,5.2954,5.3335,0.0,0.0,0.0,0.0,0.0,0.0,0.0,0.0,0.0,0.0,0.0,0.0,0.0,0.0,0.0,0.0,0.0,0.0,0.0,0.0,0.0,0.0,0.0,0.0,0.0,5.1944,5.0933,0.0,0.0,0.0,0.0,0.0,0.0,0.0,0.0,0.0,0.0,0.0,0.0,4.536,4.982,5.2691,5.2817,5.2482,5.1972,5.1353,4.9618,4.7277,4.4283,4.0431,3.6426,0.0,0.0,0.0,0.0,0.0,0.0,0.0,0.0,0.0,0.0,0.0,0.0,0.0,0.0,0.0,0.0,0.0,0.0,0.0,0.0,0.0,0.0,0.0,0.0,0.0,0.0,0.0,0.0,0.0,0.0,0.0,0.0,3.6141,3.7775,0.0,0.0,0.0,0.0,0.0,0.0,0.0,0.0,0.0,0.0,0.0,0.0,0.0,0.0,5.5215,5.7491,5.9083,5.9961,6.2231,6.3407,6.3562,6.2917,6.3179,6.4051,6.2601,0.0,5.7824,5.4876,0.0,0.0,0.0,0.0,0.0,0.0,0.0,0.0,0.0,0.0,0.0,0.0,0.0,0.0,0.0,0.0,0.0,0.0,0.0,0.0,0.0,0.0,5.4626,5.5428,5.5352,5.4702,0.0,4.7941,4.224,3.8278,0.0,0.0,0.0,0.0,0.0,0.0,0.0,0.0,4.7691,5.0837,5.2894,5.3628,5.2303,5.1347,5.1233,4.8916,4.7034,4.5861,4.2617,3.9477,3.6709,3.2785,0.0,0.0,0.0,0.0,0.0,0.0,0.0,0.0,0.0,0.0,0.0,0.0,0.0,0.0,0.0,0.0,0.0,0.0,0.0,0.0,0.0,0.0,0.0,0.0,0.0,0.0,0.0,0.0,0.0,3.72,4.0523,4.0832,4.1081,4.0494,0.0,0.0,0.0,0.0,0.0,0.0,0.0,0.0,0.0,5.6004,5.6543,5.8173,6.1126,6.2226,6.3141,6.3903,6.5113,6.591,6.6291,6.5839,6.6104,6.6937,6.6595,6.5609,6.3975,5.9602,5.6147,5.3348,0.0,0.0,0.0,0.0,0.0,0.0,5.3552,0.0,0.0,0.0,0.0,0.0,0.0,0.0,0.0,0.0,0.0,0.0,0.0,0.0,0.0,5.7695,5.8116,5.8077,5.7581,5.4486,5.0245,0.0,4.4128,4.2446,3.6443,0.0,0.0,0.0,0.0,0.0,4.901,5.1592,5.2892,5.2276,5.1499,5.0648,4.9731,4.8191,4.6917,4.6138,4.3377,4.1071,3.9526,3.591,3.2201,0.0,0.0,0.0,0.0,0.0,0.0,0.0,0.0,0.0,0.0,0.0,0.0,0.0,0.0,0.0,0.0,0.0,0.0,0.0,0.0,0.0,0.0,0.0,0.0,0.0,0.0,0.0,0.0,4.0988,4.4227,4.3809,4.5489,4.5437,0.0,0.0,0.0,0.0,0.0,0.0,5.3194,5.4996,5.7673,6.1462,6.2113,6.3441,6.5565,6.5603,6.6021,6.6746,6.6855,6.7197,6.7693,6.7581,6.777,6.8186,6.8374,6.845,6.8148,6.371,6.0898,5.9014,5.6095,5.4465,0.0,5.5169,5.5274,5.5341,5.9353,6.022,5.9299,5.7911,0.0,5.4482,5.0481,0.0,0.0,0.0,0.0,5.315,5.4547,0.0,5.7221,5.871,5.955,5.9893,5.9474,5.8845,5.6643,0.0,5.0773,4.9428,4.2015,0.0,0.0,0.0,0.0,4.8795,5.0582,5.2437,5.3021,5.1692,5.1134,5.0304,4.8833,4.7778,4.6862,4.6086,4.402,4.2535,4.1765,3.8931,3.5907,0.0,0.0,0.0,0.0,0.0,0.0,0.0,0.0,0.0,0.0,0.0,0.0,0.0,0.0,0.0,0.0,0.0,0.0,0.0,0.0,0.0,0.0,0.0,0.0,0.0,0.0,0.0,0.0,0.0,0.0,4.7175,4.9442,0.0,0.0,0.0,0.0,5.0685,5.3139,5.5981,5.9279,6.0993,6.3076,6.5722,6.5764,6.6256,6.7276,6.7276,6.7655,6.8451,6.8489,6.8489,6.8527,6.8452,6.7997,6.7316,6.7994,6.8373,6.8413,6.7429,6.6025,6.4358,6.2576,6.1363,6.0605,6.0681,6.0785,6.1001,6.2026,6.1901,6.1507,6.2991,6.1216,5.8372,5.7367,5.5361,0.0,0.0,5.5417,5.6369,5.7206,5.7472,5.7777,5.869,5.8919,5.9147,5.987,6.0023,5.8948,0.0,5.3552,5.1771,4.972,0.0,0.0,4.9186,4.9559,5.0563,5.3021,5.3376,5.3352,5.3277,5.1782,5.044,4.9604,4.8031,4.6751,4.5848,4.5078,4.4298,4.3429,4.1765,3.9633,3.7041,3.2127,0.0,0.0,0.0,0.0,0.0,0.0,0.0,0.0,0.0,0.0,0.0,0.0,0.0,0.0,0.0,0.0,0.0,0.0,0.0,0.0,0.0,0.0,0.0,0.0,0.0,0.0,0.0,0.0,5.2144,5.4524,0.0,0.0,5.3783,5.4966,5.6664,5.8635,6.0719,6.2993,6.4133,6.5648,6.7655,6.7694,6.8073,6.8982,6.902,6.9133,6.9437,6.9323,6.9323,6.9284,6.9164,6.8895,6.8631,6.8892,6.9042,6.9046,6.8902,6.7922,6.6329,6.4661,6.3486,6.2728,6.2659,6.2694,6.2876,6.3641,6.3858,6.3764,6.3872,6.2661,6.0925,5.9612,5.8935,5.8456,5.7688,5.8098,5.8813,5.9087,5.9163,5.9299,5.9604,5.968,5.9756,6.0061,5.9688,5.8745,5.7025,5.6168,5.4629,5.1337,5.1158,5.1092,5.0069,5.1225,5.2689,5.4094,5.4188,5.3672,5.2554,5.1882,5.0535,4.816,4.6853,4.5641,4.4342,4.2987,4.2109,4.1832,4.0801,3.9255,3.7294,3.3938,3.0165,0.0,0.0,0.0,0.0,0.0,0.0,0.0,0.0,0.0,0.0,0.0,0.0,0.0,0.0,0.0,0.0,0.0,0.0,0.0,0.0,0.0,0.0,0.0,0.0,0.0,0.0,5.4519,5.4882,5.7908,5.9197,5.7232,5.8489,6.0042,6.1477,6.311,6.4628,6.6065,6.6899,6.7922,6.9284,6.9057,6.9322,7.0192,6.9927,7.0041,7.0571,7.0226,7.0186,7.041,6.998,6.9633,6.9332,6.9332,6.9332,6.9374,6.9495,6.8787,6.7581,6.6484,6.5538,6.4743,6.4406,6.414,6.4024,6.4518,6.4815,6.4879,6.4381,6.3622,6.2639,6.1299,6.1039,6.0931,5.9564,5.9596,6.0007,5.9982,6.0013,6.0007,6.0007,6.0045,6.0013,6.0013,5.9305,5.8559,5.8293,5.7794,5.6353,5.2996,5.3535,5.377,5.1802,5.284,5.4031,5.4565,5.4538,5.3912,5.2494,5.2081,5.0691,4.765,4.6373,4.5162,4.3864,4.2183,4.1393,4.1719,4.0427,3.9185,3.8056,3.535,3.2487,2.9481,0.0,0.0,0.0,0.0,0.0,0.0,0.0,0.0,0.0,0.0,0.0,0.0,0.0,0.0,0.0,0.0,0.0,0.0,0.0,0.0,0.0,0.0,0.0,4.9022,5.3021,5.592,5.5299,5.957,6.1652,5.9203,6.1792,6.3986,6.4926,6.637,6.7619,6.8451,6.9245,7.0037,7.0746,6.9992,6.9954,7.0746,6.9992,7.0407,7.1954,7.104,7.103,7.182,7.0899,7.0029,6.9203,6.9203,6.9246,6.9374,6.9374,6.9005,6.8332,6.8332,6.7803,6.7011,6.6143,6.5313,6.4596,6.467,6.4817,6.4888,6.4888,6.432,6.3448,6.2652,6.178,6.0947,6.0113,5.9885,5.9885,5.9885,5.9885,5.9885,5.9885,5.9857,5.9791,5.9791,5.908,5.8635,5.9427,5.8325,5.6765,5.5177,5.5454,5.5616,5.4824,5.4571,0.0,5.4468,5.4401,5.4033,5.3245,5.2419,5.0917,4.8438,4.6674,4.5359,4.4533,4.2934,4.2434,4.3219,4.1005,3.9712,3.9712,3.6519,3.4486,3.3695,0.0,0.0,0.0,0.0,0.0,0.0,0.0,0.0,0.0,0.0,0.0,0.0,0.0,0.0,0.0,0.0,0.0,0.0,0.0,0.0,0.0,0.0,5.5178,5.4919,5.7662,6.034,6.197,6.3868,6.5006,6.4857,6.5652,6.6295,6.656,6.7543,6.8262,6.8489,6.9204,6.973,6.9916,6.9728,6.969,6.9916,6.969,7.0105,7.1124,7.0771,7.0686,7.0787,7.0466,6.9851,6.8975,6.9027,6.9072,6.9116,6.9203,6.9091,6.879,6.8439,6.7803,6.7011,6.6065,6.5197,6.4482,6.467,6.4743,6.4743,6.4743,6.4176,6.3381,6.2478,6.1611,6.078,5.9911,5.9753,5.9824,5.9824,5.9824,5.9824,5.9824,5.9757,5.965,5.965,5.9427,5.9163,5.8823,5.7846,5.6941,5.6555,5.6144,5.5616,5.4824,0.0,0.0,5.3639,5.3574,5.3174,5.2282,5.1982,5.1045,4.9171,4.6922,4.5077,0.0,4.2081,4.1518,4.2318,4.118,4.0503,4.0503,3.7845,3.6362,0.0,0.0,0.0,0.0,0.0,0.0,0.0,0.0,0.0,0.0,0.0,0.0,0.0,0.0,0.0,0.0,0.0,0.0,0.0,0.0,0.0,0.0,5.5078,5.842,5.9647,6.108,6.2438,6.3643,6.5122,6.6333,6.7127,6.7505,6.7806,6.8146,6.8598,6.89,6.89,6.9272,6.9645,6.998,6.998,7.0131,7.0508,7.0508,7.0734,7.1143,7.0636,7.0353,7.0271,6.9835,6.9332,0.0,6.8929,6.8983,6.9027,6.9072,6.9072,0.0,0.0,0.0,0.0,0.0,6.5118,6.4405,6.4558,6.4596,6.4633,6.4633,6.4067,6.3311,6.2784,6.1804,6.0785,6.0295,5.9952,5.9723,5.9723,5.9723,5.9723,5.9791,5.9688,5.9581,5.9616,5.9282,5.8909,5.8796,0.0,0.0,5.7065,5.6045,5.522,5.5036,5.4322,5.3762,0.0,5.3662,5.3328,5.2398,5.2289,5.1582,4.9898,4.7804,0.0,0.0,0.0,4.1691,4.1492,4.1379,0.0,0.0,0.0,4.0378,0.0,0.0,0.0,0.0,3.8892,3.9464,0.0,0.0,0.0,0.0,0.0,0.0,0.0,0.0,0.0,0.0,0.0,0.0,0.0,0.0,0.0,0.0,5.805,6.0641,6.2861,6.3239,6.3201,6.2894,6.4746,6.6484,6.7353,6.8069,6.8706,6.9423,6.9416,6.9374,6.9374,0.0,0.0,0.0,0.0,7.0968,7.1636,7.1674,7.1711,7.1787,7.0808,7.0303,7.0191,6.9341,6.8921,6.8799,6.894,6.9116,6.9245,6.917,6.9057,6.8983,6.887,6.8316,6.7342,6.6008,6.5001,0.0,0.0,0.0,0.0,6.4596,6.3955,6.3276,6.3163,6.2069,6.0825,6.075,6.0146,5.9581,5.9581,5.9581,5.9616,5.9723,5.9618,5.9474,5.9545,5.8874,5.8464,5.9178,5.8652,5.7863,5.715,5.5723,5.4825,5.5317,5.475,0.0,5.4158,5.4158,5.3859,5.3038,0.0,0.0,5.0807,4.9127,4.8082,4.7895,4.5148,4.2847,4.1391,4.2216,4.2629,4.2554,4.4045,4.5162,4.5961,4.6713,4.7222,4.7322,4.2882,4.2898,0.0,0.0,0.0,0.0,0.0,0.0,0.0,0.0,0.0,0.0,0.0,0.0,0.0,0.0,0.0,5.6512,5.9853,6.2333,6.2146,6.3235,6.4629,6.5992,6.6519,6.7306,6.8854,6.9077,6.9223,6.9251,6.9332,6.9332,6.9246,6.9923,0.0,7.0346,7.1074,7.1486,7.1545,7.1545,7.1883,7.2473,0.0,0.0,7.0907,7.0709,7.0213,6.9521,6.9618,7.0086,7.0656,7.0116,6.9481,6.8855,6.8182,6.703,6.5806,6.5549,6.4957,6.4324,6.4366,6.4405,6.4444,6.4444,6.3917,6.305,6.2296,6.1432,0.0,5.9815,5.9551,5.951,5.951,5.951,5.9547,5.9547,5.9438,5.9327,5.9327,5.9214,5.9102,5.9253,5.8652,5.8051,5.7901,5.7075,5.6023,5.4787,5.3958,5.3399,5.3259,5.3259,5.3115,5.2824,5.2751,5.2639,5.2268,5.0778,4.9284,4.797,4.6694,4.5597,4.4711,4.6106,4.6623,4.6035,4.6373,4.6599,4.6778,4.6986,4.7429,4.8089,4.6577,4.672,0.0,0.0,0.0,0.0,0.0,0.0,0.0,0.0,0.0,0.0,0.0,5.2765,5.3414,0.0,5.8465,5.9626,6.1653,6.3083,6.3045,6.3759,6.4514,6.5085,6.6176,6.7379,6.8621,6.9524,6.9971,6.9842,6.9885,6.9885,6.9753,7.0166,7.0533,7.077,7.164,7.2052,7.2005,7.2454,7.2641,7.2603,7.2048,7.154,7.1082,7.0623,7.0339,7.0326,7.0376,7.0697,7.1044,7.031,6.9313,6.812,6.717,6.6486,6.5994,6.6078,6.5332,6.4284,6.4364,6.4364,6.4364,6.4364,6.4063,6.3575,6.2707,6.1881,6.1017,6.0191,5.9665,5.9401,5.9401,5.9401,5.9401,5.9474,5.9401,5.929,5.929,5.9253,5.9253,5.914,5.8541,5.7865,5.749,5.674,5.5915,5.509,5.4265,5.3706,5.3564,5.3529,5.3457,5.3348,5.3312,5.3089,5.2679,5.1154,4.97,4.8501,4.7714,4.6925,4.6195,4.7423,4.7716,4.6915,4.777,4.8025,4.7612,4.8055,4.8528,4.8934,4.9051,4.9136,0.0,0.0,0.0,0.0,0.0,0.0,0.0,0.0,5.1391,5.4686,5.6593,5.8166,5.9657,6.0376,6.1278,6.2911,6.3413,6.3796,6.4394,6.4356,6.4021,6.3424,6.5457,6.7225,6.8199,6.9477,7.0336,7.0391,7.0391,7.0421,7.0434,7.0667,7.0995,7.1488,7.2358,7.2769,7.272,7.3392,7.3392,7.2683,7.195,7.1442,7.1293,7.0524,7.0549,7.118,7.1329,7.1268,7.0995,7.0362,6.9059,6.7431,6.6705,6.6358,6.6331,6.6223,6.5366,6.4244,6.4244,6.4244,6.4206,6.4056,6.4019,6.3871,6.2895,6.2106,6.1393,6.0567,5.9853,5.929,5.929,5.929,5.929,5.9401,5.9365,5.929,5.9253,5.9215,5.9139,5.9024,5.8539,5.7791,5.6855,5.6144,5.5619,5.5319,5.472,5.42,5.4091,5.4055,5.3982,5.3944,5.3869,5.346,5.2679,5.1379,5.0263,4.9514,4.8844,4.817,4.7447,4.8146,4.8172,4.7304,4.8715,4.9121,4.8438,4.9302,4.9746,4.9838,5.0538,5.0476,3.8878,4.1646,4.5313,5.0042,5.0335,5.1784,0.0,0.0,5.9806,6.3003,6.4593,6.494,6.3579,6.4673,6.5582,6.509,6.5141,6.522,6.5212,6.457,6.4083,6.4012,6.567,6.7358,6.8713,6.902,6.9386,6.99,7.0069,7.0368,7.0981,7.1787,7.2272,7.2286,7.3168,7.3616,7.3516,7.354,7.354,7.3466,7.3252,7.2792,7.2086,7.1961,7.1961,7.2072,7.2815,7.2258,7.092,7.0809,6.9495,6.7505,6.7393,6.6553,6.526,6.4426,6.4059,6.392,6.3958,6.3958,6.3846,6.3259,6.3075,6.2776,6.1317,6.083,6.0567,5.9703,5.9365,5.929,5.929,5.929,5.929,5.9253,5.929,5.9253,5.9063,5.9139,5.9139,5.9024,5.891,5.8388,5.6855,5.6519,5.5996,5.4645,5.4275,5.4091,5.4019,5.3982,5.3944,5.3869,5.3794,5.346,5.2679,5.2419,5.1974,5.1156,5.1045,5.067,4.9921,4.9996,4.9724,4.9027,4.9214,4.9352,4.9377,5.0166,5.0541,5.0573,5.0748,5.0455,4.7519,4.9858,0.0,0.0,5.781,5.9669,6.3356,6.4338,6.5023,6.6889,6.7614,6.7546,6.6306,6.6313,6.635,0.0,6.5939,6.5651,6.4593,6.4182,6.3958,6.3953,6.4673,6.5764,6.7277,6.8331,6.9266,6.9948,7.048,7.1115,7.1789,7.2211,7.2795,7.3662,7.4085,7.4234,7.4183,7.4183,7.3959,7.3476,7.2941,7.2741,7.2852,7.1886,7.1701,7.2184,7.2466,7.1947,7.0883,7.03,6.9274,6.7959,6.6993,6.6258,6.5642,6.4911,6.4321,6.3915,6.3915,6.3958,6.3963,6.3626,6.3218,6.266,6.1459,6.0786,6.0224,5.9363,5.914,5.914,5.9215,5.9253,5.9253,5.9253,5.9253,5.9253,5.9024,5.9024,5.9061,5.8862,5.812,5.7264,5.663,5.6107,5.5398,5.4279,5.4092,5.4055,5.3982,5.3944,5.3869,5.3794,5.3385,5.3162,5.3311,5.2011,5.1454,5.2048,5.1193,5.0711,5.0932,5.0519,5.0179,4.9874,4.9487,4.9358,4.939,4.9796,5.0241,5.0691,5.1275,5.1374,5.2902,0.0,0.0,5.9887,6.3089,6.5431,6.5142,6.6677,6.8399,6.9313,6.8987,6.839,6.7933,6.7,6.6441,6.6751,6.659,6.6045,6.503,6.4507,6.4203,6.4115,6.3973,6.4538,6.618,6.768,6.895,6.9948,7.0768,7.1615,7.2583,7.262,7.309,7.4121,7.4158,7.4158,7.4158,7.4158,7.3861,7.3268,7.2711,7.2711,7.3231,7.2043,7.1858,7.2414,7.2362,7.188,7.1028,7.0212,6.9137,6.7974,6.6564,6.5794,6.5348,6.4897,6.4389,6.3786,6.3786,6.3873,6.3878,6.3611,6.3206,6.2694,6.179,6.1117,6.0481,5.9622,5.936,5.936,5.9176,5.9139,5.9139,5.9177,5.9178,5.914,5.8945,5.8982,5.8942,5.8739,5.7587,5.6699,5.6699,5.5843,5.495,5.4353,5.4056,5.3944,5.3944,5.3793,5.3717,5.3793,5.3273,5.305,5.346,5.1862,5.1268,5.2197,5.1342,5.0971,5.1379,5.1117,5.0854,5.0629,5.0169,4.9931,4.9931,5.0327,5.0691,5.1035,5.1957,5.2365,5.2791,0.0,6.0189,6.2023,6.4935,6.7542,6.8502,6.9313,7.0076,7.0858,6.9182,6.7719,6.8368,6.7226,6.6677,6.8182,6.729,6.6598,6.7207,6.594,6.4972,6.4972,6.4175,6.427,0.0,6.6965,6.8166,6.9583,7.0475,7.1575,7.3087,7.3162,7.3145,7.3074,7.3019,7.3019,7.3019,7.3019,7.3019,7.2982,7.2982,7.2982,7.3037,7.3108,7.3071,7.3,7.3108,7.2627,7.1615,7.0961,6.9272,6.7049,6.6378,6.5125,6.3676,6.3676,6.3639,6.3602,6.3602,6.3602,6.3535,6.2805,6.2593,6.2571,6.1834,6.1612,6.1424,6.06,6.0297,6.0068,5.9209,5.8984,5.8984,5.894,5.8942,5.8945,5.8739,5.8818,5.8859,5.8698,5.8029,5.7472,5.7472,5.6097,5.4981,5.4862,5.4195,5.3714,5.3714,5.3598,5.3558,5.3714,5.3676,5.3382,5.2717,5.2568,5.2234,5.1491,5.2122,5.2197,5.1416,5.2122,5.2196,5.145,5.1481,5.1513,5.1513,5.2578,5.2648,5.1799,5.2723,5.3198,5.9647,0.0,6.5012,6.6834,6.8779,7.0249,7.019,7.0684,7.0768,6.9632,6.7752,6.606,6.5255,6.4707,6.4707,6.5774,6.703,6.7672,6.7364,6.7327,6.6871,6.571,6.5245,0.0,0.0,0.0,0.0,6.9546,7.0374,7.1509,7.3124,7.3091,7.3295,7.3758,7.3795,7.3795,7.3795,7.3795,7.3536,7.2982,7.2982,7.2687,7.2169,7.2778,7.2741,7.2096,7.1525,7.1119,7.0803,6.9421,6.849,6.7827,6.7061,6.6097,6.5022,6.4466,6.3864,6.3373,6.3557,6.3647,6.3654,6.3312,6.2954,6.2556,6.2215,6.1358,6.0427,6.0166,5.964,5.9194,5.9014,5.8902,5.894,5.8899,5.894,5.8862,5.8739,5.8777,5.8739,5.8698,5.8066,5.7509,5.7509,5.654,5.5492,5.4769,5.4035,5.3558,5.3558,5.3558,5.3518,5.3558,5.3674,5.3602,5.3345,5.2902,5.2717,5.2977,5.2754,5.2717,5.2977,5.2754,5.2457,5.2233,5.1784,5.1556,5.1588,5.1956,5.2323,5.2723,5.2953,5.3399,6.4261,6.6162,6.7368,6.9508,7.0887,7.1558,7.1056,7.0902,7.0295,6.8049,6.5912,6.3965,6.2382,6.1826,6.2382,6.4763,6.6208,6.7469,6.8742,6.884,6.8457,6.758,6.6951,0.0,0.0,0.0,0.0,6.9484,7.0323,7.1368,7.2926,7.2927,7.3093,7.3553,7.3553,7.37,7.3995,7.3737,7.3332,7.2816,7.2816,7.2521,7.2005,7.2614,7.2392,7.1526,7.125,7.0845,7.0273,6.9188,6.852,6.8084,6.737,6.6556,6.5705,6.4901,6.4177,6.3601,6.3539,6.3602,6.3647,6.3602,6.317,6.2588,6.2457,6.1447,6.0295,5.9998,5.951,5.9064,5.8892,5.8818,5.8818,5.8777,5.8777,5.8735,5.8651,5.8614,5.8614,5.8614,5.8025,5.7583,5.7839,5.6825,5.5549,5.4317,5.3728,5.3396,5.3396,5.3396,5.3437,5.344,5.3518,5.3558,5.3598,5.2974,5.2753,5.3272,5.2865,5.2828,5.3348,5.2865,5.2754,5.3014,5.227,5.2082,5.2378,5.2522,5.2704,5.3035,5.3369,5.3628,6.6544,6.7183,6.7657,7.0206,7.1263,7.1521,7.0981,6.999,6.8605,6.6155,6.3622,6.127,0.0,0.0,5.9878,6.4678,6.5027,6.6347,7.1183,7.0523,6.9843,0.0,0.0,0.0,0.0,0.0,0.0,6.9628,0.0,7.1299,7.265,7.2704,7.2684,7.2569,7.2606,7.2973,7.3744,7.2973,7.2532,7.2496,7.2496,7.2496,7.2496,7.261,7.2206,7.1431,7.2206,7.1617,7.0073,7.0165,6.9299,6.7826,6.7308,6.6507,6.5521,6.489,6.4509,6.4229,6.3632,6.3382,6.3345,6.3482,6.3052,6.247,6.2383,6.1744,6.0927,6.011,5.9801,5.9573,5.8879,5.8698,5.8656,5.8529,5.8529,5.8486,5.8393,5.8443,5.8486,5.8492,5.7983,5.7728,5.827,5.6953,5.5233,5.3576,5.323,5.3225,5.3225,5.3225,5.323,5.3277,5.3318,5.3359,5.3481,5.2858,5.2453,5.2453,5.2567,5.2679,5.2679,5.2679,5.3014,5.3794,5.3089,5.3125,5.3794,5.4128,5.3753,5.2827,5.3896,5.389,6.8999,7.0752,7.2263,7.3093,7.2337,7.1085,6.9969,6.8018,6.5359,6.1818,5.8555,5.5527,0.0,0.0,0.0,5.9139,6.4229,0.0,7.141,7.2428,0.0,0.0,0.0,7.2042,7.1047,7.0973,0.0,0.0,7.1544,7.1711,7.265,7.3083,7.3296,7.3237,7.3702,7.4007,7.4226,7.3423,7.2788,7.2358,7.2358,7.2358,7.2358,7.2496,7.2328,7.1992,7.1024,7.0364,6.9831,6.8678,6.8108,6.7863,6.7782,6.6824,6.5483,6.5349,6.4401,6.3198,6.3124,6.2872,6.2493,6.2538,6.2064,6.1396,6.1352,6.0752,5.996,5.9738,5.9264,5.8789,5.8609,5.8572,5.8529,5.848,5.8356,5.8268,5.8223,5.8268,5.8312,5.8437,5.8295,5.7808,5.6688,5.6086,5.5233,5.3487,5.3188,5.3225,5.3225,5.3225,5.3225,5.323,5.3277,5.3318,5.3359,5.3256,5.3265,5.338,5.338,5.3458,5.3497,5.3497,5.3608,5.3794,5.3646,5.3684,5.3944,5.3944,5.3907,5.3901,5.4088,5.4121,7.206,7.3623,7.4595,7.3681,7.2353,7.0459,6.72,6.4756,6.1801,5.6742,5.3902,0.0,4.82,0.0,0.0,0.0,0.0,0.0,7.2171,7.3406,7.4049,0.0,7.4264,0.0,7.3088,7.3014,7.3051,0.0,7.2115,7.1821,7.2573,7.282,7.2958,7.2958,7.3276,7.3496,7.3496,7.3447,7.2971,7.2144,7.2321,7.2321,7.2204,7.2321,7.1955,7.1048,0.0,6.966,6.8637,6.8238,6.7909,6.7704,6.7442,6.6964,6.6323,6.5359,6.4485,6.3796,6.3162,6.2535,6.2096,6.2512,6.2068,6.1365,6.095,6.024,5.9411,5.9079,5.8681,5.84,5.8443,5.8443,5.8554,5.8836,5.8866,5.8932,5.9173,5.8997,5.871,5.8467,5.8349,5.7788,5.6086,5.5742,5.5147,5.3445,5.3225,5.3225,5.3225,5.3225,5.3225,5.3225,5.323,5.3272,5.3272,5.3359,5.344,5.3518,5.3598,5.3714,5.3754,5.3459,5.346,5.3794,5.346,5.3497,5.3907,5.3907,5.3944,5.4092,5.4164,5.4235,7.5132,7.5772,7.5579,7.3377,7.1835,6.9412,6.3906,6.0992,5.77,5.1514,0.0,4.7647,4.469,4.8162,5.2647,5.6135,0.0,6.71,7.2888,7.3692,7.4294,7.5909,7.5579,7.5175,7.5065,7.5065,7.4735,7.3927,7.2684,7.2095,7.2459,7.2431,7.2423,7.2533,7.2533,7.2496,7.2446,7.3164,7.3031,7.1988,7.2263,7.2263,7.1988,7.2204,7.1377,6.9945,0.0,0.0,6.7575,6.8199,6.8128,6.7451,6.6912,6.6948,6.7153,6.5051,6.4559,6.4751,6.3209,6.223,6.1898,6.262,6.2298,6.1486,6.0545,5.9762,5.9099,5.8399,5.8215,5.826,5.8349,5.8467,5.8688,5.9279,5.953,5.978,6.0167,5.9817,5.9161,5.8497,5.826,5.7663,5.6043,5.5698,5.506,5.3445,5.3225,5.3225,5.3225,5.3225,5.3225,5.3225,5.3225,5.3225,5.3225,5.3235,5.3277,5.3318,5.3518,5.3674,5.3714,5.3087,5.3088,5.3794,5.3125,5.3088,5.3794,5.3907,5.3944,5.3832,5.4128,5.42,7.6497,7.6497,7.5836,7.4771,7.1394,6.7173,6.2805,5.7528,0.0,0.0,4.456,4.2026,4.0147,4.4783,4.9951,5.3382,5.9637,6.615,7.1908,0.0,7.4294,0.0,0.0,0.0,0.0,0.0,0.0,0.0,0.0,0.0,7.2569,7.2825,7.33,7.3869,7.3842,7.3577,7.307,7.2933,7.2543,7.1988,7.1964,7.1964,7.1988,7.2048,7.1818,7.1369,0.0,0.0,6.8968,6.7846,6.7468,6.7451,6.6806,6.6182,6.5595,6.4545,6.3723,6.3099,6.2144,6.1704,6.1569,6.1198,6.0508,5.9697,5.8841,5.8465,5.8226,5.8079,5.8088,5.8215,5.826,5.8739,5.9108,5.8592,5.9384,5.9916,5.8704,5.8336,5.8272,5.8079,5.8042,5.7528,5.5912,5.5655,5.506,5.3445,5.3225,5.3225,5.3225,5.3225,5.3225,5.3225,5.3225,5.3225,5.3225,5.3188,5.323,5.3318,5.344,5.3598,5.3714,5.3606,5.3683,5.3794,5.3683,5.3683,5.3794,5.3794,5.3907,5.3982,5.4019,5.4128,7.7121,7.7047,7.624,7.4184,7.033,6.5448,5.9245,0.0,0.0,4.324,4.063,3.8756,3.7044,4.1669,4.6543,4.8964,5.4759,6.1398,6.8385,7.0073,0.0,0.0,0.0,0.0,0.0,0.0,0.0,0.0,0.0,0.0,7.249,7.2449,7.2605,7.2943,7.2943,7.2824,7.2485,7.2387,7.2144,7.1744,7.1805,7.1842,7.1744,7.1842,7.1623,7.1126,0.0,0.0,6.8691,6.7721,6.7359,6.7213,6.626,6.5888,6.5705,6.4053,6.3172,6.2695,6.1887,6.1337,6.0823,6.01,5.989,5.9779,5.897,5.8704,5.8547,5.8107,5.8373,5.864,5.8198,5.8713,5.9301,5.943,6.0304,6.0698,5.9081,5.8667,5.851,5.807,5.7997,5.7629,5.6418,5.5868,5.5207,5.3995,5.3482,5.3371,5.3775,5.3482,5.3225,5.3225,5.3225,5.3225,5.3225,5.3592,5.3628,5.3272,5.3723,5.3883,5.3635,5.3676,5.3754,5.3794,5.3794,5.3794,5.3794,5.424,5.4241,5.3907,5.4391,5.4429,7.7451,7.7341,7.635,7.3487,6.9339,6.3943,5.6161,5.0732,0.0,3.9643,3.7573,3.647,3.5345,3.8993,4.2988,0.0,5.0428,5.6712,6.4824,6.7247,7.0183,0.0,7.6827,0.0,0.0,0.0,0.0,0.0,0.0,0.0,7.2277,7.1964,7.1842,7.1816,7.1816,7.1816,7.1816,7.1903,7.1732,7.1303,7.1732,7.1671,7.134,7.1583,7.1391,7.0738,0.0,0.0,0.0,6.7761,6.7414,6.7028,6.582,6.5668,6.5873,6.3649,6.2805,6.2658,6.1667,6.0933,6.0236,5.9281,5.9501,6.0015,5.9208,5.8951,5.8841,5.8447,5.8584,5.8841,5.841,5.8731,5.9428,6.0341,6.0783,6.0672,5.9568,5.9108,5.8767,5.8107,5.7997,5.774,5.6932,5.6271,5.5537,5.4546,5.3995,5.3885,5.4326,5.3849,5.3518,5.3702,5.3408,5.3298,5.3445,5.4032,5.4216,5.3739,5.4191,5.428,5.3773,5.3709,5.3716,5.3794,5.3794,5.3794,5.3794,5.4426,5.4426,5.3831,5.4539,5.4578,7.7855,7.7378,7.5799,7.4037,6.8898,6.2585,5.5904,0.0,4.276,3.8499,3.5752,3.4513,3.5695,3.6973,3.9849,4.5843,4.9761,5.4935,6.3172,6.754,7.1431,7.5616,0.0,0.0,0.0,0.0,0.0,0.0,0.0,0.0,0.0,7.1988,7.1964,7.1816,7.1816,7.1816,7.1816,7.1656,7.1293,7.0726,7.1293,7.1257,7.0726,7.1267,7.1458,7.1313,0.0,0.0,0.0,6.8016,6.7414,6.7028,6.582,6.5197,6.4961,6.3379,6.2805,6.2585,6.1043,6.0456,6.0162,5.8621,5.8657,5.9171,5.8364,5.8107,5.83,5.9053,5.8713,5.83,5.9053,5.9265,5.9428,6.0199,5.9355,5.8474,5.9098,5.8621,5.8107,5.7997,5.7997,5.774,5.6932,5.6748,5.6161,5.462,5.495,5.5133,5.4473,5.4326,5.4583,5.528,5.4069,5.3518,5.4216,5.4363,5.4693,5.5317,5.4859,5.4533,5.4612,5.4001,5.3716,5.3794,5.3794,5.3794,5.3794,5.3868,5.3868,5.3794,5.3868,5.3982,7.5469,7.5542,7.4258,7.2679,6.776,6.163,5.517,4.8822,4.3015,3.8462,3.5928,3.4871,3.5805,3.5974,3.7503,4.2411,4.4016,4.7644,5.6345,5.9758,6.3943,7.0954,7.282,0.0,0.0,0.0,0.0,0.0,0.0,0.0,0.0,7.1744,7.1682,7.1656,7.1656,7.1656,7.1656,7.1494,7.1195,7.0495,7.076,7.047,6.9769,7.0035,7.0144,7.0193,0.0,0.0,0.0,6.789,6.747,6.7305,6.637,6.5653,6.5014,6.4016,6.2952,6.1924,6.0786,6.0089,5.9501,5.8364,5.8593,5.9154,5.83,5.7997,5.807,5.8447,5.8676,5.8833,5.8731,5.898,5.9265,5.8988,5.8841,5.8694,5.851,5.8217,5.7997,5.7997,5.7997,5.7886,5.7593,5.7116,5.6602,5.5941,5.5721,5.5464,5.5133,5.4693,5.4509,5.484,5.3885,5.3739,5.4987,5.5097,5.5287,5.5705,5.5361,5.5,5.4732,5.3964,5.3602,5.3757,5.3794,5.4054,5.4498,5.4537,5.4537,5.4537,5.4614,5.4429,7.2312,7.2899,7.2018,7.0937,6.6329,6.0493,5.4295,4.8529,4.3125,3.8462,3.6001,3.4981,3.5871,3.5454,3.6106,3.9528,4.076,4.3976,5.1715,5.5427,6.0126,6.765,0.0,0.0,0.0,0.0,0.0,0.0,0.0,0.0,0.0,7.1593,7.1494,7.1494,7.1494,7.1494,7.1494,7.1593,7.1086,7.0046,7.0325,6.989,6.8875,6.9129,6.9298,0.0,0.0,0.0,0.0,6.7743,6.747,6.7396,6.6753,6.5946,6.5139,6.4383,6.3025,6.1484,6.0676,6.0052,5.9428,5.8621,5.9007,5.9651,5.897,5.8593,5.841,5.841,5.8906,5.921,5.8399,5.862,5.8833,5.8235,5.8437,5.8694,5.8107,5.7997,5.7997,5.7997,5.7997,5.7997,5.7997,5.7519,5.7042,5.6748,5.6455,5.6088,5.5427,5.4876,5.4583,5.473,5.3812,5.3775,5.5133,5.5508,5.5809,5.6073,5.6103,5.5845,5.5391,5.463,5.4195,5.4088,5.435,5.4686,5.4981,5.528,5.5243,5.502,5.5136,5.4802,6.8825,6.9559,6.899,6.9098,6.4742,5.8998,5.3465,4.7721,4.2359,3.8352,3.5532,3.4293,3.582,3.5454,3.5681,3.8031,4.186,4.6249,5.1156,5.7437,6.3062,0.0,0.0,0.0,0.0,0.0,0.0,0.0,0.0,0.0,0.0,7.1593,7.1494,7.1494,7.1494,7.1494,7.1494,7.1718,7.0956,6.9213,7.0157,6.9781,6.8255,6.9054,0.0,0.0,0.0,0.0,0.0,6.7743,6.747,6.7396,6.6753,6.5856,6.4908,6.4296,6.3025,6.1484,6.0676,6.0382,6.0272,5.9465,5.9816,6.0572,6.0572,6.002,5.9394,5.9394,5.9394,5.921,5.8399,5.8088,5.8079,5.8133,5.8088,5.7997,5.7997,5.7997,5.7997,5.7997,5.7997,5.7997,5.7997,5.7997,5.7629,5.6565,5.7299,5.7189,5.506,5.4803,5.4987,5.55,5.4179,5.3555,5.4326,5.5257,5.6066,5.6748,5.7,5.7125,5.6985,5.6404,5.5714,5.4929,5.5795,5.5837,5.502,5.5874,5.5837,5.502,5.5136,5.4876,6.0162,6.163,6.1887,6.0247,5.8079,5.495,4.9887,4.603,4.2506,3.9019,3.634,3.51,3.6625,3.541,3.6025,4.1711,4.3318,4.614,5.2669,0.0,0.0,6.6329,0.0,0.0,0.0,0.0,0.0,0.0,0.0,0.0,0.0,0.0,7.047,7.1682,7.1593,7.1593,7.1718,7.1816,7.1271,7.0157,6.9927,6.9176,6.8041,6.7833,0.0,0.0,0.0,0.0,0.0,6.7524,6.714,6.6591,6.6533,6.5668,6.4369,6.4163,6.3392,6.2328,6.1484,6.1227,6.108,6.0272,6.0662,6.1198,6.0,5.9532,5.9283,5.8731,5.8584,5.851,5.8252,5.8133,5.8133,5.8088,5.8042,5.7997,5.7997,5.7556,5.7336,5.7886,5.7556,5.7336,5.7923,5.7997,5.7886,5.7519,5.7776,5.7483,5.6088,5.5574,5.4987,5.4069,5.3518,5.3739,5.5097,5.5595,5.6153,5.6919,5.7014,5.7095,5.7125,5.6362,5.5632,5.4896,5.5238,5.5577,5.5874,5.5577,5.5319,5.5136,5.469,5.4688,5.3739,5.55,5.5831,5.5,5.3414,5.1059,4.7169,4.412,4.1479,3.9135,3.6428,3.4999,3.6552,3.5637,3.6216,4.1052,4.2768,4.57,0.0,0.0,0.0,0.0,0.0,0.0,0.0,0.0,0.0,0.0,0.0,0.0,0.0,0.0,6.9709,7.0871,7.0977,7.1158,7.1282,7.1696,7.1296,7.0084,6.9695,6.9041,6.8123,0.0,0.0,0.0,0.0,0.0,0.0,6.6884,6.6518,6.584,6.5983,6.5264,6.409,6.409,6.3305,6.2192,6.1777,6.1545,6.1471,6.1006,6.1287,6.1566,6.0147,5.9338,5.8796,5.8281,5.8133,5.8133,5.8215,5.8133,5.8088,5.8088,5.8042,5.7923,5.7675,5.7198,5.6969,5.7491,5.7198,5.7079,5.785,5.7997,5.7997,5.7997,5.7997,5.7299,5.5427,5.4913,5.4326,5.3335,5.3225,5.3739,5.511,5.53,5.5675,5.6441,5.6882,5.7258,5.753,5.7186,5.6561,5.5825,5.5869,5.606,5.632,5.5429,5.5097,5.5249,5.4428,5.4424,0.0,5.0618,5.0585,5.2066,5.0073,4.7205,4.4959,4.2018,0.0,3.8632,3.593,3.4357,3.6186,3.6309,3.6602,3.8052,4.1382,0.0,0.0,0.0,0.0,0.0,0.0,0.0,0.0,0.0,0.0,0.0,0.0,0.0,0.0,0.0,6.9153,6.9309,6.9951,7.0325,7.0434,7.1429,7.1102,6.9419,6.9536,6.9216,6.8429,0.0,0.0,0.0,0.0,0.0,0.0,6.6026,6.5659,6.5228,6.5228,6.4714,6.4016,6.4016,6.2925,6.1506,6.1618,6.1569,6.1506,6.1618,6.1691,6.1566,6.083,5.9412,5.807,5.7997,5.7997,5.8042,5.8133,5.8088,5.8042,5.8133,5.8088,5.7859,5.7214,5.6948,5.6867,5.703,5.6948,5.7042,5.785,5.7997,5.7997,5.7997,5.7997,5.6932,5.3922,5.3335,5.3261,5.3371,5.3298,5.3597,5.4607,5.468,5.4969,5.5655,5.6768,5.7666,5.8223,5.8492,5.8169,5.7233,5.732,5.6952,5.6209,5.5391,5.5099,5.5286,5.4539,5.431,4.1295,0.0,4.4085,4.3275,4.2944,4.2323,0.0,3.9087,3.7961,3.765,0.0,3.5952,4.0024,3.8774,3.9465,4.647,0.0,0.0,0.0,0.0,0.0,0.0,0.0,0.0,0.0,0.0,0.0,0.0,0.0,0.0,0.0,0.0,6.7679,6.8473,6.8632,6.9345,7.0701,7.1099,7.1436,7.1596,7.0412,6.9602,6.9113,0.0,0.0,0.0,0.0,0.0,6.6026,6.5603,6.4924,6.4192,6.4296,6.387,6.3099,6.3099,6.2828,6.2498,6.2548,6.2462,6.2498,6.2511,6.1704,6.0687,6.0504,5.9816,5.8943,5.8226,5.7997,5.7997,5.8042,5.8042,5.7997,5.8042,5.8042,5.796,5.7822,5.7226,5.7051,5.7765,5.7169,5.6867,5.7958,5.8088,5.7997,5.7997,5.7997,5.774,5.6969,5.473,5.3665,5.4913,5.3922,5.3775,5.5251,5.5496,5.595,5.6756,5.7703,5.8264,5.8406,5.7937,5.7274,5.654,5.5912,5.5542,5.5471,5.5247,5.5212,5.5286,5.521,5.5207,3.8095,4.0451,4.2727,4.2213,4.2139,4.1956,4.1111,3.8836,3.7008,3.7217,0.0,3.6069,3.9776,4.0024,4.1739,4.8086,4.9994,0.0,0.0,0.0,0.0,0.0,0.0,0.0,0.0,0.0,0.0,0.0,0.0,0.0,0.0,0.0,6.7143,6.7752,6.7846,6.8487,6.969,7.0266,7.0522,7.05,6.9681,6.9279,6.8997,0.0,0.0,0.0,0.0,0.0,6.5128,6.4741,6.4134,6.3364,6.3452,6.3209,6.2805,6.2805,6.2755,6.2668,6.2352,6.2034,6.1777,6.2144,6.1153,5.9869,5.9869,5.9328,5.864,5.8107,5.7997,5.7997,5.7997,5.7997,5.7997,5.7997,5.7997,5.7886,5.7647,5.7161,5.694,5.7368,5.6875,5.6757,5.7913,5.8042,5.7997,5.7997,5.7997,5.7997,5.7997,5.5611,5.4363,5.5464,5.4179,5.3849,5.5551,5.5465,5.5734,5.6498,5.7444,5.7788,5.7418,5.7386,5.6833,5.5726,5.5282,5.495,5.4652,5.5025,5.5287,5.5397,5.5469,5.573,3.7581,4.0891,4.4048,4.3975,4.3718,4.3387,4.302,3.9711,3.6861,3.7478,0.0,3.6728,3.9561,4.1784,0.0,0.0,0.0,0.0,0.0,0.0,0.0,0.0,0.0,0.0,0.0,0.0,0.0,0.0,0.0,0.0,0.0,0.0,0.0,6.7266,6.7414,6.7743,6.8288,6.9299,6.9409,6.8653,6.8694,6.8677,6.8604,6.7689,0.0,0.0,0.0,0.0,6.4002,6.3753,6.3328,6.2805,6.2805,6.2732,6.2622,6.2622,6.2448,6.2215,6.1728,6.108,6.0529,6.1337,6.0529,5.9208,5.9208,5.8657,5.7997,5.7997,5.7997,5.7997,5.7997,5.7997,5.7997,5.7997,5.7997,5.7859,5.7287,5.7051,5.6977,5.6853,5.6728,5.6977,5.7941,5.8133,5.8088,5.7997,5.7997,5.7997,5.7997,5.6198,5.5133,5.5721,5.4216,5.3891,5.5638,5.5096,5.4954,5.5564,5.6594,5.6792,5.5936,5.6726,5.6395,5.4871,5.4911,5.469,5.4019,5.4876,5.5397,5.5542,5.5767,5.6253,3.8946,4.2983,4.5626,4.1625,4.2066,4.2947,4.0928,3.9412,3.8603,3.926,3.9832,0.0,0.0,4.7532,0.0,0.0,0.0,0.0,0.0,0.0,0.0,0.0,0.0,0.0,0.0,0.0,0.0,0.0,0.0,0.0,0.0,0.0,0.0,6.747,6.747,6.7598,6.7817,6.8623,6.932,6.9834,6.9174,6.8788,6.864,6.7104,6.6281,0.0,0.0,6.4067,6.3826,6.3181,6.2865,6.2805,6.2805,6.2401,6.1777,6.1777,6.1337,6.0811,6.141,6.108,6.0529,6.1337,6.0529,5.9208,5.9208,5.8657,5.7997,5.7997,5.7997,5.7997,5.7997,5.7997,5.7997,5.7997,5.7997,5.796,5.7895,5.7813,5.7859,5.7958,5.7867,5.7949,5.8492,5.8572,5.8443,5.8042,5.7997,5.7997,5.7997,5.6528,5.5757,5.6528,5.4583,5.3849,5.5508,5.5054,5.4773,5.488,5.5862,5.6057,5.5204,5.5317,5.4946,5.4017,5.398,5.4056,5.4091,5.4913,5.5397,5.5613,5.7039,5.7377,3.6736,4.0818,4.4195,4.2837,4.5698,4.8678,4.7978,4.5512,4.3487,4.3718,0.0,0.0,0.0,0.0,0.0,0.0,0.0,0.0,0.0,0.0,0.0,0.0,0.0,0.0,0.0,0.0,0.0,0.0,0.0,0.0,0.0,0.0,0.0,0.0,6.747,6.7341,6.7063,6.743,6.8017,6.8788,6.8421,6.8183,6.8092,6.6919,6.606,6.5567,0.0,6.3694,6.3254,6.2902,6.2805,6.2805,6.2805,6.2585,6.2218,6.1741,6.0823,5.9942,6.1153,6.0493,5.9318,6.0566,5.9869,5.8547,5.8547,5.829,5.7997,5.7997,5.7997,5.7997,5.7997,5.7997,5.7997,5.7997,5.7997,5.7997,5.7997,5.7997,5.8042,5.8179,5.8088,5.8088,5.8268,5.8529,5.8572,5.8268,5.8179,5.8051,5.7997,5.7014,5.647,5.6785,5.5471,5.4706,5.4963,5.4838,5.4962,5.5529,5.5164,5.4983,5.502,5.4574,5.4203,5.3831,5.4278,5.4615,5.4763,5.6071,5.678,5.7,5.7751,5.82,3.5303,3.8762,4.232,4.4672,4.864,5.2438,5.4207,5.1111,4.82,0.0,0.0,0.0,0.0,0.0,0.0,0.0,0.0,0.0,0.0,0.0,0.0,0.0,0.0,0.0,0.0,0.0,0.0,0.0,0.0,0.0,0.0,0.0,0.0,0.0,6.7524,6.7212,6.6512,6.6512,6.6806,6.7393,6.7393,6.7393,6.7393,6.6769,6.5962,6.4971,6.4347,6.3613,6.2805,6.2805,6.2805,6.2805,6.2805,6.2585,6.2144,6.1337,6.0126,5.9171,6.075,5.9869,5.8253,5.9869,5.9318,5.7997,5.7997,5.7997,5.7997,5.7997,5.7997,5.7997,5.7997,5.7997,5.7997,5.7997,5.7997,5.796,5.7776,5.7703,5.7749,5.7884,5.8031,5.8088,5.8042,5.8356,5.8572,5.8437,5.8312,5.8142,5.8042,5.739,5.6912,5.6867,5.622,5.557,5.4949,5.481,5.5192,5.6246,5.4909,5.4463,5.528,5.4537,5.4091,5.4091,5.4838,5.5212,5.5286,5.708,5.7978,5.8126,5.8314,5.88,3.7397,3.9301,4.1245,4.5773,4.7353,4.8936,5.3543,5.2035,0.0,5.5517,0.0,0.0,0.0,0.0,0.0,0.0,0.0,0.0,0.0,0.0,0.0,0.0,0.0,0.0,0.0,0.0,0.0,0.0,0.0,0.0,0.0,0.0,0.0,0.0,0.0,6.7283,6.6512,6.6512,6.6512,6.6586,6.6586,6.6586,6.6586,6.6512,6.5632,6.4163,6.4127,6.3613,6.2805,6.2805,6.2805,6.2805,6.2805,6.1887,6.0493,5.9685,5.8841,5.8327,5.9942,5.9391,5.8253,5.9869,5.9318,5.7997,5.7997,5.7997,5.7997,5.7997,5.7997,5.7997,5.7997,5.7997,5.7997,5.7997,5.7997,5.7813,5.7042,5.6895,5.694,5.703,5.7832,5.84,5.8231,5.8312,5.8437,5.848,5.8356,5.8186,5.8179,5.739,5.6867,5.6956,5.6264,5.5834,5.5969,5.5306,5.531,5.6246,5.5429,5.5317,5.6172,5.5391,5.4909,5.4909,5.5099,5.5212,5.5286,5.7117,5.8053,5.8126,5.8988,5.9436,3.4917,3.8221,4.1714,4.5513,4.8495,5.1673,0.0,5.6393,5.7026,6.0868,6.0471,0.0,0.0,0.0,0.0,0.0,0.0,0.0,0.0,0.0,0.0,0.0,0.0,0.0,0.0,0.0,0.0,0.0,0.0,0.0,0.0,0.0,0.0,0.0,0.0,6.6443,6.5778,6.5264,6.5007,6.5007,6.5521,6.6035,6.6476,6.5999,6.5154,6.409,6.409,6.3613,6.2805,6.2805,6.2805,6.2768,6.2254,6.1374,6.0309,5.9501,5.8694,5.8143,5.9281,5.8951,5.818,5.9281,5.8914,5.7997,5.7997,5.7997,5.7997,5.7997,5.7997,5.7997,5.7997,5.7997,5.7997,5.7997,5.7997,5.7923,5.7593,5.7556,5.7602,5.7737,5.7994,5.8215,5.8342,5.8305,5.8312,5.8443,5.8356,5.8268,5.8179,5.7965,5.7553,5.6948,5.6264,5.614,5.6788,5.6162,5.6132,5.6989,5.6283,5.5726,5.5503,5.5283,5.4874,5.4391,5.5473,5.6108,5.6145,5.7904,5.8803,5.884,5.9214,5.9401,3.4234,3.7948,4.2179,4.5619,4.9344,5.3382,5.8153,5.9435,6.0794,6.5127,6.4119,0.0,0.0,0.0,0.0,0.0,0.0,0.0,0.0,0.0,0.0,0.0,0.0,0.0,0.0,0.0,0.0,0.0,0.0,0.0,0.0,0.0,0.0,0.0,0.0,0.0,6.4934,6.4383,6.4141,6.4104,6.4383,6.4934,6.5742,6.5705,6.5118,6.409,6.4347,6.4016,6.3209,6.2965,6.2708,6.2414,6.1814,6.0933,5.9942,5.9428,5.8694,5.8107,5.8914,5.8694,5.8143,5.8951,5.8657,5.7997,5.7997,5.7997,5.7997,5.7997,5.7997,5.7997,5.7997,5.7997,5.7997,5.7997,5.7997,5.7923,5.7666,5.7629,5.7675,5.7765,5.7765,5.7876,5.8305,5.8349,5.8312,5.8406,5.84,5.8393,5.8312,5.8349,5.8128,5.7398,5.6762,5.6747,5.7603,5.6833,5.6655,5.7472,5.6729,5.6134,5.584,5.5657,5.5323,5.4802,5.5996,5.6631,5.6705,5.8166,5.8728,5.8539,5.9102,5.9138,3.6334,3.8855,4.2489,4.6319,4.9417,5.3162,5.9536,6.0256,6.1459,6.8111,0.0,0.0,0.0,0.0,0.0,0.0,0.0,0.0,0.0,0.0,0.0,0.0,0.0,0.0,0.0,0.0,0.0,0.0,0.0,0.0,0.0,0.0,0.0,0.0,0.0,0.0,6.409,6.4053,6.4104,6.418,6.3222,6.3246,6.4127,6.5742,6.5595,6.4127,6.4934,6.4824,6.4016,6.3284,6.2523,6.1787,6.1643,6.0603,5.9208,5.9208,5.8694,5.8107,5.8914,5.8694,5.8143,5.8951,5.8657,5.7997,5.7997,5.7997,5.7997,5.7997,5.7997,5.7997,5.7997,5.7997,5.7997,5.7997,5.7997,5.7776,5.6969,5.6822,5.6867,5.6956,5.7125,5.747,5.8245,5.8443,5.8529,5.8492,5.8443,5.8437,5.8486,5.8443,5.8393,5.8393,5.7867,5.7802,5.8455,5.713,5.6655,5.7472,5.6729,5.6657,5.7558,5.6813,5.6442,5.6556,5.6668,5.6705,5.6705,5.7639,5.7713,5.6962,5.8685,5.8608,3.5658,3.9822,0.0,4.764,5.2901,0.0,0.0,6.2077,0.0,0.0,6.739,0.0,0.0,0.0,0.0,0.0,0.0,0.0,0.0,0.0,0.0,0.0,0.0,0.0,0.0,0.0,0.0,0.0,0.0,0.0,0.0,0.0,0.0,0.0,0.0,0.0,6.3309,6.2769,6.2523,6.262,6.2398,6.2892,6.4204,6.4618,6.4237,6.3246,6.4154,6.4094,6.3284,6.2583,6.2187,6.1808,6.0665,5.9927,5.9366,5.8722,5.8354,5.817,5.8336,5.8217,5.8033,5.829,5.818,5.7997,5.7997,5.7997,5.7997,5.7997,5.7997,5.7997,5.7997,5.7997,5.7997,5.7997,5.7997,5.7923,5.7703,5.7629,5.7666,5.7712,5.7757,5.7921,5.8326,5.8356,5.8356,5.8614,5.8486,5.8393,5.8437,5.8437,5.8393,5.8393,5.8264,5.8312,5.8492,5.765,5.7249,5.7472,5.6172,5.5503,5.5765,5.5696,5.5361,5.4838,5.5544,5.5915,5.5915,5.7377,5.7976,5.7788,5.8876,5.9102,3.796,4.2631,0.0,5.1343,5.5795,6.0178,6.302,0.0,0.0,0.0,0.0,0.0,0.0,0.0,0.0,0.0,0.0,0.0,0.0,0.0,0.0,0.0,0.0,0.0,0.0,0.0,0.0,0.0,0.0,0.0,0.0,0.0,0.0,0.0,0.0,0.0,6.256,6.2045,6.1919,6.2059,6.2013,6.263,6.3885,6.4107,6.391,6.3432,6.3714,6.3578,6.3073,6.2013,6.1532,6.1468,6.0092,5.939,5.9058,5.8444,5.8179,5.8179,5.8042,5.7997,5.7997,5.7997,5.7997,5.7997,5.7997,5.7997,5.7997,5.7997,5.7997,5.7997,5.7997,5.7997,5.7997,5.7997,5.7997,5.7997,5.7997,5.8042,5.8042,5.7997,5.8088,5.8179,5.8231,5.8268,5.8349,5.8566,5.8566,5.8523,5.8523,5.8523,5.848,5.8393,5.8147,5.8011,5.7925,5.7052,5.6503,5.6506,5.528,5.4537,5.4537,5.4988,5.5025,5.4576,5.5207,5.554,5.554,5.6589,5.7112,5.715,5.8314,5.8688,4.1519,4.6038,0.0,5.5977,5.8243,0.0,0.0,0.0,0.0,0.0,0.0,0.0,0.0,0.0,0.0,0.0,0.0,0.0,0.0,0.0,0.0,0.0,0.0,0.0,0.0,0.0,0.0,0.0,0.0,0.0,0.0,0.0,0.0,0.0,0.0,0.0,6.1761,6.1761,6.1855,0.0,6.1994,6.2475,6.3419,6.4018,6.4302,6.4266,6.3527,6.3289,6.3271,6.1542,6.0921,6.09,5.9923,5.9065,5.8393,5.8305,5.8215,5.8215,5.8042,5.7997,5.7997,5.7997,5.7997,5.7997,5.7997,5.7997,5.7997,5.7997,5.7997,5.7997,5.7997,5.7997,5.7997,5.7997,5.7997,5.7997,5.7997,5.8088,5.8133,5.8042,5.8215,5.8305,5.8088,5.826,5.8393,5.8393,5.8609,5.8698,5.8656,5.8698,5.8651,5.8437,5.782,5.7344,5.7137,5.5858,5.5013,5.502,5.424,5.3794,5.3794,5.4652,5.51,5.5212,5.5321,5.5432,5.5507,5.5575,5.5648,5.5761,5.7375,5.771,3.8998,4.3478,0.0,0.0,5.9993,6.3659,0.0,0.0,0.0,0.0,0.0,0.0,0.0,0.0,0.0,0.0,0.0,0.0,0.0,0.0,0.0,0.0,0.0,0.0,0.0,0.0,0.0,0.0,0.0,0.0,0.0,0.0,0.0,0.0,0.0,6.2351,6.118,6.1143,6.127,0.0,6.1359,6.2138,6.3557,6.3511,6.3501,6.3595,6.341,6.3465,6.3445,6.1767,6.11,6.0995,5.9467,5.88,5.8614,5.8437,5.8349,5.8349,5.8088,5.7997,5.7997,5.7997,5.7997,5.7997,5.7997,5.7997,5.7997,5.7997,5.7997,5.7997,5.7997,5.7997,5.8042,5.8133,5.8088,5.7997,5.7997,5.8042,5.8042,5.8133,5.8223,5.8275,5.84,5.8443,5.8486,5.8486,5.8614,5.8656,5.8572,5.8656,5.8656,5.8486,5.8424,5.8095,5.7302,5.6459,5.5686,5.5057,5.424,5.3794,5.3794,5.4093,5.4243,5.428,5.4462,5.487,5.5507,5.5575,5.5983,5.6729,5.7707,5.778,3.7877,0.0,0.0,5.6209,0.0,6.4253,6.4351,0.0,0.0,0.0,0.0,0.0,0.0,0.0,0.0,0.0,0.0,0.0,0.0,0.0,0.0,0.0,0.0,0.0,0.0,0.0,0.0,0.0,0.0,0.0,0.0,0.0,0.0,0.0,6.2413,6.1734,6.0381,6.0381,6.0648,6.1187,6.1187,6.1856,6.3044,6.328,6.3197,6.2917,6.2509,6.2406,6.2339,6.0704,6.0221,6.0444,5.9181,5.8698,5.8656,5.8486,5.8437,5.8349,5.8133,5.8042,5.7997,5.7997,5.7997,5.7997,5.7997,5.7997,5.7997,5.7997,5.7997,5.7997,5.7997,5.7997,5.8042,5.8133,5.8133,5.8133,5.8088,5.8133,5.8179,5.8179,5.8268,5.8312,5.8443,5.8486,5.8492,5.8614,5.8656,5.8656,5.8614,5.8614,5.8572,5.8529,5.8196,5.764,5.6825,5.6051,5.5315,5.45,5.4054,5.3794,5.3907,5.3944,5.3982,5.3982,5.4202,5.4495,5.4945,5.5013,5.572,5.6958,5.7441,5.7664,3.6159,4.2649,4.9745,5.736,6.1261,0.0,6.3733,6.445,0.0,0.0,0.0,0.0,0.0,0.0,0.0,0.0,0.0,0.0,0.0,0.0,0.0,0.0,0.0,0.0,0.0,0.0,0.0,0.0,0.0,0.0,0.0,0.0,6.1691,6.1835,6.1835,6.1228,5.998,5.9789,6.0172,6.1001,6.1261,6.1744,6.2413,6.3082,6.297,6.2153,6.1484,6.1187,6.1076,5.9552,5.9292,5.9812,5.9032,5.8698,5.8656,5.8572,5.8443,5.8393,5.826,5.8088,5.7997,5.7997,5.7997,5.7997,5.7997,5.7997,5.7997,5.7997,5.7997,5.7997,5.7997,5.7997,5.8042,5.8215,5.8223,5.8186,5.8223,5.8305,5.8393,5.8268,5.8393,5.8437,5.8437,5.8486,5.8572,5.8656,5.8698,5.8698,5.8698,5.8614,5.8535,5.8535,5.7894,5.7149,5.6381,5.5714,5.4939,5.4091,5.4017,5.3981,5.3944,5.3982,5.4019,5.4019,5.4164,5.4458,5.472,5.4637,5.546,5.7148,5.7215,5.7586,3.0695,4.002,5.0042,0.0,5.9181,6.1515,0.0,0.0,0.0,0.0,0.0,0.0,0.0,0.0,0.0,0.0,0.0,0.0,0.0,0.0,0.0,0.0,0.0,0.0,0.0,0.0,0.0,0.0,0.0,0.0,0.0,6.086,6.1691,6.1976,6.1966,6.1661,6.0995,6.0252,5.9918,6.011,6.1558,6.2345,6.2507,6.2619,6.2203,6.1373,6.1261,6.1187,6.1113,6.0147,5.9812,5.9812,5.9032,5.8698,5.8656,5.8572,5.8443,5.8393,5.826,5.8088,5.7997,5.7997,5.7997,5.7997,5.7997,5.7997,5.7997,5.7997,5.7997,5.7997,5.7997,5.7997,5.8042,5.8305,5.8268,5.8223,5.8349,5.8393,5.8437,5.8443,5.8572,5.8656,5.8656,5.8656,5.8656,5.8698,5.8698,5.8698,5.8698,5.8656,5.8656,5.8656,5.8582,5.8174,5.7357,5.7208,5.6466,5.4946,5.4834,5.4537,5.3831,5.3981,5.4091,5.4091,5.42,5.4982,5.6368,5.5728,5.6394,5.8223,5.8185,5.7947,3.2757,3.9946,4.6995,0.0,5.6692,5.8768,5.9974,0.0,0.0,0.0,0.0,0.0,0.0,0.0,0.0,0.0,0.0,0.0,0.0,0.0,0.0,0.0,0.0,0.0,0.0,0.0,0.0,0.0,0.0,0.0,5.9245,5.9869,6.0551,6.1311,6.0905,6.0589,6.0481,5.9664,5.9478,5.9924,6.071,6.1167,6.1172,6.0725,6.0534,6.0566,6.0566,6.0301,5.9775,5.9404,5.9255,5.9181,5.8846,5.8777,5.8818,5.8656,5.8529,5.8443,5.8349,5.8215,5.7997,5.7997,5.7997,5.7997,5.7997,5.7997,5.7997,5.8088,5.8042,5.8042,5.8097,5.8088,5.8079,5.8244,5.8297,5.8349,5.8443,5.8437,5.8437,5.8486,5.8614,5.8698,5.8698,5.8698,5.8698,5.8698,5.8698,5.8698,5.8698,5.8656,5.8614,5.8698,5.8614,5.828,5.7583,5.7509,5.6803,5.5131,5.502,5.4648,5.3944,5.4019,5.4055,5.4091,5.472,5.5165,5.539,5.5538,5.6021,5.6804,5.6911,5.705,3.3003,3.7819,4.2017,4.9224,5.2865,5.5315,0.0,0.0,0.0,0.0,0.0,0.0,0.0,0.0,0.0,0.0,0.0,0.0,0.0,0.0,0.0,0.0,0.0,0.0,0.0,0.0,0.0,0.0,0.0,0.0,5.8914,5.9098,5.9595,6.0461,5.9907,5.9708,5.9924,5.9107,5.9107,5.9966,6.005,6.0129,6.0174,5.9539,5.9502,5.9875,5.9793,5.9417,5.8781,5.8739,5.8739,5.8777,5.8698,5.8777,5.8859,5.8777,5.8614,5.8529,5.8443,5.8268,5.8088,5.8088,5.8088,5.8042,5.8042,5.8042,5.7997,5.8088,5.8088,5.8042,5.8186,5.8097,5.8088,5.8244,5.8297,5.8393,5.8529,5.8486,5.8523,5.8529,5.8614,5.8698,5.8698,5.8698,5.8698,5.8698,5.8698,5.8698,5.8698,5.8614,5.8614,5.8698,5.8429,5.8132,5.7843,5.7435,5.6766,5.5689,5.5243,5.4799,5.428,5.4317,5.4205,5.4091,5.528,5.55,5.4675,5.5275,5.5723,5.5983,5.6312,5.679,2.6988,3.1014,3.5107,4.172,4.6921,5.1046,0.0,0.0,0.0,0.0,0.0,0.0,0.0,0.0,0.0,0.0,0.0,0.0,0.0,0.0,0.0,0.0,0.0,0.0,0.0,0.0,0.0,0.0,0.0,0.0,5.8107,5.8804,5.9338,5.9649,5.9612,5.9708,5.9924,5.9107,5.9185,6.0087,6.0129,6.0174,6.0374,6.0376,5.9964,5.9213,5.9054,5.894,5.8984,5.894,5.8899,5.8859,5.8777,5.8698,5.8698,5.8698,5.8614,5.8492,5.8529,5.8443,5.8393,5.8393,5.8305,5.8215,5.8215,5.8088,5.7997,5.7997,5.7997,5.8042,5.8186,5.8186,5.8231,5.8443,5.8356,5.8268,5.8614,5.8698,5.8656,5.8698,5.8698,5.8698,5.8698,5.8698,5.8698,5.8698,5.8698,5.8698,5.8698,5.8698,5.8698,5.8698,5.8029,5.7881,5.8586,5.7249,5.6655,5.7323,5.5874,5.4983,5.4946,5.5099,5.4802,5.4091,5.577,5.6256,5.5432,5.5575,5.6058,5.6952,5.7846,5.8178,2.4874,2.7749,3.1184,3.6679,4.1297,4.5305,4.8268,0.0,0.0,0.0,0.0,0.0,0.0,0.0,0.0,0.0,0.0,0.0,0.0,0.0,0.0,0.0,0.0,0.0,0.0,0.0,0.0,0.0,0.0,0.0,5.8033,5.8253,5.8787,5.9575,5.9095,5.8968,5.9264,5.9011,5.9054,5.943,5.947,5.9549,5.9626,5.9626,5.9477,5.9253,5.9139,5.9061,5.8984,5.8982,5.8982,5.8982,5.8942,5.8942,5.8982,5.8899,5.8818,5.8698,5.8572,5.8443,5.8393,5.8393,5.8349,5.8349,5.8349,5.826,5.8252,5.8268,5.8215,5.8116,5.8194,5.8231,5.8268,5.8449,5.8406,5.8443,5.8656,5.8698,5.8698,5.8698,5.8698,5.8698,5.8698,5.8698,5.8698,5.8698,5.8698,5.8698,5.8698,5.8698,5.8698,5.8698,5.8438,5.8401,5.8698,5.8178,5.7773,5.7553,5.6995,5.6476,5.6032,5.5548,5.5137,5.4875,5.5059,5.5055,5.4825,5.5313,5.5532,5.5409,5.5676,5.6455,2.2889,2.4781,2.7786,3.3239,3.6192,3.9098,4.4309,0.0,0.0,0.0,0.0,0.0,0.0,0.0,0.0,0.0,0.0,0.0,0.0,0.0,0.0,0.0,0.0,0.0,0.0,0.0,0.0,0.0,0.0,0.0,5.7234,5.7279,5.7781,5.885,5.8159,5.8178,5.8902,5.8422,5.85,5.9063,5.8839,5.8953,5.9253,5.9253,5.9253,5.929,5.9253,5.9177,5.9101,5.8763,5.8612,5.8575,5.8275,5.8239,5.8277,5.8198,5.812,5.804,5.7881,5.7942,5.8116,5.8116,5.8258,5.8437,5.8437,5.8386,5.8378,5.84,5.812,5.7802,5.7876,5.7869,5.7899,5.8036,5.8079,5.8196,5.854,5.8656,5.8698,5.8698,5.8698,5.8698,5.8698,5.8698,5.8698,5.8698,5.8698,5.8698,5.8698,5.8656,5.8614,5.8614,5.8354,5.8317,5.8577,5.8174,5.781,5.7553,5.7032,5.6552,5.6145,5.5847,5.5585,5.536,5.5471,5.543,5.5235,5.5498,5.5495,5.5337,5.5491,5.6493,0.0,0.0,0.0,3.1095,3.1473,0.0,4.1496,0.0,0.0,0.0,0.0,0.0,0.0,0.0,0.0,0.0,0.0,0.0,0.0,0.0,0.0,0.0,0.0,0.0,0.0,0.0,0.0,0.0,0.0,5.5822,5.5822,5.5913,5.6372,5.7435,5.6889,5.7341,5.8947,5.7416,5.7529,5.9177,5.8353,5.8428,5.929,5.929,5.929,5.929,5.929,5.929,5.9253,5.8278,5.7904,5.7829,5.693,5.6594,5.6594,5.6594,5.6518,5.6403,5.6403,5.6883,5.7472,5.7509,5.7946,5.8492,5.8523,5.8474,5.8423,5.8393,5.7715,5.7007,5.7112,5.7186,5.7211,5.7211,5.726,5.7566,5.8344,5.8614,5.8698,5.8698,5.8698,5.8698,5.8661,5.8661,5.8661,5.8661,5.8661,5.8661,5.8698,5.8614,5.8529,5.8529,5.7825,5.7677,5.8455,5.7167,5.6729,5.7472,5.6023,5.517,5.5323,5.6031,5.6182,5.5581,5.708,5.7566,5.6925,5.6061,5.6061,5.6887,5.7554,5.8627,2.1226,0.0,0.0,0.0,0.0,0.0,3.3032,3.5483,3.8095,0.0,0.0,0.0,0.0,0.0,0.0,0.0,0.0,0.0,0.0,0.0,0.0,0.0,0.0,0.0,0.0,0.0,0.0,0.0,5.6498,5.6504,5.6034,5.6166,5.6397,5.6699,5.6668,5.7192,5.8203,5.7866,5.8203,5.9253,5.9028,5.9028,5.929,5.929,5.929,5.929,5.929,5.929,5.9215,5.839,5.8052,5.7977,5.7153,5.6815,5.6815,5.6743,5.6631,5.6556,5.6442,5.6511,5.6729,5.7323,5.7621,5.7918,5.8471,5.8651,5.8609,5.8498,5.7814,5.6977,5.635,5.6688,5.7174,5.7265,5.7793,5.8396,5.8619,5.8656,5.8698,5.8698,5.8698,5.8512,5.7918,5.7843,5.7843,5.7843,5.7843,5.8029,5.8624,5.8656,5.8656,5.8656,5.8471,5.8396,5.8656,5.8248,5.8182,5.8524,5.8077,5.7896,5.809,5.7716,5.7454,5.7377,5.7264,5.7377,5.7788,5.6925,5.6472,5.6425,5.7154,5.8381,2.3355,2.3243,2.3985,2.5226,0.0,0.0,3.0383,3.1774,3.3437,0.0,0.0,0.0,0.0,0.0,0.0,0.0,0.0,0.0,0.0,0.0,0.0,0.0,0.0,0.0,0.0,0.0,0.0,5.4995,5.5406,5.5562,5.5241,5.5359,5.5772,5.6481,5.5995,5.6628,5.8503,5.7527,5.7826,5.929,5.8952,5.899,5.929,5.9365,5.9401,5.9401,5.94,5.9438,5.9289,5.8123,5.7636,5.7488,5.6324,5.5873,5.5836,5.5765,5.5658,5.5548,5.5473,5.5583,5.5837,5.632,5.6692,5.71,5.7542,5.7914,5.8174,5.8103,5.7423,5.6515,5.5581,5.5987,5.6773,5.7196,5.7719,5.8206,5.8624,5.8438,5.8326,5.8624,5.8698,5.8549,5.8103,5.7992,5.7992,5.7992,5.7992,5.8178,5.8661,5.8656,5.8614,5.8614,5.8614,5.8614,5.8614,5.8661,5.8595,5.8378,5.8719,5.8648,5.8166,5.8016,5.7978,5.8126,5.7976,5.8126,5.8614,5.7676,5.7298,5.7482,5.7959,5.8807,2.6786,2.5801,2.6061,0.0,0.0,0.0,3.073,3.0531,3.0109,0.0,0.0,0.0,0.0,0.0,0.0,0.0,0.0,0.0,0.0,0.0,0.0,0.0,0.0,0.0,0.0,5.4732,5.399,5.3296,5.3452,5.3682,5.387,5.4017,5.4836,5.6368,5.5125,5.5836,5.8877,5.6699,5.6812,5.9178,5.8351,5.8389,5.9178,5.9176,5.921,5.921,5.9282,5.9282,5.9098,5.7517,5.6845,5.6737,5.5047,5.4409,5.4409,5.4409,5.4268,5.4127,5.4127,5.4466,5.4909,5.4983,5.554,5.6206,5.628,5.6796,5.7353,5.7249,5.6689,5.5862,5.4814,5.5291,5.6256,5.701,5.7307,5.7682,5.8508,5.8141,5.7843,5.8549,5.8698,5.8661,5.8586,5.8586,5.8586,5.8586,5.8586,5.8624,5.8698,5.8614,5.8492,5.8492,5.8492,5.8492,5.8492,5.8624,5.8412,5.7782,5.8461,5.8315,5.7042,5.7716,5.8165,5.8239,5.8952,5.929,5.929,5.8314,5.8351,5.929,5.9327,5.9543,0.0,0.0,0.0,0.0,0.0,0.0,2.66,2.7306,2.8528,0.0,0.0,0.0,0.0,0.0,0.0,0.0,0.0,0.0,0.0,0.0,0.0,0.0,0.0,0.0,0.0,5.2716,5.2678,5.1862,5.2494,5.2902,5.2939,5.379,5.4423,5.4757,5.4562,5.501,5.6324,5.5873,5.6549,5.8314,5.7525,5.7563,5.8314,5.7712,5.7411,5.7411,5.7411,5.7411,5.7336,5.6321,5.6249,5.6737,5.5047,5.4409,5.4409,5.4409,5.434,5.4235,5.4125,5.4202,5.4354,5.4838,5.5172,5.5544,5.6097,5.6395,5.6397,5.5646,5.5754,5.5751,5.4149,5.5373,5.6936,5.6418,5.7427,5.8471,5.8661,5.8586,5.8512,5.8661,5.8698,5.8475,5.7928,5.7773,5.7773,5.7816,5.7773,5.7992,5.8624,5.8656,5.8656,5.8656,5.8656,5.8656,5.8656,5.8698,5.8665,5.8676,5.8828,5.8833,5.8728,5.8877,5.899,5.9065,5.9215,5.929,5.929,5.9102,5.9102,5.929,5.9613,5.982,0.0,0.0,0.0,3.2091,0.0,0.0,0.0,2.7904,2.8053,2.9667,0.0,0.0,0.0,0.0,0.0,0.0,0.0,0.0,0.0,0.0,0.0,0.0,0.0,0.0,0.0,5.0824,5.1306,5.1416,5.1452,5.1894,5.275,5.334,5.4046,5.494,5.46,5.501,5.6249,5.5836,5.6249,5.7488,5.7075,5.7112,5.7488,5.711,5.6958,5.6958,5.699,5.6955,5.6882,5.6055,5.5908,5.6136,5.4897,5.4409,5.4409,5.4409,5.434,5.4273,5.4198,5.4163,5.4166,5.4429,5.4541,5.469,5.4984,5.5317,5.5579,5.5053,5.5238,5.535,5.4454,5.5198,5.6166,5.6166,5.7171,5.8103,5.8103,5.8438,5.8698,5.8698,5.8698,5.8586,5.8223,5.8145,5.8103,5.8148,5.8145,5.8252,5.8661,5.8698,5.8698,5.8698,5.8698,5.8698,5.8698,5.8702,5.8706,5.8825,5.8905,5.9061,5.9177,5.9215,5.929,5.929,5.929,5.929,5.929,5.929,5.94,5.9578,5.982,5.9885,0.0,0.0,0.0,0.0,0.0,3.1283,0.0,0.0,0.0,3.0139,0.0,0.0,0.0,0.0,0.0,0.0,0.0,0.0,0.0,0.0,0.0,0.0,0.0,0.0,0.0,4.8157,4.8896,5.0153,4.9517,5.0067,5.2298,5.2779,5.3709,5.5313,5.4747,5.5047,5.6399,5.5723,5.5798,5.6662,5.6509,5.6509,5.6662,5.6544,5.6504,5.6466,5.6568,5.6568,5.6428,5.5823,5.5563,5.5535,5.4897,5.4559,5.4409,5.4559,5.449,5.4308,5.4271,5.4235,5.4127,5.4019,5.3982,5.3907,5.3832,5.424,5.476,5.476,5.4871,5.4983,5.4834,5.502,5.5391,5.5912,5.6803,5.7509,5.7509,5.8141,5.8698,5.8698,5.8698,5.8698,5.8739,5.8698,5.8698,5.8739,5.8698,5.8698,5.8698,5.8698,5.8698,5.8698,5.8698,5.8698,5.8698,5.8706,5.875,5.8713,5.8986,5.914,5.9215,5.9253,5.929,5.929,5.929,5.929,5.929,5.9327,5.9543,5.9885,5.9885,5.9885,0.0,0.0,0.0,0.0,3.574,0.0,0.0,0.0,3.0213,2.6172,0.0,0.0,0.0,0.0,0.0,0.0,0.0,0.0,0.0,0.0,0.0,0.0,0.0,0.0,0.0,0.0,4.3503,4.5807,4.5175,4.6429,5.0403,5.2074,5.3377,5.442,5.4412,5.4484,5.4672,5.4627,5.5003,5.5761,5.5078,5.5115,5.5723,5.501,5.4706,5.4706,5.4773,5.4773,5.4706,5.466,5.4999,5.5604,5.5498,5.5047,5.4484,5.5197,5.501,5.4375,5.43,5.4303,5.4273,5.4055,5.3907,5.3794,5.3794,5.3868,5.3943,5.3943,5.4463,5.4834,5.4128,5.5057,5.5986,5.5317,5.6357,5.7509,5.7509,5.8141,5.8698,5.8698,5.8698,5.8777,5.8859,5.8777,5.8739,5.8859,5.8777,5.8698,5.8698,5.8698,5.8698,5.8698,5.8698,5.8698,5.8698,5.8818,5.8902,5.887,5.9063,5.9215,5.929,5.929,5.929,5.929,5.929,5.929,5.929,5.951,5.9685,5.9885,5.9885,5.9885,0.0,0.0,0.0,0.0,0.0,0.0,0.0,0.0,3.018,0.0,0.0,0.0,0.0,0.0,0.0,0.0,0.0,0.0,0.0,0.0,0.0,0.0,0.0,0.0,0.0,0.0,0.0,0.0,0.0,4.5196,4.9396,5.1286,5.2922,5.4303,5.4375,5.4409,5.4409,5.4443,5.4593,5.4897,5.4623,5.466,5.4927,5.4693,5.4576,5.4576,5.4505,5.4472,5.4439,5.4439,5.4593,5.4969,5.5491,5.5525,5.5228,5.5498,5.5122,5.4446,5.4371,5.4337,5.4306,5.4127,5.3981,5.3907,5.3794,5.3794,5.3794,5.3794,5.4054,5.424,5.3905,5.4314,5.476,5.4388,5.5206,5.6209,5.6692,5.7435,5.8141,5.8624,5.8698,5.8698,5.8739,5.8777,5.8698,5.8777,5.8777,5.8698,5.8698,5.8698,5.8698,5.8698,5.8698,5.8698,5.8698,5.8739,5.8818,5.8974,5.9059,5.9139,5.9253,5.9253,5.9253,5.9253,5.9365,5.9438,5.94,5.9472,5.9685,5.9885,5.9885,6.0013,3.8803,0.0,0.0,0.0,0.0,0.0,0.0,0.0,0.0,0.0,0.0,0.0,0.0,0.0,2.6394,2.6339,0.0,2.6098,0.0,0.0,0.0,0.0,0.0,0.0,0.0,0.0,0.0,0.0,0.0,0.0,4.7793,4.972,5.1724,5.3962,5.4037,5.4149,5.4409,5.4443,5.4443,5.4409,5.4472,5.4505,5.4505,5.4608,5.4673,5.4673,5.4641,5.4571,5.4538,5.4543,5.4623,5.4852,5.5559,5.5781,5.5847,5.5714,5.5157,5.4446,5.4443,5.4409,5.434,5.4163,5.4018,5.3982,5.3907,5.3794,5.3794,5.3794,5.3794,5.3794,5.3794,5.3794,5.3794,5.3794,5.4426,5.5169,5.58,5.658,5.736,5.7918,5.8029,5.8103,5.8326,5.8549,5.8698,5.8698,5.8698,5.8698,5.8698,5.8698,5.8698,5.8698,5.8698,5.8698,5.8698,5.8698,5.8814,5.9008,5.902,5.91,5.9177,5.929,5.929,5.9215,5.9365,5.9474,5.951,5.9545,5.965,5.982,5.9885,6.0013,0.0,0.0,0.0,3.3594,0.0,0.0,0.0,0.0,3.1229,0.0,0.0,0.0,0.0,0.0,2.7493,2.4963,2.5241,0.0,0.0,0.0,0.0,0.0,0.0,0.0,0.0,0.0,0.0,0.0,0.0,0.0,4.5015,4.7015,4.95,5.2922,5.3035,5.3481,5.4409,5.4472,5.4472,5.4409,5.4472,5.4505,5.4505,5.4505,5.4571,5.4705,5.4767,5.4736,5.4673,5.4767,5.5227,5.5847,5.5819,5.5842,5.5927,5.5875,5.5258,5.4409,5.4472,5.4409,5.4308,5.4127,5.4018,5.3982,5.3982,5.3907,5.3794,5.3794,5.3794,5.3794,5.3794,5.3794,5.3794,5.3794,5.4426,5.502,5.5057,5.5726,5.6357,5.6357,5.6395,5.6617,5.7398,5.8178,5.8698,5.8698,5.8698,5.8698,5.8698,5.8698,5.8698,5.8698,5.8698,5.8698,5.8698,5.8818,5.894,5.9022,5.9139,5.9177,5.9177,5.929,5.929,5.929,5.929,5.9365,5.9512,5.9581,5.9616,5.9616,5.982,5.9885,0.0,0.0,4.152,3.6385,0.0,0.0,0.0,0.0,0.0,0.0,0.0,0.0,0.0,2.8409,2.7063,2.5594,2.4696,2.3417,0.0,0.0,0.0,0.0,0.0,0.0,0.0,0.0,0.0,0.0,0.0,0.0,0.0,4.7197,4.9791,5.2136,5.2803,5.3512,5.4409,5.4405,5.4405,5.4409,5.4472,5.4505,5.4505,5.4571,5.4673,5.4673,5.4635,5.4635,5.4705,5.4629,5.4818,5.5088,5.5145,5.5108,5.512,5.5559,5.5153,5.4472,5.4439,5.4409,5.434,5.4271,5.42,5.4164,5.4092,5.4019,5.3944,5.3944,5.3869,5.3794,5.3794,5.3794,5.3794,5.3794,5.4017,5.4351,5.4909,5.5243,5.5614,5.6209,5.632,5.6395,5.6655,5.6952,5.7472,5.8549,5.8698,5.8698,5.8698,5.8698,5.8698,5.8698,5.8698,5.8698,5.8698,5.8739,5.8818,5.894,5.898,5.9022,5.91,5.9177,5.9253,5.9253,5.9365,5.9438,5.9512,5.9653,5.9685,5.9685,5.982,5.9885,4.2006,4.2482,0.0,0.0,3.6883,0.0,3.0884,0.0,0.0,0.0,0.0,0.0,0.0,0.0,2.738,2.6785,2.5103,2.3108,0.0,2.1639,0.0,0.0,0.0,0.0,0.0,0.0,0.0,0.0,0.0,0.0,0.0,0.0,4.8488,5.0792,5.179,5.2648,5.3508,5.3808,5.3958,5.3958,5.4326,5.4472,5.4505,5.4571,5.4673,5.4705,5.4603,5.4641,5.4678,5.4597,5.4597,5.4705,5.4761,5.473,5.4748,5.5174,5.499,5.4538,5.4443,5.4409,5.4409,5.434,5.4343,5.4308,5.42,5.4092,5.3982,5.3982,5.3907,5.3794,5.3794,5.3794,5.3794,5.3794,5.3794,5.3943,5.4463,5.4574,5.476,5.5317,5.5429,5.5503,5.58,5.5837,5.6395,5.8029,5.8289,5.8401,5.8661,5.8698,5.8698,5.8698,5.8698,5.8698,5.8698,5.8698,5.8777,5.8818,5.8899,5.8942,5.8984,5.9177,5.9253,5.9253,5.9365,5.9438,5.9512,5.9618,5.9723,5.9786,5.9853,5.9885]},{"header":{"parameterUnit":"m.s-1","parameterCategory":1,"la1":30.6,"la2":29.2853,"lo1":-89.7004,"lo2":-87.6739,"dy":0.0162,"dx":0.0183,"nx":112,"ny":82,"refTime":"2024-05-07T12:00:00:Z","depth":0,"parameterNumber":3,"parameterNumberName":"V-component_of_WINDS"},"data":[0.0,0.0,0.0,0.0,0.0,0.0,0.0,0.0,0.0,0.0,0.0,0.0,0.0,0.0,0.0,0.0,0.0,0.0,0.0,0.0,0.0,0.0,0.0,0.0,0.0,0.0,0.0,0.0,0.0,0.0,0.0,0.0,0.0,0.0,0.0,0.0,0.0,0.0,0.0,0.0,0.0,0.0,0.0,0.0,0.0,0.0,0.0,0.0,0.0,0.0,0.0,0.0,0.0,0.0,0.0,0.0,0.0,0.0,0.0,0.0,0.0,0.0,0.0,0.0,0.0,0.0,0.0,0.0,0.0,0.0,0.0,0.0,0.0,0.0,0.0,0.0,0.0,0.0,0.0,0.0,0.0,0.0,0.0,0.0,0.0,0.0,0.0,0.0,0.0,0.0,0.0,0.676,0.72,0.7355,0.7271,0.669,0.5974,0.501,0.0,0.0,0.0,0.0,0.0,0.0,0.0,0.0,0.0,0.0,0.0,0.0,0.0,0.0,0.0,0.0,0.0,0.0,0.0,0.0,0.0,0.0,0.0,0.0,0.0,0.0,0.0,0.0,0.0,0.0,0.0,0.0,0.0,0.0,0.0,0.0,0.0,0.0,0.0,0.0,0.0,0.0,0.0,0.0,0.0,0.0,0.0,0.0,0.0,0.0,0.0,0.0,0.0,0.0,0.0,0.0,0.0,0.0,0.0,0.0,0.0,0.0,0.0,0.0,0.0,0.0,0.0,0.0,0.0,0.0,0.0,0.0,0.0,0.0,0.0,0.0,0.0,0.0,0.0,0.0,0.0,0.0,0.0,0.0,0.0,0.0,0.0,0.0,0.0,0.0,0.0,0.0,0.0,0.0,0.0,0.0,0.0,0.0,0.0,0.0,0.0,0.0,0.0,0.0,0.6295,0.716,0.7572,0.7596,0.7388,0.719,0.6484,0.5354,0.0,0.0,0.0,0.0,0.0,0.0,0.0,0.0,0.0,0.0,0.0,0.0,0.0,0.0,0.0,0.0,0.0,0.0,0.0,0.0,0.0,0.0,0.0,0.0,0.0,0.0,0.0,0.0,0.0,0.0,0.0,0.0,0.0,0.0,0.0,0.0,0.0,0.0,0.0,0.0,0.0,0.0,0.0,0.0,0.0,0.0,0.0,0.0,0.0,0.0,0.0,0.0,0.0,0.0,0.0,0.0,0.0,0.0,0.0,0.0,0.0,0.0,0.0,0.0,0.0,0.0,0.0,0.0,0.0,0.0,0.0,0.0,0.0,0.0,0.0,0.0,0.0,0.0,0.0,0.0,0.0,0.0,0.0,0.0,0.0,0.0,0.0,0.0,0.0,0.0,0.0,0.0,0.0,0.0,0.0,0.0,0.0,0.0,0.0,0.0,0.0,0.0,0.0,0.6344,0.6945,0.7704,0.8001,0.7849,0.7564,0.7166,0.6556,0.5436,0.4639,0.0,0.0,0.0,0.0,0.0,0.0,0.0,0.0,0.0,0.0,0.0,0.0,0.0,0.0,0.0,0.0,0.0,0.0,0.0,0.0,0.0,0.0,0.0,0.0,0.0,0.0,0.0,0.0,0.0,0.0,0.0,0.0,0.0,0.0,0.0,0.0,0.0,0.0,0.0,0.0,0.0,0.0,0.0,0.0,0.0,0.0,0.0,0.0,0.0,0.0,0.0,0.0,0.0,0.0,0.0,0.0,0.0,0.0,0.0,0.0,0.0,0.0,0.0,0.0,0.0,0.0,0.0,0.0,0.0,0.0,0.0,0.0,0.0,0.0,0.0,0.0,0.0,0.0,0.0,0.0,0.0,0.0,0.0,0.0,0.0,0.0,0.0,0.0,0.0,0.0,0.0,0.0,0.0,0.0,0.0,0.0,0.0,0.0,0.0,0.0,0.0,0.0,0.7111,0.766,0.8303,0.8226,0.8038,0.7795,0.7111,0.6354,0.5469,0.4654,0.0,0.0,0.0,0.0,0.0,0.0,0.0,0.0,0.0,0.0,0.0,0.0,0.0,0.0,0.0,0.0,0.0,0.0,0.0,0.0,0.0,0.0,0.0,0.0,0.0,0.0,0.0,0.0,0.0,0.0,0.0,0.0,0.0,0.0,0.0,0.0,0.0,0.0,0.0,0.0,0.0,0.0,0.0,0.0,0.0,0.0,0.0,0.0,0.0,0.0,0.0,0.0,0.0,0.0,0.0,0.0,0.0,0.0,0.0,0.0,0.0,0.0,0.0,0.0,0.0,0.0,0.0,0.0,0.0,0.0,0.0,0.0,0.0,0.0,0.0,0.0,0.0,0.0,0.0,0.0,0.0,0.0,0.0,0.0,0.0,0.0,0.0,0.0,0.0,0.0,0.0,0.0,0.0,0.0,0.0,0.0,0.0,0.0,0.0,0.0,0.0,0.0,0.735,0.806,0.8585,0.8403,0.8153,0.802,0.7077,0.6145,0.5241,0.4307,0.0,0.0,0.0,0.0,0.0,0.0,0.0,0.0,0.0,0.0,0.0,0.0,0.0,0.0,0.0,0.0,0.0,0.0,0.0,0.0,0.0,0.0,0.0,0.0,0.0,0.0,0.0,0.0,0.0,0.0,0.0,0.0,0.0,0.0,0.0,0.0,0.0,0.0,0.0,0.0,0.0,0.0,0.0,0.0,0.0,0.0,0.0,0.0,0.0,0.0,0.0,0.0,0.0,0.0,0.0,0.0,0.0,0.0,0.0,0.0,0.0,0.0,0.0,0.0,0.0,0.0,0.0,0.0,0.0,0.0,0.0,0.0,0.0,0.0,0.0,0.0,0.0,0.0,0.0,0.0,0.0,0.0,0.0,0.0,0.0,0.0,0.0,0.0,0.0,0.0,0.0,0.0,0.0,0.0,0.0,0.0,0.0,0.0,0.0,0.0,0.0,0.0,0.7645,0.8195,0.0,0.864,0.8379,0.8117,0.7413,0.6527,0.5538,0.0,0.0,0.0,0.0,0.0,0.0,0.0,0.0,0.0,0.0,0.0,0.0,0.0,0.0,0.0,0.0,0.0,0.0,0.0,0.0,0.0,0.0,0.0,0.0,0.0,0.0,0.0,0.0,0.0,0.0,0.0,0.0,0.0,0.0,0.0,0.0,0.0,0.0,0.0,0.0,0.0,0.0,0.0,0.0,0.0,0.0,0.0,0.0,0.0,0.0,0.0,0.0,0.0,0.0,0.0,0.0,0.0,0.0,0.0,0.0,0.0,0.0,0.0,0.0,0.0,0.0,0.0,0.0,0.0,0.0,0.0,0.0,0.0,0.0,0.0,0.0,0.0,0.0,0.0,0.0,0.0,0.0,0.0,0.0,0.0,0.0,0.0,0.0,0.0,0.0,0.0,0.0,0.0,0.0,0.0,0.0,0.0,0.0,0.0,0.0,0.0,0.0,0.7409,0.809,0.8778,0.0,0.9176,0.8994,0.8665,0.7814,0.6783,0.572,0.0,0.0,0.0,0.0,0.0,0.0,0.0,0.0,0.0,0.0,0.0,0.0,0.0,0.0,0.0,0.0,0.0,0.0,0.0,0.0,0.0,0.0,0.0,0.0,0.0,0.0,0.0,0.0,0.0,0.0,0.0,0.0,0.0,0.0,0.0,0.0,0.0,0.0,0.0,0.0,0.0,0.0,0.0,0.0,0.0,0.0,0.0,0.0,0.0,0.0,0.0,0.0,0.0,0.0,0.0,0.0,0.0,0.0,0.0,0.0,0.0,0.0,0.0,0.0,0.0,0.0,0.0,0.0,0.0,0.0,0.0,0.0,0.0,0.0,0.0,0.0,0.0,0.0,0.0,0.0,0.0,0.0,0.0,0.0,0.0,0.0,0.0,0.0,0.0,0.0,0.0,0.0,0.0,0.0,0.0,0.0,0.0,0.0,0.0,0.0,0.0,0.0,0.7655,0.8833,0.9666,0.9921,1.0023,0.9888,0.9418,0.8182,0.6941,0.0,0.0,0.0,0.0,0.0,0.0,0.0,0.0,0.0,0.0,0.0,0.0,0.0,0.0,0.0,0.0,0.0,0.0,0.0,0.0,0.0,0.0,0.0,0.0,0.0,0.0,0.0,0.0,0.0,0.0,0.0,0.0,0.0,0.0,0.0,0.0,0.0,0.0,0.0,0.0,0.0,0.0,0.0,0.0,0.0,0.0,0.0,0.0,0.0,0.0,0.0,0.0,0.0,0.0,0.0,0.0,0.0,0.0,0.0,0.0,0.0,0.0,0.0,0.0,0.0,0.0,0.0,0.0,0.0,0.0,0.0,0.0,0.0,0.0,0.0,0.0,0.0,0.0,0.0,0.0,0.0,0.0,0.0,0.0,0.0,0.0,0.0,0.0,0.0,0.0,0.0,0.0,0.0,0.0,0.0,0.0,0.0,0.0,0.0,0.0,0.0,0.0,0.0,0.0,0.9596,1.0494,1.0616,1.0332,1.0111,0.9735,0.8674,0.7539,0.6302,0.0,0.0,0.0,0.0,0.0,0.0,0.0,0.0,0.0,0.0,0.0,0.0,0.0,0.0,0.0,0.0,0.0,0.0,0.0,0.0,0.0,0.0,0.0,0.0,0.0,0.0,0.0,0.0,0.0,0.0,0.0,0.0,0.0,0.0,0.0,0.0,0.0,0.0,0.0,0.0,0.0,0.0,0.0,0.0,0.0,0.0,0.0,0.0,0.0,0.0,0.0,0.0,0.0,0.0,0.0,0.0,0.0,0.0,0.0,0.0,0.0,0.0,0.0,0.0,0.0,0.0,0.0,0.0,0.0,0.0,0.0,0.0,0.0,0.0,0.0,0.0,0.0,0.0,0.0,0.0,0.0,0.0,0.0,0.0,0.0,0.0,0.0,0.0,0.0,0.0,0.0,0.0,0.0,0.0,0.0,0.0,0.0,0.0,0.0,0.0,0.0,0.0,0.8924,1.0242,1.1058,1.1126,1.1009,1.0917,1.0508,0.954,0.8525,0.7207,0.0,0.0,0.0,0.0,0.0,0.0,0.0,0.0,0.0,0.0,0.0,0.0,0.0,0.0,0.0,0.0,0.0,0.0,0.0,0.0,0.0,0.0,0.0,0.0,0.0,0.0,0.0,0.0,0.0,0.0,0.0,0.0,0.0,0.0,0.0,0.0,0.0,0.0,0.0,0.0,0.0,0.0,0.0,0.0,0.0,0.0,0.0,0.0,0.0,0.0,0.0,0.0,0.0,0.0,0.0,0.0,0.0,0.0,0.0,0.0,0.0,0.0,0.0,0.0,0.0,0.0,0.0,0.0,0.0,0.0,0.0,0.0,0.0,0.0,0.0,0.0,0.0,0.0,0.0,0.0,0.0,0.0,0.0,0.0,0.0,0.0,0.0,0.0,0.0,0.0,0.0,0.0,0.0,0.0,0.0,0.0,0.0,0.0,0.0,0.0,0.0,0.0,0.9222,1.0506,1.1316,1.1495,1.1946,1.198,1.1465,1.0607,0.9664,0.8469,0.0,0.0,0.0,0.0,0.0,0.0,0.0,0.0,0.0,0.0,0.0,0.0,0.0,0.0,0.0,0.0,0.0,0.0,0.0,0.0,0.0,0.0,0.0,0.0,0.0,0.0,0.0,0.0,0.0,0.0,0.0,0.0,0.0,0.0,0.0,0.0,0.0,0.0,0.0,0.0,0.0,0.0,0.0,0.0,0.0,0.0,0.0,0.0,0.0,0.0,0.0,0.0,0.0,0.0,0.0,0.0,0.0,0.0,0.0,0.0,0.9895,0.0,0.0,0.0,0.0,0.0,0.0,0.0,0.0,0.0,0.0,0.0,0.0,0.0,0.0,0.0,0.0,0.0,0.0,0.0,0.0,0.0,0.0,0.0,0.0,0.0,0.0,0.0,0.0,0.0,0.0,0.0,0.0,0.0,0.0,0.0,0.0,0.0,0.0,0.0,0.0,0.0,0.9461,1.0667,1.1503,1.1687,1.1769,1.1693,1.1439,1.0802,1.0009,0.8994,0.0,0.0,0.0,0.0,0.0,0.0,0.0,0.0,0.0,0.0,0.0,0.0,0.0,0.0,0.0,0.0,0.0,0.0,0.0,0.0,0.0,0.0,0.0,0.0,0.0,0.0,0.0,0.0,0.0,0.0,0.0,0.0,0.0,0.0,0.0,0.0,0.0,0.0,0.0,0.0,0.0,0.0,0.0,0.0,0.0,0.0,0.0,0.0,0.0,0.0,0.0,0.0,0.0,0.0,0.0,0.0,0.0,0.0,0.0,0.0,0.0,1.0561,0.0,0.0,0.0,0.0,0.0,0.0,0.0,0.0,0.0,0.0,0.0,0.0,0.0,0.0,0.0,0.0,0.0,0.0,0.0,0.0,0.0,0.0,0.0,0.0,0.0,0.0,0.0,0.0,0.0,0.0,0.0,0.0,0.0,0.0,0.0,0.0,0.0,0.0,0.0,0.0,0.9722,1.0866,1.1637,1.1972,1.2035,1.2065,1.188,1.1336,1.0753,1.003,0.8765,0.0,0.0,0.0,0.0,0.0,0.0,0.0,0.0,0.0,0.0,0.0,0.0,0.0,0.0,0.0,0.0,0.0,0.0,0.0,0.0,0.0,0.0,0.0,0.0,0.0,0.0,0.0,0.0,0.0,0.0,0.0,0.0,0.0,0.0,0.0,0.0,0.0,0.0,0.0,0.0,0.0,0.0,0.0,0.0,0.0,0.0,0.0,0.0,0.0,0.0,0.0,0.0,0.0,0.0,0.0,1.3757,1.376,1.3888,1.4047,1.2746,1.2347,1.2436,0.0,0.0,0.0,0.0,0.0,0.0,0.0,0.0,0.0,0.0,0.0,0.0,0.0,0.0,0.0,0.0,0.0,0.0,0.0,0.0,0.0,0.0,0.0,0.0,0.0,1.0568,1.0247,0.0,0.0,0.0,0.0,0.0,0.0,0.0,0.0,0.0,0.0,0.0,0.0,1.016,1.1159,1.1923,1.2073,1.2479,1.2597,1.2329,1.2027,1.1569,1.1144,0.98,0.8745,0.0,0.0,0.0,0.0,0.0,0.0,0.0,0.0,0.0,0.0,0.0,0.0,0.0,0.0,0.0,0.0,0.0,0.0,0.0,0.0,0.0,0.0,0.0,0.0,0.0,0.0,0.0,0.0,0.0,0.0,0.0,0.0,0.876,0.8982,0.0,0.0,0.0,0.0,0.0,0.0,0.0,0.0,0.0,0.0,0.0,0.0,0.0,0.0,1.3639,1.4201,1.4594,1.495,1.5372,1.5662,1.5848,1.5687,1.5606,1.5821,1.5174,0.0,1.3483,1.3048,0.0,0.0,0.0,0.0,0.0,0.0,0.0,0.0,0.0,0.0,0.0,0.0,0.0,0.0,0.0,0.0,0.0,0.0,0.0,0.0,0.0,0.0,1.1487,1.1655,1.1639,1.1503,0.0,0.9863,0.8498,0.7788,0.0,0.0,0.0,0.0,0.0,0.0,0.0,0.0,1.101,1.162,1.209,1.2381,1.2557,1.2683,1.2655,1.2423,1.2055,1.1754,1.0724,0.9751,0.9068,0.8174,0.0,0.0,0.0,0.0,0.0,0.0,0.0,0.0,0.0,0.0,0.0,0.0,0.0,0.0,0.0,0.0,0.0,0.0,0.0,0.0,0.0,0.0,0.0,0.0,0.0,0.0,0.0,0.0,0.0,0.9361,0.9916,0.9803,0.9768,0.9535,0.0,0.0,0.0,0.0,0.0,0.0,0.0,0.0,0.0,1.3704,1.3967,1.437,1.4957,1.5227,1.5597,1.5933,1.6084,1.628,1.6528,1.6721,1.6788,1.7,1.6759,1.6358,1.5803,1.4447,1.3609,1.3054,0.0,0.0,0.0,0.0,0.0,0.0,1.2363,0.0,0.0,0.0,0.0,0.0,0.0,0.0,0.0,0.0,0.0,0.0,0.0,0.0,0.0,1.2264,1.2353,1.2345,1.2239,1.1581,1.068,0.0,0.9581,0.941,0.833,0.0,0.0,0.0,0.0,0.0,1.188,1.2505,1.2943,1.3155,1.3199,1.3216,1.2861,1.2575,1.2352,1.1932,1.1218,1.0622,1.0038,0.9203,0.8253,0.0,0.0,0.0,0.0,0.0,0.0,0.0,0.0,0.0,0.0,0.0,0.0,0.0,0.0,0.0,0.0,0.0,0.0,0.0,0.0,0.0,0.0,0.0,0.0,0.0,0.0,0.0,0.0,1.0314,1.072,1.0619,1.0816,1.0699,0.0,0.0,0.0,0.0,0.0,0.0,1.351,1.3712,1.4113,1.4898,1.5199,1.5524,1.6044,1.6053,1.6155,1.6642,1.6359,1.6443,1.6878,1.732,1.7527,1.7634,1.7842,1.7862,1.7624,1.5737,1.4902,1.4714,1.3986,1.358,0.0,1.35,1.3398,1.3286,1.3976,1.4041,1.369,1.3104,0.0,1.2328,1.1423,0.0,0.0,0.0,0.0,1.1661,1.2218,0.0,1.2424,1.2747,1.293,1.3004,1.2913,1.3046,1.2687,0.0,1.1372,1.1298,0.9893,0.0,0.0,0.0,0.0,1.194,1.2846,1.3317,1.3712,1.3851,1.3821,1.3597,1.3199,1.2914,1.2557,1.2133,1.1692,1.1198,1.0899,1.0159,0.937,0.0,0.0,0.0,0.0,0.0,0.0,0.0,0.0,0.0,0.0,0.0,0.0,0.0,0.0,0.0,0.0,0.0,0.0,0.0,0.0,0.0,0.0,0.0,0.0,0.0,0.0,0.0,0.0,0.0,0.0,1.1326,1.1756,0.0,0.0,0.0,0.0,1.2755,1.3249,1.3958,1.478,1.549,1.6019,1.6386,1.6702,1.6827,1.6774,1.6774,1.6868,1.7067,1.7076,1.7076,1.7086,1.7544,1.7585,1.7409,1.806,1.8001,1.7693,1.6968,1.6462,1.6046,1.5602,1.53,1.5111,1.513,1.4874,1.4645,1.4891,1.4576,1.42,1.4543,1.4415,1.3879,1.3376,1.3036,0.0,0.0,1.2794,1.3014,1.3207,1.3269,1.3339,1.355,1.3602,1.3655,1.3822,1.3857,1.3474,0.0,1.2363,1.2429,1.1937,0.0,0.0,1.2149,1.2586,1.3076,1.3712,1.4053,1.4296,1.4275,1.4117,1.3988,1.364,1.332,1.2965,1.2715,1.1973,1.1559,1.1637,1.0899,1.025,0.9666,0.8383,0.0,0.0,0.0,0.0,0.0,0.0,0.0,0.0,0.0,0.0,0.0,0.0,0.0,0.0,0.0,0.0,0.0,0.0,0.0,0.0,0.0,0.0,0.0,0.0,0.0,0.0,0.0,0.0,1.288,1.3342,0.0,0.0,1.341,1.3832,1.4128,1.4619,1.5139,1.5706,1.6139,1.652,1.6868,1.7035,1.713,1.7199,1.7209,1.7237,1.7312,1.7606,1.7606,1.7757,1.8371,1.8621,1.855,1.8782,1.8823,1.8662,1.814,1.7408,1.6538,1.6122,1.5829,1.564,1.5913,1.5777,1.5531,1.6015,1.5626,1.5014,1.4893,1.4755,1.4627,1.39,1.3877,1.4034,1.3717,1.368,1.3713,1.3913,1.3931,1.369,1.3761,1.3778,1.3796,1.3866,1.3917,1.3833,1.3296,1.3355,1.3241,1.2562,1.2637,1.2739,1.2484,1.301,1.3749,1.4242,1.4646,1.4758,1.4698,1.4632,1.4371,1.3583,1.3324,1.2872,1.2297,1.1921,1.1579,1.1405,1.1028,1.061,1.008,0.9173,0.8012,0.0,0.0,0.0,0.0,0.0,0.0,0.0,0.0,0.0,0.0,0.0,0.0,0.0,0.0,0.0,0.0,0.0,0.0,0.0,0.0,0.0,0.0,0.0,0.0,0.0,0.0,1.3846,1.3684,1.4304,1.4622,1.427,1.4719,1.5109,1.5328,1.5882,1.6413,1.6625,1.6835,1.725,1.7757,1.7699,1.7767,1.799,1.7922,1.7951,1.8087,1.8325,1.8478,1.8702,1.9243,1.9475,1.939,1.939,1.939,1.9239,1.8946,1.8271,1.732,1.7039,1.6797,1.6593,1.6806,1.6588,1.6409,1.6685,1.631,1.5726,1.5457,1.5274,1.5183,1.4575,1.4654,1.4769,1.4438,1.4308,1.4268,1.4539,1.4408,1.4268,1.4268,1.4277,1.4408,1.4408,1.4512,1.46,1.4534,1.4276,1.392,1.3336,1.3596,1.3781,1.3276,1.3788,1.4478,1.4748,1.4997,1.5205,1.5052,1.4934,1.4536,1.3663,1.3297,1.2844,1.2268,1.1897,1.1674,1.1668,1.1211,1.0867,1.0554,0.9638,0.8705,0.7693,0.0,0.0,0.0,0.0,0.0,0.0,0.0,0.0,0.0,0.0,0.0,0.0,0.0,0.0,0.0,0.0,0.0,0.0,0.0,0.0,0.0,0.0,0.0,1.2792,1.3712,1.4202,1.3788,1.4577,1.4944,1.4761,1.5837,1.6399,1.6188,1.701,1.7487,1.7703,1.7908,1.8276,1.8956,1.8754,1.8744,1.8956,1.8754,1.8865,1.928,1.9368,1.9698,1.9918,2.0163,2.0081,1.9844,1.9844,1.9693,1.9239,1.9239,1.8813,1.8309,1.8309,1.8168,1.7956,1.7723,1.7501,1.7308,1.6875,1.6461,1.6178,1.6178,1.6037,1.5819,1.5621,1.5404,1.5196,1.4988,1.4931,1.4931,1.4931,1.4931,1.4931,1.4931,1.5202,1.5463,1.5463,1.5555,1.5711,1.5923,1.5356,1.468,1.427,1.46,1.4902,1.469,1.4878,0.0,1.5105,1.5343,1.5494,1.5268,1.5031,1.46,1.389,1.3383,1.3007,1.277,1.2109,1.1868,1.2393,1.1468,1.1013,1.1013,0.9956,0.9241,0.8871,0.0,0.0,0.0,0.0,0.0,0.0,0.0,0.0,0.0,0.0,0.0,0.0,0.0,0.0,0.0,0.0,0.0,0.0,0.0,0.0,0.0,0.0,1.5173,1.4331,1.4644,1.5044,1.5451,1.6072,1.651,1.6622,1.6979,1.7145,1.7059,1.7468,1.7654,1.7712,1.822,1.8521,1.8734,1.8683,1.8673,1.8734,1.8673,1.8785,1.9058,1.946,1.9769,2.0131,2.0539,2.0691,2.0759,2.0447,2.0296,2.0145,1.9844,1.9811,1.9725,1.8659,1.8168,1.7956,1.8011,1.7928,1.758,1.6875,1.6593,1.6593,1.6593,1.6448,1.6244,1.6303,1.6221,1.6002,1.5773,1.5453,1.5332,1.5332,1.5332,1.5332,1.5332,1.5593,1.5844,1.5844,1.5923,1.5853,1.5762,1.5635,1.5391,1.5022,1.5044,1.4902,1.469,0.0,0.0,1.4876,1.5109,1.5373,1.5363,1.5274,1.4999,1.4449,1.3788,1.3139,0.0,1.1967,1.1807,1.2134,1.1711,1.1519,1.1519,1.0584,1.0084,0.0,0.0,0.0,0.0,0.0,0.0,0.0,0.0,0.0,0.0,0.0,0.0,0.0,0.0,0.0,0.0,0.0,0.0,0.0,0.0,0.0,0.0,1.5534,1.6201,1.5704,1.5938,1.6148,1.6163,1.669,1.7155,1.736,1.7615,1.7852,1.7941,1.822,1.8301,1.8301,1.8723,1.8988,1.9243,1.9243,1.9284,1.9388,1.9388,1.945,1.973,2.0088,2.0506,2.0649,2.1018,2.1197,0.0,2.091,2.0597,2.0447,2.0296,2.0296,0.0,0.0,0.0,0.0,0.0,1.8212,1.7861,1.7298,1.7157,1.7017,1.7017,1.6867,1.6668,1.6676,1.656,1.6287,1.6156,1.5924,1.5724,1.5724,1.5724,1.5724,1.5463,1.5854,1.6104,1.5974,1.6162,1.6337,1.6306,0.0,0.0,1.5825,1.5411,1.5314,1.5392,1.5192,1.5162,0.0,1.5514,1.5544,1.5521,1.5613,1.5524,1.5018,1.4387,0.0,0.0,0.0,1.2053,1.1898,1.1865,0.0,0.0,0.0,1.1388,0.0,0.0,0.0,0.0,0.9517,0.9475,0.0,0.0,0.0,0.0,0.0,0.0,0.0,0.0,0.0,0.0,0.0,0.0,0.0,0.0,0.0,0.0,1.6509,1.6817,1.6991,1.7389,1.7231,1.6412,1.6895,1.7349,1.7733,1.808,1.8571,1.8764,1.9088,1.9239,1.9239,0.0,0.0,0.0,0.0,2.035,2.0711,2.0722,2.0732,2.0754,2.1311,2.1494,2.146,2.1697,2.1731,2.1857,2.1407,2.0966,2.0676,2.0653,2.062,2.0597,2.0564,2.0236,1.9948,1.9083,1.8485,0.0,0.0,0.0,0.0,1.7308,1.7286,1.7103,1.7072,1.6777,1.644,1.642,1.6257,1.6104,1.6104,1.6104,1.5974,1.5724,1.6114,1.6494,1.6234,1.6465,1.6764,1.6969,1.6818,1.6592,1.6387,1.5978,1.585,1.6255,1.5829,0.0,1.6042,1.6042,1.5954,1.5836,0.0,0.0,1.5655,1.5137,1.4815,1.4757,1.3588,1.2692,1.1966,1.2205,1.2324,1.2303,1.263,1.2844,1.2746,1.2955,1.2874,1.2348,1.0791,1.0398,0.0,0.0,0.0,0.0,0.0,0.0,0.0,0.0,0.0,0.0,0.0,0.0,0.0,0.0,0.0,1.6204,1.7163,1.7727,1.7527,1.7983,1.8075,1.7683,1.7979,1.8508,1.8772,1.8994,1.9197,1.9531,1.939,1.939,1.9693,1.9885,0.0,2.0671,2.0548,2.0667,2.1023,2.1023,2.1122,2.1468,0.0,0.0,2.2187,2.2294,2.2307,2.2421,2.2118,2.193,2.1939,2.1437,2.1243,2.0887,2.0683,2.0174,1.9493,1.9261,1.878,1.8293,1.8002,1.7861,1.7721,1.7721,1.7576,1.7485,1.7569,1.7325,0.0,1.687,1.6655,1.6364,1.6364,1.6364,1.6374,1.6374,1.6623,1.6872,1.6872,1.684,1.6947,1.699,1.6818,1.6646,1.6603,1.6366,1.6064,1.5839,1.5472,1.5438,1.5776,1.5776,1.5986,1.6402,1.6506,1.6471,1.648,1.601,1.5421,1.478,1.4276,1.3723,1.3138,1.3657,1.37,1.32,1.3297,1.3362,1.3303,1.3141,1.3153,1.311,1.2263,1.1865,0.0,0.0,0.0,0.0,0.0,0.0,0.0,0.0,0.0,0.0,0.0,1.538,1.6076,0.0,1.6903,1.7662,1.797,1.8089,1.8078,1.8282,1.8195,1.7744,1.8197,1.8686,1.903,1.9281,1.9569,2.0027,1.9874,1.9874,2.0331,2.0452,2.0726,2.1299,2.1391,2.1514,2.1671,2.1806,2.1862,2.1851,2.2199,2.2385,2.2412,2.2437,2.2685,2.285,2.2697,2.2461,2.24,2.2,2.1522,2.1152,2.1179,2.0485,1.9548,1.926,1.8888,1.8433,1.8153,1.8153,1.8153,1.8153,1.8068,1.793,1.7981,1.7744,1.7496,1.726,1.6968,1.6753,1.6753,1.6753,1.6753,1.6494,1.6753,1.7001,1.7001,1.713,1.7271,1.7518,1.7202,1.6866,1.6757,1.6538,1.6298,1.6057,1.5817,1.5781,1.6121,1.6238,1.6471,1.6821,1.6937,1.6994,1.6863,1.6375,1.579,1.5176,1.4815,1.4458,1.3903,1.416,1.4134,1.3674,1.3811,1.3771,1.3653,1.3666,1.3572,1.3571,1.3143,1.2822,0.0,0.0,0.0,0.0,0.0,0.0,0.0,0.0,1.5345,1.6459,1.6764,1.7092,1.8239,1.7884,1.7861,1.9084,1.8633,1.8293,1.8617,1.8606,1.8358,1.7887,1.8307,1.8801,1.9234,1.9595,2.0003,2.0517,2.0517,2.0693,2.1198,2.11,2.1367,2.2027,2.2122,2.2248,2.2406,2.2613,2.2613,2.2395,2.2513,2.2697,2.265,2.2745,2.2923,2.3128,2.3176,2.2985,2.2555,2.2354,2.194,2.1261,2.1352,2.0764,1.9648,1.9459,1.9052,1.8573,1.8573,1.8573,1.8563,1.8519,1.8508,1.8315,1.8035,1.7809,1.7604,1.7367,1.7163,1.7001,1.7001,1.7001,1.7001,1.6753,1.6882,1.7001,1.713,1.74,1.7658,1.7905,1.7618,1.7256,1.6976,1.6764,1.6475,1.6386,1.6209,1.6312,1.6537,1.6785,1.702,1.7138,1.7373,1.737,1.7117,1.6694,1.621,1.5731,1.5518,1.5188,1.4619,1.4605,1.4384,1.4012,1.4199,1.4201,1.389,1.4137,1.4147,1.3821,1.3778,1.3407,1.282,1.3532,1.4505,1.626,1.6113,1.6327,0.0,0.0,1.8285,1.9714,1.9594,1.939,1.9438,1.9464,1.9426,1.9435,1.8987,1.8855,1.9162,1.9127,1.8982,1.8809,1.8986,1.9474,2.068,2.0609,2.0883,2.1872,2.159,2.1682,2.221,2.2119,2.2268,2.2618,2.2544,2.2682,2.3003,2.3187,2.3187,2.3164,2.3448,2.3476,2.3248,2.3381,2.3381,2.3418,2.3659,2.3478,2.3043,2.3007,2.2246,2.1284,2.1249,2.0665,1.9952,2.0005,1.9738,1.939,1.9401,1.9401,1.9367,1.8738,1.8534,1.8446,1.7727,1.7443,1.7367,1.712,1.7023,1.7001,1.7001,1.7001,1.7001,1.7271,1.7141,1.713,1.7776,1.7658,1.7658,1.7905,1.8011,1.7712,1.7382,1.728,1.6986,1.6187,1.6335,1.6537,1.6903,1.702,1.7138,1.7373,1.7479,1.737,1.7117,1.7032,1.6887,1.6622,1.6585,1.622,1.574,1.5764,1.5321,1.4522,1.4578,1.4385,1.4159,1.4385,1.4492,1.4382,1.4193,1.3637,1.5555,1.632,0.0,0.0,1.8644,1.9244,2.0281,2.0286,2.019,2.0769,2.0672,2.049,2.0272,2.0116,2.0127,0.0,2.0002,1.9603,1.9594,1.9469,1.9401,1.9552,1.9464,1.9636,2.0569,2.0728,2.1012,2.1719,2.1716,2.1912,2.2635,2.2595,2.2952,2.3579,2.3537,2.3584,2.3746,2.3746,2.3675,2.352,2.3524,2.3635,2.3671,2.3357,2.3297,2.3454,2.3721,2.3551,2.3031,2.3181,2.2676,2.1917,2.1606,2.1209,2.0697,2.0156,1.9818,1.9541,1.9541,1.9401,1.9251,1.9149,1.8876,1.8561,1.8351,1.815,1.7982,1.7725,1.7518,1.7518,1.74,1.7271,1.7271,1.7271,1.713,1.713,1.7905,1.7905,1.7916,1.8559,1.8186,1.7781,1.7584,1.7422,1.7202,1.6724,1.6667,1.6785,1.702,1.7138,1.7373,1.7479,1.7346,1.7274,1.7322,1.6899,1.6718,1.6911,1.6634,1.6477,1.6426,1.605,1.5701,1.5367,1.4894,1.4504,1.4396,1.4397,1.4406,1.4536,1.434,1.4127,1.7317,0.0,0.0,1.9458,2.0347,2.1102,2.0852,2.1183,2.1566,2.1522,2.1256,2.1072,2.1094,2.0804,2.063,2.1207,2.0677,2.0192,2.0037,1.9876,1.9935,2.0215,2.0017,2.004,2.0549,2.0854,2.1245,2.1719,2.1974,2.2408,2.3234,2.3246,2.3572,2.4441,2.4454,2.4454,2.4454,2.4454,2.4356,2.416,2.3977,2.3977,2.4148,2.3756,2.3695,2.3879,2.4037,2.3877,2.3593,2.3322,2.2965,2.225,2.1788,2.1378,2.1233,2.0462,1.9993,1.9959,1.9959,1.968,1.9529,1.96,1.9324,1.872,1.8744,1.854,1.8347,1.8086,1.8007,1.8007,1.7669,1.7658,1.7658,1.7529,1.7389,1.7518,1.8162,1.8173,1.8302,1.8944,1.8572,1.8013,1.8013,1.7741,1.7457,1.7399,1.7303,1.7268,1.7268,1.7608,1.7713,1.7608,1.7438,1.7365,1.737,1.6851,1.6658,1.696,1.6682,1.6561,1.6694,1.6363,1.6156,1.5963,1.5338,1.4909,1.4909,1.4669,1.4536,1.4755,1.4654,1.4645,1.728,0.0,1.9412,1.9705,2.0474,2.1296,2.1107,2.1522,2.2095,2.2341,2.1813,2.1514,2.2049,2.1519,2.1183,2.1989,2.1055,2.052,2.119,2.0791,2.0486,2.0486,2.0543,2.0883,0.0,2.1436,2.1656,2.2609,2.2899,2.3429,2.4455,2.448,2.4652,2.4983,2.5142,2.5142,2.5142,2.5142,2.5142,2.513,2.513,2.513,2.497,2.4639,2.4627,2.4958,2.4639,2.4477,2.4659,2.3915,2.3178,2.2434,2.1728,2.116,2.069,2.069,2.0678,2.0665,2.0665,2.0665,2.0491,1.9953,1.9586,1.913,1.8463,1.825,1.8195,1.7951,1.8147,1.8365,1.8102,1.8033,1.8033,1.8442,1.8302,1.8162,1.8944,1.8828,1.8699,1.9072,1.8855,1.8674,1.8674,1.8227,1.7997,1.8357,1.8133,1.7972,1.7972,1.8194,1.8311,1.7972,1.796,1.7732,1.7129,1.708,1.6972,1.673,1.6936,1.696,1.6706,1.6936,1.6834,1.6346,1.5985,1.5749,1.5749,1.5325,1.5221,1.5343,1.5243,1.5003,1.9813,0.0,2.1753,2.1716,2.268,2.3335,2.2637,2.3137,2.3507,2.2457,2.2177,2.1943,2.1518,2.1181,2.1181,2.1689,2.1618,2.1662,2.1726,2.1714,2.1728,2.1509,2.1672,0.0,0.0,0.0,0.0,2.2597,2.3206,2.3753,2.4467,2.4811,2.5059,2.5397,2.541,2.541,2.541,2.541,2.532,2.513,2.513,2.5028,2.485,2.4882,2.4869,2.4825,2.4803,2.4662,2.4379,2.4073,2.3416,2.2695,2.2276,2.1956,2.1598,2.1414,2.1368,2.1358,2.0804,2.0527,2.0376,2.0419,2.0,1.9574,1.9616,1.9346,1.9052,1.897,1.8948,1.8806,1.8466,1.8431,1.8442,1.8571,1.8442,1.8559,1.8944,1.8956,1.8944,1.9072,1.8867,1.8686,1.8686,1.8507,1.8567,1.8992,1.8606,1.8311,1.8311,1.8311,1.8428,1.8311,1.8089,1.7935,1.772,1.7317,1.7129,1.7213,1.7141,1.7129,1.7213,1.7141,1.7044,1.6846,1.6327,1.6009,1.5772,1.5637,1.5499,1.5243,1.5434,1.5438,2.1657,2.262,2.3197,2.3088,2.3891,2.4465,2.3259,2.3723,2.3691,2.2275,2.1894,2.1558,2.0873,2.0687,2.0873,2.1512,2.1993,2.2411,2.2668,2.2867,2.2905,2.294,2.2727,0.0,0.0,0.0,0.0,2.2912,2.3359,2.4053,2.4933,2.5289,2.5525,2.5866,2.5866,2.5918,2.6022,2.5931,2.5788,2.5607,2.5607,2.5503,2.5322,2.5358,2.5281,2.5153,2.5231,2.5088,2.4713,2.4501,2.3928,2.3277,2.2705,2.2431,2.2144,2.1715,2.1785,2.1899,2.1106,2.0665,2.0527,2.0665,2.0221,1.9734,2.0143,1.9965,1.9591,1.9495,1.948,1.9334,1.8852,1.8828,1.8828,1.8956,1.8956,1.9084,1.934,1.9328,1.9328,1.9328,1.8994,1.871,1.8933,1.9013,1.9127,1.9101,1.8894,1.8777,1.8777,1.8777,1.8661,1.8532,1.8428,1.8311,1.8194,1.7596,1.7395,1.7566,1.7304,1.7165,1.7334,1.7177,1.7141,1.7225,1.6732,1.6421,1.6389,1.6058,1.5862,1.571,1.5682,1.5631,2.2589,2.3133,2.3793,2.3832,2.4364,2.4452,2.3235,2.3249,2.2955,2.1655,2.0979,2.0501,0.0,0.0,2.0472,2.1641,2.2074,2.2683,2.399,2.4111,2.4049,0.0,0.0,0.0,0.0,0.0,0.0,2.3466,0.0,2.4377,2.5727,2.5924,2.6096,2.6413,2.6426,2.656,2.6841,2.656,2.64,2.6386,2.6386,2.6386,2.6386,2.607,2.5924,2.5999,2.5924,2.5713,2.5504,2.5019,2.454,2.4018,2.3012,2.2576,2.2561,2.187,2.1898,2.2116,2.1445,2.1207,2.1195,2.078,2.0335,1.9847,2.0119,2.0062,1.9796,1.9531,1.9719,1.9788,1.9273,1.9072,1.92,1.9584,1.9584,1.9711,2.0106,1.9839,1.9711,1.9571,1.912,1.8896,1.9497,1.961,1.9559,1.8972,1.9243,1.9372,1.9372,1.9372,1.9243,1.8997,1.8881,1.8765,1.8415,1.7943,1.7678,1.7678,1.7334,1.7117,1.7117,1.7117,1.7225,1.7479,1.6994,1.6878,1.7479,1.6549,1.6306,1.6656,1.5965,1.5708,2.4096,2.4881,2.5412,2.5168,2.5438,2.5347,2.3922,2.3587,2.3145,2.1437,2.0592,1.9663,0.0,0.0,0.0,2.0219,2.2116,0.0,2.4414,2.4939,0.0,0.0,0.0,2.5335,2.4985,2.4959,0.0,0.0,2.4984,2.5218,2.5727,2.66,2.704,2.72,2.774,2.8039,2.8122,2.7817,2.7396,2.6874,2.6874,2.6874,2.6874,2.6386,2.6504,2.6738,2.6202,2.5959,2.5935,2.5337,2.4621,2.4031,2.3671,2.3336,2.3028,2.2821,2.2806,2.2691,2.2199,2.1495,2.091,2.0773,2.0466,2.0246,2.0379,2.0327,2.0354,2.0278,1.9973,1.967,1.9468,1.9456,1.9584,1.9851,2.0094,2.0348,2.0475,2.0348,2.0221,1.9979,1.9789,1.9764,1.9658,1.9723,1.9559,1.9336,1.9359,1.9372,1.9372,1.9372,1.9372,1.9243,1.8997,1.8881,1.8765,1.8468,1.8081,1.7861,1.7861,1.7628,1.7382,1.7382,1.7418,1.7479,1.7301,1.7184,1.7138,1.7138,1.6868,1.6222,1.6279,1.6031,2.5518,2.6252,2.6782,2.6092,2.5977,2.5471,2.3797,2.309,2.2189,2.0094,1.922,0.0,1.695,0.0,0.0,0.0,0.0,0.0,2.5203,2.5814,2.6222,0.0,2.6664,0.0,2.6241,2.6215,2.6228,0.0,2.5714,2.5609,2.6056,2.6865,2.7278,2.7278,2.7762,2.7845,2.7845,2.7643,2.7464,2.7333,2.686,2.686,2.7175,2.686,2.6724,2.6918,0.0,2.6392,2.6004,2.5513,2.5053,2.4475,2.4048,2.3878,2.3813,2.3145,2.3153,2.322,2.2677,2.1991,2.123,2.122,2.1069,2.0831,2.0838,2.0742,2.0747,2.0631,2.0349,1.9966,1.9839,1.9839,1.9876,2.0259,2.0413,2.058,2.0954,2.0747,2.0503,2.0132,2.0234,2.0181,1.9723,1.9876,1.98,1.9452,1.9372,1.9372,1.9372,1.9372,1.9372,1.9372,1.9243,1.9127,1.9127,1.8765,1.8532,1.8428,1.8194,1.7972,1.7726,1.7499,1.737,1.7479,1.737,1.7253,1.7256,1.7256,1.7138,1.6667,1.6431,1.6194,2.679,2.7205,2.7509,2.6707,2.6146,2.5264,2.326,2.1899,2.0433,1.8242,0.0,1.6756,1.5388,1.7174,1.8902,1.9466,0.0,2.4422,2.599,2.664,2.7041,2.7629,2.7509,2.7362,2.7321,2.7321,2.7201,2.6907,2.6096,2.5885,2.6373,2.6901,2.7258,2.7299,2.7299,2.7286,2.7086,2.7173,2.7305,2.7633,2.7018,2.7018,2.7633,2.7175,2.7042,2.685,0.0,0.0,2.594,2.5838,2.5472,2.5051,2.4024,2.4037,2.4276,2.3195,2.3179,2.3567,2.3006,2.2496,2.1919,2.1868,2.1603,2.1322,2.1292,2.1163,2.0928,2.068,2.0615,2.0488,2.0234,2.0132,2.0208,2.0412,2.0643,2.0876,2.1306,2.0889,2.0515,2.0285,2.0488,2.042,1.9846,1.9998,2.004,1.9452,1.9372,1.9372,1.9372,1.9372,1.9372,1.9372,1.9372,1.9372,1.9372,1.9113,1.8997,1.8881,1.8428,1.8089,1.7972,1.7505,1.7249,1.7479,1.7261,1.7249,1.7479,1.7256,1.7138,1.7361,1.6549,1.6312,2.7843,2.7843,2.7602,2.7215,2.5985,2.4449,2.2859,2.0797,0.0,0.0,1.6109,1.5192,1.4414,1.641,1.8428,1.9166,2.1854,2.4404,2.6172,0.0,2.7041,0.0,0.0,0.0,0.0,0.0,0.0,0.0,0.0,0.0,2.6413,2.7409,2.8137,2.8726,2.8901,2.8613,2.7866,2.8545,2.8576,2.7633,2.7805,2.7805,2.7633,2.7476,2.7748,2.7933,0.0,0.0,2.6994,2.6214,2.5561,2.5051,2.4315,2.4088,2.3875,2.3333,2.3193,2.2966,2.2619,2.2458,2.2257,2.1671,2.1279,2.0993,2.0837,2.0847,2.1049,2.0996,2.0856,2.0615,2.0488,2.0657,2.0786,2.0605,2.1175,2.166,2.1221,2.1089,2.0922,2.0996,2.0982,2.0797,2.0212,2.0119,2.004,1.9452,1.9372,1.9372,1.9372,1.9372,1.9372,1.9372,1.9372,1.9372,1.9372,1.9359,1.9243,1.8881,1.8532,1.8194,1.7972,1.7677,1.7443,1.7479,1.7443,1.7443,1.7479,1.7479,1.7256,1.702,1.6903,1.6549,2.807,2.8043,2.7749,2.7001,2.5598,2.3821,2.1563,0.0,0.0,1.5738,1.4688,1.401,1.3575,1.5372,1.7171,1.7943,2.0066,2.2499,2.489,2.5504,0.0,0.0,0.0,0.0,0.0,0.0,0.0,0.0,0.0,0.0,2.6743,2.7629,2.8417,2.8733,2.8733,2.8503,2.8188,2.8332,2.8418,2.8261,2.8104,2.8118,2.8261,2.8118,2.8033,2.8017,0.0,0.0,2.7058,2.5996,2.552,2.5465,2.4444,2.3981,2.3915,2.3313,2.2993,2.2819,2.2525,2.2325,2.2138,2.1726,2.1503,2.1463,2.1173,2.1221,2.1309,2.1149,2.1102,2.1054,2.0895,2.108,2.1291,2.1045,2.1503,2.1793,2.1212,2.1208,2.1296,2.1136,2.1109,2.0975,2.0535,2.0334,2.0094,1.9653,1.9466,1.9426,1.9573,1.9466,1.9372,1.9372,1.9372,1.9372,1.9372,1.9506,1.9519,1.9127,1.9024,1.8685,1.8206,1.796,1.7726,1.7479,1.7479,1.7479,1.7479,1.7624,1.7493,1.7256,1.728,1.7031,2.819,2.815,2.7789,2.6747,2.5237,2.3273,2.0441,1.834,0.0,1.4429,1.349,1.3094,1.3215,1.4385,1.5859,0.0,1.8604,2.0641,2.3594,2.4476,2.5545,0.0,2.7963,0.0,0.0,0.0,0.0,0.0,0.0,0.0,2.7203,2.7805,2.8118,2.8289,2.8289,2.8289,2.8289,2.7961,2.8076,2.8628,2.8076,2.8232,2.8642,2.8559,2.8302,2.8043,0.0,0.0,0.0,2.5672,2.5373,2.573,2.4282,2.3901,2.4139,2.3166,2.2859,2.2806,2.2445,2.2178,2.1924,2.1577,2.1657,2.1844,2.155,2.1456,2.1416,2.1129,2.1323,2.1416,2.1115,2.1376,2.163,2.1516,2.1674,2.1634,2.1241,2.1368,2.139,2.1149,2.1109,2.1015,2.0722,2.0481,2.0214,1.9853,1.9653,1.9613,1.9773,1.9599,1.9479,1.9546,1.9439,1.9399,1.9452,1.9666,1.9733,1.9559,1.9457,1.9089,1.8647,1.8232,1.7843,1.7479,1.7479,1.7479,1.7479,1.7684,1.7684,1.7491,1.7458,1.7208,2.8337,2.8163,2.7589,2.6947,2.5077,2.2779,2.0347,0.0,1.5458,1.3917,1.3013,1.2647,1.3613,1.41,1.4998,1.7369,1.8605,2.0267,2.2993,2.4583,2.5999,2.7522,0.0,0.0,0.0,0.0,0.0,0.0,0.0,0.0,0.0,2.7633,2.7805,2.8289,2.8289,2.8289,2.8289,2.8588,2.8443,2.786,2.8443,2.8429,2.786,2.8613,2.8871,2.8812,0.0,0.0,0.0,2.5769,2.5373,2.573,2.4282,2.4052,2.4127,2.3225,2.2859,2.2779,2.2218,2.2004,2.1897,2.1336,2.1349,2.1537,2.1243,2.1149,2.1075,2.1057,2.108,2.1075,2.1057,2.1278,2.163,2.1911,2.1603,2.1283,2.151,2.1336,2.1149,2.1109,2.1109,2.1015,2.0722,2.0655,2.0441,1.988,2.0,2.0067,1.9826,1.9773,1.9867,2.012,1.9679,1.9479,1.9733,1.9786,1.9907,2.0134,1.9561,1.9311,1.9205,1.8462,1.7843,1.7479,1.7479,1.7479,1.7479,1.7503,1.7503,1.7479,1.7503,1.715,2.7468,2.7495,2.7028,2.6453,2.4663,2.2432,2.008,1.7649,1.5444,1.3904,1.2988,1.2692,1.3655,1.354,1.4022,1.6174,1.6457,1.7459,2.0508,2.175,2.3273,2.5825,2.6865,0.0,0.0,0.0,0.0,0.0,0.0,0.0,0.0,2.8261,2.8417,2.8588,2.8588,2.8588,2.8588,2.8886,2.8584,2.8125,2.8409,2.8293,2.7835,2.8118,2.8162,2.7827,0.0,0.0,0.0,2.5552,2.5226,2.5332,2.4485,2.4058,2.3985,2.33,2.2913,2.2539,2.2124,2.1871,2.1657,2.1243,2.1182,2.1239,2.1075,2.1109,2.1136,2.1129,2.1067,2.0978,2.0798,2.1031,2.1278,2.147,2.1416,2.1363,2.1296,2.1189,2.1109,2.1109,2.1109,2.1069,2.0962,2.0788,2.0601,2.0361,2.0281,2.0187,2.0067,1.9907,1.984,1.996,1.9613,1.9559,2.0013,2.0054,1.9986,1.9863,2.0013,1.9747,1.8979,1.845,1.7935,1.7467,1.7479,1.7563,1.7839,1.772,1.772,1.772,1.7482,1.7161,2.6319,2.6533,2.6213,2.5644,2.4142,2.2017,1.9628,1.7424,1.5483,1.3904,1.3014,1.2732,1.359,1.3256,1.341,1.5074,1.5239,1.6115,1.8951,2.0174,2.1884,2.4623,0.0,0.0,0.0,0.0,0.0,0.0,0.0,0.0,0.0,2.8744,2.8886,2.8886,2.8886,2.8886,2.8886,2.8744,2.854,2.83,2.8235,2.806,2.7653,2.7754,2.7647,0.0,0.0,0.0,0.0,2.5497,2.5226,2.5198,2.4461,2.4165,2.387,2.3434,2.2939,2.2378,2.2084,2.1857,2.163,2.1336,2.1186,2.1124,2.1173,2.1182,2.1115,2.1115,2.1004,2.0967,2.068,2.0759,2.0978,2.0909,2.1269,2.1363,2.1149,2.1109,2.1109,2.1109,2.1109,2.1109,2.1109,2.0935,2.0762,2.0655,2.0548,2.0414,2.0174,1.9973,1.9867,1.992,1.9586,1.9573,2.0067,2.0066,2.0037,1.9994,2.0143,2.0051,1.9344,1.8677,1.8133,1.7836,1.779,1.7768,1.7997,1.7962,1.795,1.7877,1.7517,1.7148,2.505,2.5317,2.494,2.4639,2.3245,2.1328,1.8933,1.7016,1.5418,1.3864,1.2933,1.2567,1.3393,1.3256,1.343,1.4504,1.5755,1.7177,1.8999,2.1047,2.2953,0.0,0.0,0.0,0.0,0.0,0.0,0.0,0.0,0.0,0.0,2.8744,2.8886,2.8886,2.8886,2.8886,2.8886,2.8431,2.8129,2.7964,2.7812,2.7488,2.6886,2.7201,0.0,0.0,0.0,0.0,0.0,2.5497,2.5226,2.5198,2.4461,2.4296,2.4268,2.3561,2.2939,2.2378,2.2084,2.1977,2.1937,2.1643,2.1476,2.145,2.145,2.1254,2.1032,2.1032,2.1032,2.0967,2.068,2.0856,2.0996,2.0729,2.0856,2.1109,2.1109,2.1109,2.1109,2.1109,2.1109,2.1109,2.1109,2.1109,2.0975,2.0588,2.0855,2.0815,2.004,1.9947,2.0013,2.0201,1.972,1.9492,1.9773,1.9839,2.013,2.0655,2.0185,1.9949,2.046,1.9284,1.8642,1.8646,1.8398,1.8143,1.7877,1.8155,1.8143,1.7877,1.7517,1.6908,2.1897,2.2432,2.2525,2.1779,2.0996,2.0,1.8034,1.664,1.5471,1.4202,1.3227,1.2862,1.3694,1.3151,1.329,1.5595,1.5981,1.6908,1.93,0.0,0.0,2.4142,0.0,0.0,0.0,0.0,0.0,0.0,0.0,0.0,0.0,0.0,2.8293,2.8417,2.8744,2.8744,2.8431,2.8289,2.8075,2.7812,2.7545,2.7424,2.7318,2.6891,0.0,0.0,0.0,0.0,0.0,2.5414,2.5103,2.4898,2.438,2.3901,2.3588,2.3354,2.3073,2.2686,2.2378,2.2285,2.2231,2.1937,2.178,2.1671,2.1542,2.1228,2.0993,2.0798,2.0746,2.0719,2.0628,2.0729,2.0729,2.0856,2.0982,2.1109,2.1109,2.0949,2.0869,2.1069,2.0949,2.0869,2.1082,2.1109,2.1069,2.0935,2.1029,2.0922,2.0414,2.0227,2.0013,1.9679,1.9479,1.9559,2.0054,1.9824,1.9885,2.0296,2.0611,2.0499,1.9949,1.9407,1.8885,1.8501,1.8215,1.8058,1.8155,1.8058,1.7841,1.7517,1.6982,1.6589,1.9559,2.0201,2.0321,1.9747,1.9309,1.8584,1.6935,1.5949,1.5097,1.4341,1.3439,1.2912,1.3666,1.3324,1.345,1.5349,1.5778,1.6746,0.0,0.0,0.0,0.0,0.0,0.0,0.0,0.0,0.0,0.0,0.0,0.0,0.0,0.0,2.7987,2.7917,2.8497,2.8569,2.8259,2.8061,2.7905,2.7784,2.7278,2.7022,2.7006,0.0,0.0,0.0,0.0,0.0,0.0,2.534,2.487,2.4453,2.4179,2.3754,2.3327,2.3327,2.3198,2.2944,2.2485,2.2553,2.2526,2.2205,2.2004,2.1802,2.1595,2.1305,2.0965,2.0781,2.0729,2.0729,2.0615,2.0729,2.0856,2.0856,2.0982,2.1082,2.085,2.0677,2.0735,2.0783,2.0677,2.0775,2.1056,2.1109,2.1109,2.1109,2.1109,2.0855,2.0174,1.9987,1.9773,1.9412,1.9372,1.9559,1.9787,1.9719,1.9715,2.0125,2.0283,2.0276,2.009,1.9412,1.9063,1.8679,1.8423,1.8215,1.83,1.801,1.7637,1.7155,1.677,1.638,0.0,1.8424,1.8287,1.8438,1.7978,1.7065,1.5921,1.4983,0.0,1.4348,1.3434,1.2845,1.3529,1.3756,1.3867,1.4227,1.5472,0.0,0.0,0.0,0.0,0.0,0.0,0.0,0.0,0.0,0.0,0.0,0.0,0.0,0.0,0.0,2.7589,2.7301,2.7908,2.8235,2.8278,2.7777,2.765,2.7871,2.7041,2.657,2.6439,0.0,0.0,0.0,0.0,0.0,0.0,2.518,2.4712,2.3741,2.3741,2.3554,2.33,2.33,2.3214,2.2996,2.258,2.2714,2.2996,2.258,2.2149,2.1802,2.1541,2.1331,2.1136,2.1109,2.1109,2.0982,2.0729,2.0856,2.0982,2.0729,2.0856,2.0916,2.0401,2.0447,2.0557,2.0335,2.0447,2.0762,2.1056,2.1109,2.1109,2.1109,2.1109,2.0722,1.9626,1.9412,1.9386,1.9426,1.9399,1.9376,1.9337,1.9363,1.9601,2.0119,1.9547,1.9575,2.0475,1.9571,1.9181,1.915,1.8763,1.8505,1.8263,1.7998,1.7505,1.6903,1.6674,1.6216,1.503,0.0,1.6046,1.5644,1.5524,1.5404,0.0,1.413,1.3911,1.4077,0.0,1.3263,1.4865,1.4304,1.4462,1.7029,0.0,0.0,0.0,0.0,0.0,0.0,0.0,0.0,0.0,0.0,0.0,0.0,0.0,0.0,0.0,0.0,2.7172,2.6972,2.7208,2.7316,2.7494,2.7114,2.6887,2.7125,2.6501,2.6544,2.705,0.0,0.0,0.0,0.0,0.0,2.518,2.4528,2.4113,2.3841,2.3561,2.3247,2.2966,2.2966,2.3023,2.2902,2.2766,2.2889,2.2902,2.2752,2.2458,2.1939,2.1872,2.1476,2.1018,2.1049,2.1109,2.1109,2.0982,2.0982,2.1109,2.0982,2.0982,2.1096,2.0903,2.0828,2.0624,2.0598,2.0526,2.0557,2.0524,2.0856,2.1109,2.1109,2.1109,2.1015,2.0735,1.992,1.9533,1.9987,1.9626,1.9573,1.9973,1.9516,1.9402,1.982,1.9588,1.9636,1.9826,1.9385,1.9025,1.8507,1.8167,1.7913,1.7623,1.7552,1.7276,1.6903,1.6616,1.6353,1.3771,1.4723,1.5551,1.5364,1.5337,1.5271,1.4963,1.4135,1.3561,1.4007,0.0,1.3396,1.4971,1.4865,1.5295,1.7502,1.8196,0.0,0.0,0.0,0.0,0.0,0.0,0.0,0.0,0.0,0.0,0.0,0.0,0.0,0.0,0.0,2.6618,2.6347,2.6214,2.629,2.6752,2.6446,2.6543,2.671,2.6226,2.6075,2.6486,0.0,0.0,0.0,0.0,0.0,2.435,2.4045,2.366,2.3376,2.3252,2.3006,2.2859,2.2859,2.2996,2.3119,2.2848,2.2579,2.2485,2.2619,2.2258,2.179,2.179,2.1447,2.1054,2.1149,2.1109,2.1109,2.1109,2.1109,2.1109,2.1109,2.1109,2.1069,2.0697,2.0664,2.0584,2.0315,2.042,2.0518,2.065,2.0982,2.1109,2.1109,2.1109,2.1109,2.1109,2.0241,1.9786,2.0187,1.972,1.9599,1.9945,1.9369,1.9191,1.973,1.95,1.9336,1.9212,1.9062,1.8741,1.8106,1.7829,1.7457,1.7232,1.7218,1.7035,1.6673,1.6431,1.6376,1.3585,1.4883,1.6032,1.6005,1.5912,1.5792,1.5658,1.4356,1.3507,1.4199,0.0,1.3641,1.4988,1.5622,0.0,0.0,0.0,0.0,0.0,0.0,0.0,0.0,0.0,0.0,0.0,0.0,0.0,0.0,0.0,0.0,0.0,0.0,0.0,2.5653,2.5373,2.5497,2.6043,2.591,2.5951,2.6182,2.5855,2.5677,2.565,2.5308,0.0,0.0,0.0,0.0,2.3453,2.3678,2.3363,2.2859,2.2859,2.2832,2.2792,2.2792,2.3038,2.3107,2.262,2.2231,2.2031,2.2325,2.2031,2.155,2.155,2.1349,2.1109,2.1109,2.1109,2.1109,2.1109,2.1109,2.1109,2.1109,2.1109,2.0916,2.0427,2.0624,2.0597,2.0133,2.0367,2.0597,2.0803,2.0729,2.0856,2.1109,2.1109,2.1109,2.1109,2.0454,2.0067,2.0281,1.9733,1.9482,1.9702,1.924,1.9056,1.9676,1.9211,1.8865,1.8716,1.8568,1.8324,1.7829,1.7577,1.7244,1.6903,1.6908,1.6673,1.6321,1.6387,1.6396,1.4175,1.5645,1.6607,1.515,1.5311,1.5631,1.4897,1.415,1.386,1.4679,1.4596,0.0,0.0,1.7536,0.0,0.0,0.0,0.0,0.0,0.0,0.0,0.0,0.0,0.0,0.0,0.0,0.0,0.0,0.0,0.0,0.0,0.0,0.0,2.5226,2.5226,2.5106,2.4851,2.5147,2.5402,2.559,2.5348,2.5377,2.5664,2.5089,2.4946,0.0,0.0,2.3954,2.3705,2.3309,2.3036,2.2859,2.2859,2.2712,2.2485,2.2485,2.2325,2.2284,2.2352,2.2231,2.2031,2.2325,2.2031,2.155,2.155,2.1349,2.1109,2.1109,2.1109,2.1109,2.1109,2.1109,2.1109,2.1109,2.1109,2.1096,2.0929,2.1042,2.0916,2.0524,2.0777,2.0663,1.9571,1.9456,1.9839,2.0982,2.1109,2.1109,2.1109,2.0575,2.0294,2.0575,1.9867,1.9599,2.0066,1.9361,1.886,1.9031,1.8691,1.8349,1.807,1.7974,1.7853,1.7551,1.7539,1.7174,1.6537,1.6788,1.6673,1.6078,1.649,1.6588,1.328,1.4856,1.6086,1.5591,1.6407,1.7357,1.7108,1.6117,1.5399,1.5912,0.0,0.0,0.0,0.0,0.0,0.0,0.0,0.0,0.0,0.0,0.0,0.0,0.0,0.0,0.0,0.0,0.0,0.0,0.0,0.0,0.0,0.0,0.0,0.0,2.5226,2.5011,2.4409,2.4543,2.4756,2.5037,2.4903,2.4985,2.512,2.4688,2.4535,2.4514,0.0,2.3498,2.3336,2.305,2.2859,2.2859,2.2859,2.2779,2.2645,2.2472,2.2138,2.1817,2.2258,2.2017,2.159,2.2044,2.179,2.1309,2.1309,2.1216,2.1109,2.1109,2.1109,2.1109,2.1109,2.1109,2.1109,2.1109,2.1109,2.1109,2.1109,2.1109,2.0982,2.0602,2.0856,2.0856,2.0348,1.9584,1.9456,2.0348,2.0602,2.0843,2.1109,2.0611,2.0275,2.0668,2.0053,1.9641,1.9734,1.915,1.8791,1.858,1.819,1.7865,1.7877,1.7732,1.7612,1.7491,1.7505,1.722,1.6743,1.7009,1.6819,1.6344,1.656,1.6551,1.2762,1.4108,1.5299,1.6259,1.7463,1.8441,1.9063,1.7974,1.695,0.0,0.0,0.0,0.0,0.0,0.0,0.0,0.0,0.0,0.0,0.0,0.0,0.0,0.0,0.0,0.0,0.0,0.0,0.0,0.0,0.0,0.0,0.0,0.0,0.0,2.5079,2.4796,2.4209,2.4209,2.4315,2.4529,2.4529,2.4529,2.4529,2.4302,2.4008,2.3647,2.342,2.3153,2.2859,2.2859,2.2859,2.2859,2.2859,2.2779,2.2619,2.2325,2.1884,2.1537,2.2111,2.179,2.1203,2.179,2.159,2.1109,2.1109,2.1109,2.1109,2.1109,2.1109,2.1109,2.1109,2.1109,2.1109,2.1109,2.1109,2.1096,2.1029,2.1002,2.0876,2.0498,2.055,2.0856,2.0982,2.0094,1.9456,1.9979,2.0221,2.0589,2.0982,2.0605,2.0433,2.0557,2.0047,1.9542,1.9189,1.8873,1.8601,1.8275,1.7841,1.7696,1.7962,1.772,1.7575,1.7575,1.7422,1.7276,1.6903,1.7043,1.7036,1.6667,1.6721,1.6583,1.3519,1.4111,1.4707,1.666,1.7001,1.7329,1.8829,1.8172,0.0,1.8981,0.0,0.0,0.0,0.0,0.0,0.0,0.0,0.0,0.0,0.0,0.0,0.0,0.0,0.0,0.0,0.0,0.0,0.0,0.0,0.0,0.0,0.0,0.0,0.0,0.0,2.4489,2.4209,2.4209,2.4209,2.4235,2.4235,2.4235,2.4235,2.4209,2.3888,2.3354,2.334,2.3153,2.2859,2.2859,2.2859,2.2859,2.2859,2.2525,2.2017,2.1724,2.1416,2.1229,2.1817,2.1617,2.1203,2.179,2.159,2.1109,2.1109,2.1109,2.1109,2.1109,2.1109,2.1109,2.1109,2.1109,2.1109,2.1109,2.1109,2.1042,2.0762,2.0708,2.0584,2.0335,2.0055,1.9966,2.0335,2.0221,1.9979,1.9851,2.0094,2.0462,2.0602,2.0605,2.0557,2.0309,1.9924,1.9498,1.8863,1.8505,1.8372,1.8275,1.801,1.7974,1.8251,1.7998,1.7841,1.7841,1.7505,1.7276,1.6903,1.7055,1.6921,1.6667,1.6636,1.6483,1.2451,1.3535,1.467,1.6229,1.6935,1.7666,0.0,1.9555,1.9636,2.0958,2.1266,0.0,0.0,0.0,0.0,0.0,0.0,0.0,0.0,0.0,0.0,0.0,0.0,0.0,0.0,0.0,0.0,0.0,0.0,0.0,0.0,0.0,0.0,0.0,0.0,2.4512,2.3941,2.3754,2.3661,2.3661,2.3848,2.4035,2.4195,2.4022,2.3714,2.3327,2.3327,2.3153,2.2859,2.2859,2.2859,2.2846,2.2659,2.2338,2.1951,2.1657,2.1363,2.1162,2.1577,2.1456,2.1176,2.1577,2.1443,2.1109,2.1109,2.1109,2.1109,2.1109,2.1109,2.1109,2.1109,2.1109,2.1109,2.1109,2.1109,2.1082,2.0962,2.0949,2.0823,2.0446,2.0537,2.0615,2.0374,2.0361,2.0221,1.9839,2.0094,2.0348,2.0602,2.0384,2.038,2.0447,1.9924,1.9331,1.9001,1.8655,1.8374,1.8517,1.8287,1.8106,1.8034,1.7696,1.7565,1.728,1.7358,1.7154,1.6898,1.7152,1.7139,1.6872,1.684,1.6753,1.2039,1.3252,1.4523,1.5931,1.675,1.7732,1.9599,2.032,2.0933,2.2266,2.2549,0.0,0.0,0.0,0.0,0.0,0.0,0.0,0.0,0.0,0.0,0.0,0.0,0.0,0.0,0.0,0.0,0.0,0.0,0.0,0.0,0.0,0.0,0.0,0.0,0.0,2.3634,2.3434,2.3187,2.3174,2.3434,2.3634,2.3928,2.3915,2.3701,2.3327,2.342,2.33,2.3006,2.2762,2.2669,2.2563,2.2498,2.2178,2.1817,2.163,2.1363,2.1149,2.1443,2.1363,2.1162,2.1456,2.1349,2.1109,2.1109,2.1109,2.1109,2.1109,2.1109,2.1109,2.1109,2.1109,2.1109,2.1109,2.1109,2.1082,2.0989,2.0975,2.085,2.0598,2.0598,2.0637,2.0361,2.0234,2.0221,1.9826,1.9966,2.0106,2.0221,2.0234,2.0157,2.0467,1.9683,1.9125,1.9274,1.8741,1.8408,1.8674,1.8432,1.8239,1.8009,1.7682,1.7443,1.7148,1.712,1.7044,1.6797,1.7092,1.7118,1.6786,1.6808,1.6679,1.2778,1.3379,1.4217,1.6175,1.6655,1.7402,1.9776,2.0454,2.1162,2.2955,0.0,0.0,0.0,0.0,0.0,0.0,0.0,0.0,0.0,0.0,0.0,0.0,0.0,0.0,0.0,0.0,0.0,0.0,0.0,0.0,0.0,0.0,0.0,0.0,0.0,0.0,2.3327,2.3313,2.3174,2.2728,2.2855,2.302,2.334,2.3928,2.3875,2.334,2.3634,2.3594,2.33,2.2566,2.2141,2.188,2.2284,2.2058,2.155,2.155,2.1363,2.1149,2.1443,2.1363,2.1162,2.1456,2.1349,2.1109,2.1109,2.1109,2.1109,2.1109,2.1109,2.1109,2.1109,2.1109,2.1109,2.1109,2.1109,2.1029,2.0735,2.0681,2.0557,2.0309,1.9949,1.9788,2.0055,1.9839,1.9584,1.9571,1.9839,1.9979,1.9711,1.9839,2.0106,2.0106,1.9222,1.8921,1.9559,1.8839,1.8408,1.8674,1.8432,1.8273,1.8148,1.7913,1.7661,1.7291,1.692,1.6797,1.6797,1.6664,1.6549,1.6334,1.6413,1.6253,1.2104,1.3324,0.0,1.6056,1.7444,0.0,0.0,2.0921,0.0,0.0,2.4195,0.0,0.0,0.0,0.0,0.0,0.0,0.0,0.0,0.0,0.0,0.0,0.0,0.0,0.0,0.0,0.0,0.0,0.0,0.0,0.0,0.0,0.0,0.0,0.0,0.0,2.273,2.2382,2.2141,2.1868,2.179,2.2271,2.2894,2.336,2.338,2.302,2.3034,2.2854,2.2566,2.1855,2.1565,2.1584,2.1185,2.0928,2.0877,2.0939,2.0808,2.0742,2.1089,2.1189,2.1122,2.1216,2.1176,2.1109,2.1109,2.1109,2.1109,2.1109,2.1109,2.1109,2.1109,2.1109,2.1109,2.1109,2.1109,2.1082,2.1002,2.0975,2.0989,2.0863,2.0737,2.0511,1.9941,2.0094,2.0094,1.9328,1.9711,2.0106,1.9979,1.9979,2.0106,2.0106,1.9636,1.937,1.9571,1.901,1.8601,1.8674,1.8251,1.8034,1.7985,1.7427,1.7058,1.6766,1.6453,1.6298,1.6298,1.6588,1.6624,1.6571,1.6744,1.6808,1.2609,1.4161,0.0,1.7055,1.8398,1.9698,2.0934,0.0,0.0,0.0,0.0,0.0,0.0,0.0,0.0,0.0,0.0,0.0,0.0,0.0,0.0,0.0,0.0,0.0,0.0,0.0,0.0,0.0,0.0,0.0,0.0,0.0,0.0,0.0,0.0,0.0,2.2154,2.1971,2.1623,2.1217,2.1353,2.1718,2.2153,2.2701,2.2789,2.2618,2.2406,2.2203,2.1872,2.1353,2.1187,2.1015,2.0691,2.045,2.0335,2.0553,2.0602,2.0602,2.0982,2.1109,2.1109,2.1109,2.1109,2.1109,2.1109,2.1109,2.1109,2.1109,2.1109,2.1109,2.1109,2.1109,2.1109,2.1109,2.1109,2.1109,2.1109,2.0982,2.0982,2.1109,2.0856,2.0602,2.0335,2.0348,2.0234,1.9596,1.9596,1.9724,1.9724,1.9724,1.9851,2.0106,1.9738,1.941,1.9663,1.8951,1.8495,1.836,1.7962,1.772,1.772,1.7338,1.6954,1.6686,1.6353,1.6189,1.6189,1.636,1.6377,1.6387,1.6721,1.669,1.3791,1.5181,0.0,1.8594,1.9206,0.0,0.0,0.0,0.0,0.0,0.0,0.0,0.0,0.0,0.0,0.0,0.0,0.0,0.0,0.0,0.0,0.0,0.0,0.0,0.0,0.0,0.0,0.0,0.0,0.0,0.0,0.0,0.0,0.0,0.0,0.0,2.1719,2.1719,2.1449,0.0,2.1044,2.1207,2.122,2.1887,2.2141,2.2128,2.1874,2.1484,2.117,2.104,2.068,2.0377,2.0341,2.0194,2.0106,2.0361,2.0615,2.0615,2.0982,2.1109,2.1109,2.1109,2.1109,2.1109,2.1109,2.1109,2.1109,2.1109,2.1109,2.1109,2.1109,2.1109,2.1109,2.1109,2.1109,2.1109,2.1109,2.0856,2.0729,2.0982,2.0615,2.0361,2.0856,2.0488,2.0106,2.0106,1.9468,1.9072,1.92,1.9072,1.934,1.9979,1.9487,1.9187,1.9674,1.8825,1.8274,1.7877,1.7624,1.7479,1.7479,1.7363,1.7241,1.688,1.6518,1.642,1.6442,1.6067,1.5957,1.5989,1.6452,1.6276,1.2954,1.4337,0.0,0.0,1.9638,2.0992,0.0,0.0,0.0,0.0,0.0,0.0,0.0,0.0,0.0,0.0,0.0,0.0,0.0,0.0,0.0,0.0,0.0,0.0,0.0,0.0,0.0,0.0,0.0,0.0,0.0,0.0,0.0,0.0,0.0,2.1927,2.0768,2.0755,2.0501,0.0,2.0233,2.049,2.0804,2.1559,2.171,2.1433,2.137,2.1081,2.0768,2.0368,2.0148,1.9966,1.9609,1.9389,1.9328,1.9979,2.0234,2.0234,2.0856,2.1109,2.1109,2.1109,2.1109,2.1109,2.1109,2.1109,2.1109,2.1109,2.1109,2.1109,2.1109,2.1109,2.0982,2.0729,2.0856,2.1109,2.1109,2.0982,2.0982,2.0729,2.0475,2.0208,1.9966,1.9839,1.9711,1.9711,1.9328,1.92,1.9456,1.92,1.92,1.9711,1.9407,1.9157,1.9312,1.8754,1.8228,1.7889,1.7624,1.7479,1.7479,1.7185,1.7103,1.6984,1.6391,1.6253,1.6442,1.6067,1.5921,1.5866,1.6139,1.6024,1.249,0.0,0.0,1.8263,0.0,2.1187,2.2001,0.0,0.0,0.0,0.0,0.0,0.0,0.0,0.0,0.0,0.0,0.0,0.0,0.0,0.0,0.0,0.0,0.0,0.0,0.0,0.0,0.0,0.0,0.0,0.0,0.0,0.0,0.0,2.2102,2.1559,2.0203,2.0203,2.0145,1.9881,1.9881,2.0098,2.0484,2.102,2.1145,2.0747,2.0612,2.0427,2.0255,1.9724,1.9567,1.9639,1.9229,1.9072,1.92,1.9711,1.9979,2.0234,2.0729,2.0982,2.1109,2.1109,2.1109,2.1109,2.1109,2.1109,2.1109,2.1109,2.1109,2.1109,2.1109,2.1109,2.0982,2.0729,2.0729,2.0729,2.0856,2.0729,2.0602,2.0602,2.0348,2.0221,1.9839,1.9711,1.9571,1.9328,1.92,1.92,1.9328,1.9328,1.9456,1.9584,1.9472,1.9286,1.9013,1.8619,1.8106,1.7708,1.7563,1.7479,1.7256,1.7138,1.702,1.702,1.6442,1.6142,1.6275,1.5905,1.5846,1.6064,1.593,1.5856,1.1836,1.3857,1.6163,1.8638,1.9905,0.0,2.1634,2.2192,0.0,0.0,0.0,0.0,0.0,0.0,0.0,0.0,0.0,0.0,0.0,0.0,0.0,0.0,0.0,0.0,0.0,0.0,0.0,0.0,0.0,0.0,0.0,0.0,2.2149,2.1745,2.1745,2.1232,1.9924,2.0005,1.9842,1.982,1.9905,2.0062,2.0279,2.0496,2.046,2.0195,1.9977,1.9881,1.9845,1.935,1.9265,1.9434,1.9181,1.9072,1.92,1.9456,1.9839,2.0106,2.0488,2.0856,2.1109,2.1109,2.1109,2.1109,2.1109,2.1109,2.1109,2.1109,2.1109,2.1109,2.1109,2.1109,2.0982,2.0615,2.0475,2.0462,2.0475,2.0361,2.0106,2.0348,2.0106,1.9979,1.9979,1.9711,1.9456,1.92,1.9072,1.9072,1.9072,1.9328,1.9444,1.9444,1.9512,1.9399,1.8865,1.8642,1.8249,1.7575,1.7551,1.7409,1.7138,1.702,1.6903,1.6903,1.6431,1.6131,1.6209,1.5796,1.5903,1.6252,1.5867,1.57,1.0196,1.31,1.626,0.0,1.9229,2.0136,0.0,0.0,0.0,0.0,0.0,0.0,0.0,0.0,0.0,0.0,0.0,0.0,0.0,0.0,0.0,0.0,0.0,0.0,0.0,0.0,0.0,0.0,0.0,0.0,0.0,2.2151,2.2149,2.134,2.1488,2.0931,1.9966,1.9723,1.9613,1.9531,2.0002,2.0107,1.9858,1.9894,1.9911,1.9941,1.9905,1.9881,1.9857,1.9543,1.9434,1.9434,1.9181,1.9072,1.92,1.9456,1.9839,2.0106,2.0488,2.0856,2.1109,2.1109,2.1109,2.1109,2.1109,2.1109,2.1109,2.1109,2.1109,2.1109,2.1109,2.1109,2.0982,2.0361,2.0348,2.0475,2.0234,2.0106,1.9979,1.9839,1.9456,1.92,1.92,1.92,1.92,1.9072,1.9072,1.9072,1.9072,1.92,1.92,1.92,1.9176,1.9042,1.8775,1.8726,1.8483,1.7853,1.7817,1.772,1.7491,1.6891,1.6537,1.6537,1.6312,1.6286,1.6697,1.6243,1.5905,1.5737,1.5727,1.5256,1.0802,1.3076,1.527,0.0,1.842,1.9237,2.0067,0.0,0.0,0.0,0.0,0.0,0.0,0.0,0.0,0.0,0.0,0.0,0.0,0.0,0.0,0.0,0.0,0.0,0.0,0.0,0.0,0.0,0.0,0.0,2.1563,2.179,2.174,2.1111,2.0971,2.0567,1.9652,1.9386,1.9326,1.947,1.9579,1.9433,1.9287,1.9146,1.9232,1.9387,1.9387,1.9448,1.9422,1.9301,1.9253,1.9229,1.912,1.8956,1.8828,1.92,1.9584,1.9839,2.0234,2.0615,2.1109,2.1109,2.1109,2.1109,2.1109,2.1109,2.1109,2.0856,2.0982,2.0982,2.0716,2.0856,2.0996,2.0768,2.0501,2.0234,1.9839,1.9979,1.9979,1.9711,1.9328,1.9072,1.9072,1.9072,1.9072,1.9072,1.9072,1.9072,1.9072,1.92,1.9328,1.9072,1.9328,1.9218,1.871,1.8686,1.8456,1.7913,1.7877,1.7756,1.7268,1.6903,1.6655,1.6537,1.6209,1.6079,1.6145,1.6056,1.5932,1.5887,1.5649,1.5286,1.0803,1.2288,1.3652,1.5994,1.7177,1.8106,0.0,0.0,0.0,0.0,0.0,0.0,0.0,0.0,0.0,0.0,0.0,0.0,0.0,0.0,0.0,0.0,0.0,0.0,0.0,0.0,0.0,0.0,0.0,0.0,2.1443,2.151,2.1397,2.0819,2.0628,2.0123,1.947,1.9205,1.9205,1.934,1.9078,1.8959,1.8684,1.8487,1.8476,1.8592,1.8853,1.8877,1.8816,1.8944,1.8944,1.8956,1.9072,1.8956,1.8699,1.8956,1.9328,1.9584,1.9839,2.0348,2.0856,2.0856,2.0856,2.0982,2.0982,2.0982,2.1109,2.0856,2.0856,2.0982,2.0462,2.0716,2.0856,2.0768,2.0501,2.0106,1.9584,1.9711,1.9724,1.9584,1.9328,1.9072,1.9072,1.9072,1.9072,1.9072,1.9072,1.9072,1.9072,1.9328,1.9328,1.9072,1.9267,1.9169,1.8794,1.8662,1.8444,1.8094,1.795,1.7673,1.7245,1.7126,1.6961,1.6537,1.6244,1.6046,1.5807,1.5981,1.5978,1.5921,1.5617,1.535,0.8964,1.0227,1.1407,1.3556,1.5246,1.6709,0.0,0.0,0.0,0.0,0.0,0.0,0.0,0.0,0.0,0.0,0.0,0.0,0.0,0.0,0.0,0.0,0.0,0.0,0.0,0.0,0.0,0.0,0.0,0.0,2.1149,2.1403,2.1305,2.0539,2.0526,2.0123,1.947,1.9205,1.9088,1.909,1.8959,1.8684,1.8027,1.7884,1.7762,1.768,1.8337,1.8442,1.8033,1.8442,1.8571,1.8699,1.8956,1.9072,1.9072,1.9072,1.9328,1.9571,1.9584,1.9839,2.0106,2.0106,2.0361,2.0615,2.0615,2.0856,2.1109,2.1109,2.1109,2.0982,2.0462,2.0462,2.0335,1.9839,2.0094,2.0348,1.9328,1.9072,1.92,1.9072,1.9072,1.9072,1.9072,1.9072,1.9072,1.9072,1.9072,1.9072,1.9072,1.9072,1.9072,1.9072,1.8855,1.8807,1.9036,1.8601,1.8408,1.8625,1.8155,1.7865,1.7853,1.7505,1.7148,1.6537,1.6652,1.6664,1.642,1.6067,1.5942,1.5794,1.5635,1.5453,0.8263,0.915,1.0208,1.2006,1.3718,1.5159,1.615,0.0,0.0,0.0,0.0,0.0,0.0,0.0,0.0,0.0,0.0,0.0,0.0,0.0,0.0,0.0,0.0,0.0,0.0,0.0,0.0,0.0,0.0,0.0,2.1122,2.1203,2.1107,2.0513,2.0348,1.9873,1.8971,1.8606,1.8337,1.8312,1.8182,1.7922,1.7662,1.7662,1.7477,1.7271,1.7658,1.7916,1.8033,1.8173,1.8173,1.8173,1.8302,1.8302,1.8173,1.8571,1.8828,1.9072,1.9456,1.9839,2.0106,2.0106,2.0234,2.0234,2.0234,2.0488,2.0628,2.0348,2.0615,2.1009,2.0322,2.0335,2.0348,1.9699,1.9826,1.9839,1.92,1.9072,1.9072,1.9072,1.9072,1.9072,1.9072,1.9072,1.9072,1.9072,1.9072,1.9072,1.9072,1.9072,1.9072,1.9072,1.8988,1.8976,1.9072,1.8903,1.8632,1.8423,1.8244,1.7942,1.7532,1.7248,1.6989,1.6777,1.644,1.6177,1.585,1.5991,1.5793,1.5366,1.5571,1.5391,0.7548,0.8172,0.9162,1.0961,1.211,1.3272,1.4933,0.0,0.0,0.0,0.0,0.0,0.0,0.0,0.0,0.0,0.0,0.0,0.0,0.0,0.0,0.0,0.0,0.0,0.0,0.0,0.0,0.0,0.0,0.0,2.069,2.0565,2.032,1.9977,1.946,1.8903,1.8431,1.8001,1.7746,1.7776,1.7569,1.7323,1.7271,1.7271,1.7271,1.7001,1.7271,1.7529,1.7647,1.7686,1.778,1.7769,1.7816,1.7667,1.7539,1.7932,1.8186,1.8439,1.8807,1.9247,1.9586,1.9586,1.9776,1.9979,1.9979,2.0246,2.0387,1.9966,2.0297,2.0611,1.9928,2.0067,2.0219,1.9701,1.9574,1.9472,1.9304,1.92,1.9072,1.9072,1.9072,1.9072,1.9072,1.9072,1.9072,1.9072,1.9072,1.9072,1.9072,1.92,1.9328,1.9328,1.9242,1.923,1.9316,1.9042,1.8644,1.8423,1.8256,1.7831,1.7299,1.7207,1.6994,1.6793,1.6563,1.6288,1.5838,1.5914,1.5782,1.5476,1.565,1.5402,0.0,0.0,0.0,1.0103,1.0454,0.0,1.3985,0.0,0.0,0.0,0.0,0.0,0.0,0.0,0.0,0.0,0.0,0.0,0.0,0.0,0.0,0.0,0.0,0.0,0.0,0.0,0.0,0.0,0.0,1.9768,1.9768,1.9389,1.9136,1.8662,1.7801,1.7531,1.8022,1.7554,1.7314,1.7529,1.7285,1.7169,1.7001,1.7001,1.7001,1.7001,1.7001,1.7001,1.699,1.7125,1.7152,1.713,1.727,1.7302,1.7302,1.7302,1.7549,1.7784,1.7784,1.8208,1.8674,1.8686,1.9108,1.9571,1.9724,1.9992,2.0259,2.0106,2.0155,2.0047,1.9387,1.9412,1.9699,1.9699,1.9437,1.9261,1.9522,1.9328,1.9072,1.9072,1.9072,1.9072,1.906,1.906,1.906,1.906,1.906,1.906,1.9072,1.9328,1.9584,1.9584,1.9348,1.9299,1.9559,1.8851,1.8432,1.8674,1.8203,1.7793,1.7443,1.7666,1.7311,1.6464,1.6908,1.6915,1.6323,1.6075,1.6075,1.6312,1.5961,1.5435,0.7102,0.0,0.0,0.0,0.0,0.0,1.1213,1.2131,1.3304,0.0,0.0,0.0,0.0,0.0,0.0,0.0,0.0,0.0,0.0,0.0,0.0,0.0,0.0,0.0,0.0,0.0,0.0,0.0,1.973,1.9594,1.9157,1.8521,1.8189,1.8013,1.7325,1.7077,1.7379,1.7003,1.6965,1.713,1.7065,1.7065,1.7001,1.7001,1.7001,1.7001,1.7001,1.7001,1.698,1.6881,1.6783,1.6762,1.6659,1.656,1.656,1.6808,1.7179,1.7426,1.7661,1.8089,1.8432,1.8625,1.8722,1.8819,1.9139,1.934,1.9468,1.9431,1.9625,1.9897,1.9678,1.9658,1.9687,1.93,1.9197,1.9115,1.9188,1.92,1.9072,1.9072,1.9072,1.9012,1.8819,1.8794,1.8794,1.8794,1.8794,1.8855,1.9048,1.92,1.92,1.92,1.9139,1.9115,1.92,1.9066,1.8764,1.8593,1.8451,1.8116,1.7483,1.7371,1.7155,1.6588,1.6556,1.6588,1.6571,1.6323,1.606,1.5648,1.5047,1.4827,0.7758,0.7721,0.7967,0.8318,0.0,0.0,1.0019,1.0786,1.1595,0.0,0.0,0.0,0.0,0.0,0.0,0.0,0.0,0.0,0.0,0.0,0.0,0.0,0.0,0.0,0.0,0.0,0.0,1.8936,1.8943,1.8726,1.8082,1.7588,1.7318,1.7403,1.6719,1.6506,1.7052,1.6631,1.6581,1.7001,1.6904,1.6915,1.7001,1.6882,1.6753,1.6753,1.6613,1.6623,1.6721,1.6392,1.6391,1.6484,1.6151,1.6021,1.6011,1.6254,1.6619,1.6983,1.7225,1.7659,1.8143,1.83,1.842,1.8553,1.8836,1.8957,1.9042,1.8879,1.9074,1.9322,1.9274,1.9415,1.941,1.9137,1.9173,1.9193,1.9048,1.8988,1.8951,1.9048,1.9072,1.9024,1.8879,1.8843,1.8843,1.8843,1.8843,1.8903,1.906,1.92,1.9328,1.9328,1.9328,1.9328,1.9328,1.906,1.8756,1.8406,1.8233,1.7931,1.7229,1.7185,1.7036,1.6667,1.6624,1.6667,1.6807,1.6538,1.6295,1.6076,1.5666,1.5209,0.8703,0.8446,0.8531,0.0,0.0,0.0,0.9837,1.0068,1.0221,0.0,0.0,0.0,0.0,0.0,0.0,0.0,0.0,0.0,0.0,0.0,0.0,0.0,0.0,0.0,0.0,1.8979,1.8854,1.8351,1.8015,1.7572,1.6985,1.6644,1.6504,1.6697,1.5937,1.6011,1.6883,1.6258,1.6291,1.6969,1.6732,1.6743,1.6969,1.6689,1.6421,1.6421,1.6162,1.6162,1.6389,1.5951,1.6032,1.6269,1.5785,1.5601,1.5601,1.5601,1.5946,1.6419,1.6419,1.7043,1.7841,1.7865,1.8046,1.8398,1.8422,1.8729,1.8912,1.8601,1.8556,1.8691,1.874,1.9038,1.9233,1.9075,1.9175,1.916,1.9152,1.8891,1.8794,1.9024,1.9072,1.906,1.9036,1.9036,1.9036,1.9036,1.9036,1.9048,1.9072,1.9328,1.9571,1.9571,1.9571,1.9571,1.9571,1.9048,1.8557,1.8218,1.7873,1.7412,1.6897,1.7096,1.6954,1.67,1.6904,1.7001,1.7001,1.6721,1.6732,1.7001,1.6872,1.6094,0.0,0.0,0.0,0.0,0.0,0.0,0.8515,0.8872,0.9407,0.0,0.0,0.0,0.0,0.0,0.0,0.0,0.0,0.0,0.0,0.0,0.0,0.0,0.0,0.0,0.0,1.7383,1.7371,1.7102,1.693,1.6807,1.6691,1.6317,1.625,1.622,1.5774,1.5774,1.6151,1.6021,1.6215,1.6721,1.6495,1.6506,1.6721,1.6412,1.6327,1.6327,1.6327,1.6327,1.6305,1.6017,1.6129,1.6269,1.5785,1.5601,1.5601,1.5601,1.5839,1.6194,1.629,1.6442,1.6877,1.7422,1.7661,1.778,1.8227,1.8324,1.8189,1.8349,1.852,1.8654,1.8513,1.8797,1.9051,1.8877,1.8937,1.9139,1.906,1.9036,1.9012,1.906,1.9072,1.9,1.8404,1.8632,1.8632,1.8368,1.8632,1.8843,1.9048,1.92,1.92,1.92,1.92,1.92,1.92,1.9072,1.892,1.85,1.8407,1.8127,1.7396,1.744,1.7334,1.6937,1.698,1.7001,1.7001,1.6947,1.6947,1.7001,1.5834,1.5192,0.0,0.0,0.0,1.0195,0.0,0.0,0.0,0.8665,0.8845,0.9568,0.0,0.0,0.0,0.0,0.0,0.0,0.0,0.0,0.0,0.0,0.0,0.0,0.0,0.0,0.0,1.6759,1.6918,1.6706,1.647,1.6238,1.6379,1.6053,1.6009,1.6014,1.5785,1.5774,1.6129,1.6011,1.6129,1.6484,1.6366,1.6377,1.6484,1.6241,1.6064,1.6064,1.5805,1.5929,1.6043,1.5809,1.5899,1.6097,1.5741,1.5601,1.5601,1.5601,1.5839,1.6205,1.6183,1.6301,1.656,1.7031,1.7197,1.7244,1.7733,1.7974,1.7925,1.8154,1.8215,1.8252,1.822,1.8335,1.8521,1.8521,1.8714,1.8879,1.8879,1.8988,1.9072,1.9072,1.9072,1.9036,1.8637,1.8752,1.8879,1.8613,1.8752,1.8927,1.906,1.9072,1.9072,1.9072,1.9072,1.9072,1.9072,1.8932,1.8792,1.8547,1.8291,1.7916,1.7529,1.74,1.7141,1.7001,1.7001,1.7001,1.7001,1.7001,1.6613,1.5964,1.5192,1.4931,0.0,0.0,0.0,0.0,0.0,0.9639,0.0,0.0,0.0,0.9503,0.0,0.0,0.0,0.0,0.0,0.0,0.0,0.0,0.0,0.0,0.0,0.0,0.0,0.0,0.0,1.6113,1.6242,1.6296,1.5851,1.5666,1.5989,1.5885,1.5909,1.5991,1.5698,1.5785,1.6172,1.5978,1.6,1.6247,1.607,1.607,1.6247,1.5947,1.5803,1.5792,1.5422,1.5422,1.5782,1.5481,1.554,1.5924,1.5741,1.5645,1.5601,1.5645,1.5882,1.6087,1.6076,1.6194,1.6419,1.6903,1.702,1.7126,1.7361,1.7624,1.7793,1.7793,1.7829,1.7865,1.7817,1.7877,1.7998,1.8167,1.8456,1.8686,1.8686,1.8891,1.9072,1.9072,1.9072,1.9072,1.8944,1.9072,1.9072,1.8944,1.9072,1.9072,1.9072,1.9072,1.9072,1.9072,1.9072,1.9072,1.9072,1.8792,1.8524,1.8512,1.7893,1.7518,1.74,1.713,1.7001,1.7001,1.7001,1.7001,1.7001,1.6872,1.6094,1.4931,1.4931,1.4931,0.0,0.0,0.0,0.0,1.1354,0.0,0.0,0.0,0.9526,0.8315,0.0,0.0,0.0,0.0,0.0,0.0,0.0,0.0,0.0,0.0,0.0,0.0,0.0,0.0,0.0,0.0,1.4135,1.4883,1.4678,1.4862,1.5771,1.5921,1.6065,1.612,1.5731,1.5623,1.5677,1.5406,1.5512,1.5989,1.5534,1.5544,1.5978,1.5774,1.5558,1.5558,1.5319,1.5319,1.5558,1.5287,1.5382,1.5682,1.5914,1.5785,1.5623,1.5828,1.5774,1.572,1.5698,1.5828,1.6205,1.6785,1.7126,1.7479,1.7479,1.7503,1.7527,1.7527,1.7696,1.7817,1.7587,1.7889,1.8191,1.7974,1.8312,1.8686,1.8686,1.8891,1.9072,1.9072,1.9072,1.8956,1.8699,1.8956,1.8944,1.8699,1.8956,1.9072,1.9072,1.9072,1.9072,1.9072,1.9072,1.9072,1.9072,1.8828,1.8431,1.8139,1.7776,1.74,1.7001,1.7001,1.7001,1.7001,1.7001,1.7001,1.7001,1.6364,1.5714,1.4931,1.4931,1.4931,0.0,0.0,0.0,0.0,0.0,0.0,0.0,0.0,0.9371,0.0,0.0,0.0,0.0,0.0,0.0,0.0,0.0,0.0,0.0,0.0,0.0,0.0,0.0,0.0,0.0,0.0,0.0,0.0,0.0,1.4359,1.5456,1.5557,1.5676,1.5828,1.572,1.5601,1.5601,1.5483,1.5525,1.5741,1.5277,1.5287,1.5491,1.5168,1.5007,1.5007,1.5116,1.5235,1.5353,1.5353,1.5525,1.5632,1.565,1.5529,1.5576,1.5914,1.5806,1.5612,1.5591,1.5709,1.5957,1.6419,1.6891,1.7256,1.7479,1.7479,1.7479,1.7479,1.7563,1.7624,1.7515,1.7648,1.7793,1.7672,1.7937,1.8263,1.842,1.8662,1.8891,1.9048,1.9072,1.9072,1.8944,1.8956,1.9072,1.8956,1.8956,1.9072,1.9072,1.9072,1.9072,1.9072,1.9072,1.9072,1.9072,1.8944,1.8828,1.8594,1.8056,1.7658,1.7271,1.713,1.713,1.7271,1.6882,1.6623,1.6613,1.6353,1.5714,1.4931,1.4931,1.4408,1.2421,0.0,0.0,0.0,0.0,0.0,0.0,0.0,0.0,0.0,0.0,0.0,0.0,0.0,0.8259,0.8305,0.0,0.8543,0.0,0.0,0.0,0.0,0.0,0.0,0.0,0.0,0.0,0.0,0.0,0.0,1.4955,1.5201,1.5321,1.5601,1.5622,1.5655,1.5601,1.5483,1.5483,1.5601,1.5235,1.5116,1.5116,1.4888,1.465,1.465,1.4769,1.4878,1.4997,1.5126,1.5277,1.547,1.5408,1.5338,1.5095,1.5582,1.5686,1.5612,1.5483,1.5601,1.5839,1.6301,1.6773,1.702,1.7256,1.7479,1.7479,1.7479,1.7479,1.7479,1.7479,1.7479,1.7479,1.7479,1.7684,1.7925,1.8131,1.8384,1.8638,1.8819,1.8855,1.8879,1.8951,1.9024,1.9072,1.9072,1.9072,1.9072,1.9072,1.9072,1.9072,1.9072,1.9072,1.9072,1.9072,1.9072,1.8968,1.8747,1.8185,1.7787,1.7529,1.7141,1.7141,1.74,1.6882,1.6494,1.6364,1.6234,1.5844,1.5192,1.4931,1.4408,0.0,0.0,0.0,1.0754,0.0,0.0,0.0,0.0,0.9548,0.0,0.0,0.0,0.0,0.0,0.8274,0.7991,0.8019,0.0,0.0,0.0,0.0,0.0,0.0,0.0,0.0,0.0,0.0,0.0,0.0,0.0,1.441,1.4824,1.5252,1.5676,1.571,1.5715,1.5601,1.5235,1.5235,1.5601,1.5235,1.5116,1.5116,1.5116,1.4878,1.453,1.4291,1.4411,1.465,1.4291,1.454,1.5095,1.5349,1.4963,1.4334,1.4841,1.5324,1.5601,1.5235,1.5601,1.6087,1.6419,1.6773,1.702,1.702,1.7256,1.7479,1.7479,1.7479,1.7479,1.7479,1.7479,1.7479,1.7479,1.7684,1.7877,1.7889,1.8106,1.8312,1.8312,1.8324,1.8396,1.865,1.8903,1.9072,1.9072,1.9072,1.9072,1.9072,1.9072,1.9072,1.9072,1.9072,1.9072,1.9072,1.8828,1.8442,1.8045,1.7658,1.7529,1.7529,1.7141,1.7001,1.7001,1.7001,1.6882,1.6504,1.6104,1.5974,1.5974,1.5192,1.4931,0.0,0.0,1.2496,1.1385,0.0,0.0,0.0,0.0,0.0,0.0,0.0,0.0,0.0,0.8618,0.821,0.807,0.7668,0.744,0.0,0.0,0.0,0.0,0.0,0.0,0.0,0.0,0.0,0.0,0.0,0.0,0.0,1.4768,1.5104,1.5443,1.5391,1.5471,1.5601,1.5472,1.5472,1.5601,1.5235,1.5116,1.5116,1.4878,1.465,1.465,1.4639,1.4639,1.453,1.451,1.456,1.4761,1.439,1.438,1.4641,1.5408,1.5555,1.5235,1.5353,1.5601,1.5839,1.6076,1.6312,1.6431,1.6667,1.6903,1.7138,1.7138,1.7373,1.7479,1.7479,1.7479,1.7479,1.7479,1.7551,1.766,1.7841,1.795,1.807,1.8263,1.83,1.8324,1.8408,1.8505,1.8674,1.9024,1.9072,1.9072,1.9072,1.9072,1.9072,1.9072,1.9072,1.9072,1.9072,1.8944,1.8828,1.8442,1.8314,1.8045,1.7787,1.7529,1.7271,1.7271,1.6882,1.6623,1.6504,1.5984,1.5714,1.5714,1.5192,1.4931,1.2642,1.2685,0.0,0.0,1.1364,0.0,0.9738,0.0,0.0,0.0,0.0,0.0,0.0,0.0,0.8241,0.8317,0.7675,0.712,0.0,0.7345,0.0,0.0,0.0,0.0,0.0,0.0,0.0,0.0,0.0,0.0,0.0,0.0,1.4824,1.5166,1.5095,1.5221,1.5343,1.5429,1.5472,1.5472,1.5322,1.5235,1.5116,1.4878,1.465,1.453,1.4759,1.4769,1.4779,1.4629,1.4629,1.453,1.4162,1.4282,1.467,1.5042,1.5121,1.4997,1.5483,1.5601,1.5601,1.5839,1.5968,1.6087,1.6312,1.6667,1.702,1.702,1.7256,1.7479,1.7479,1.7479,1.7479,1.7479,1.7479,1.7527,1.7696,1.7732,1.7793,1.7974,1.801,1.8034,1.8131,1.8143,1.8324,1.8855,1.8939,1.8976,1.906,1.9072,1.9072,1.9072,1.9072,1.9072,1.9072,1.9072,1.8956,1.8828,1.8571,1.8302,1.8033,1.7529,1.7271,1.7271,1.6882,1.6623,1.6504,1.6114,1.5724,1.5323,1.5062,1.4931]}]]